<?xml version="1.0" encoding="UTF-8" standalone="no" ?>
<gpx xmlns="http://www.topografix.com/GPX/1/1" xmlns:xsi="http://www.w3.org/2001/XMLSchema-instance" xsi:schemaLocation="http://www.topografix.com/GPX/1/1 http://www.topografix.com/GPX/1/1/gpx.xsd" version="1.1" creator="VisuGPX - https://www.visugpx.com">
  <metadata>
    <name>PORTE DU BEAUJOLAIS</name>
    <desc><![CDATA[Pacours VTT au départ de Lozanne
Retour au point de départ]]></desc>
  </metadata>
  <trk>
    <name><![CDATA[Lozanne]]></name>
    <trkseg>
      <trkpt lat="45.85516" lon="4.68131">
        <ele>214.03</ele>
        <time>2014-07-05T12:28:54Z</time>
      </trkpt>
      <trkpt lat="45.85513" lon="4.68126">
        <ele>214.03</ele>
        <time>2014-07-05T12:29:23Z</time>
      </trkpt>
      <trkpt lat="45.85512" lon="4.68132">
        <ele>214.03</ele>
        <time>2014-07-05T12:29:52Z</time>
      </trkpt>
      <trkpt lat="45.85509" lon="4.68136">
        <ele>214.99</ele>
        <time>2014-07-05T12:30:24Z</time>
      </trkpt>
      <trkpt lat="45.85508" lon="4.6814">
        <ele>215.47</ele>
        <time>2014-07-05T12:30:58Z</time>
      </trkpt>
      <trkpt lat="45.85507" lon="4.68141">
        <ele>214.99</ele>
        <time>2014-07-05T12:31:25Z</time>
      </trkpt>
      <trkpt lat="45.85507" lon="4.6814">
        <ele>214.99</ele>
        <time>2014-07-05T12:31:58Z</time>
      </trkpt>
      <trkpt lat="45.85508" lon="4.68141">
        <ele>214.99</ele>
        <time>2014-07-05T12:32:26Z</time>
      </trkpt>
      <trkpt lat="45.85507" lon="4.68146">
        <ele>215.95</ele>
        <time>2014-07-05T12:32:51Z</time>
      </trkpt>
      <trkpt lat="45.85507" lon="4.68149">
        <ele>215.95</ele>
        <time>2014-07-05T12:33:00Z</time>
      </trkpt>
      <trkpt lat="45.85507" lon="4.68145">
        <ele>215.47</ele>
        <time>2014-07-05T12:33:23Z</time>
      </trkpt>
      <trkpt lat="45.85509" lon="4.68141">
        <ele>216.43</ele>
        <time>2014-07-05T12:33:46Z</time>
      </trkpt>
      <trkpt lat="45.85508" lon="4.68144">
        <ele>216.43</ele>
        <time>2014-07-05T12:34:04Z</time>
      </trkpt>
      <trkpt lat="45.85508" lon="4.68143">
        <ele>216.43</ele>
        <time>2014-07-05T12:34:20Z</time>
      </trkpt>
      <trkpt lat="45.85511" lon="4.6814">
        <ele>216.43</ele>
        <time>2014-07-05T12:34:36Z</time>
      </trkpt>
      <trkpt lat="45.85511" lon="4.68142">
        <ele>216.43</ele>
        <time>2014-07-05T12:34:41Z</time>
      </trkpt>
      <trkpt lat="45.85511" lon="4.68144">
        <ele>216.91</ele>
        <time>2014-07-05T12:34:42Z</time>
      </trkpt>
      <trkpt lat="45.85514" lon="4.68177">
        <ele>215.95</ele>
        <time>2014-07-05T12:34:50Z</time>
      </trkpt>
      <trkpt lat="45.85515" lon="4.68179">
        <ele>215.95</ele>
        <time>2014-07-05T12:34:51Z</time>
      </trkpt>
      <trkpt lat="45.85521" lon="4.68177">
        <ele>215.47</ele>
        <time>2014-07-05T12:34:54Z</time>
      </trkpt>
      <trkpt lat="45.85525" lon="4.68173">
        <ele>214.99</ele>
        <time>2014-07-05T12:34:55Z</time>
      </trkpt>
      <trkpt lat="45.85528" lon="4.68169">
        <ele>215.47</ele>
        <time>2014-07-05T12:34:56Z</time>
      </trkpt>
      <trkpt lat="45.85531" lon="4.68168">
        <ele>214.99</ele>
        <time>2014-07-05T12:34:57Z</time>
      </trkpt>
      <trkpt lat="45.85566" lon="4.68146">
        <ele>214.03</ele>
        <time>2014-07-05T12:35:05Z</time>
      </trkpt>
      <trkpt lat="45.8559" lon="4.68131">
        <ele>214.03</ele>
        <time>2014-07-05T12:35:13Z</time>
      </trkpt>
      <trkpt lat="45.85593" lon="4.68133">
        <ele>214.03</ele>
        <time>2014-07-05T12:35:14Z</time>
      </trkpt>
      <trkpt lat="45.85596" lon="4.68136">
        <ele>213.55</ele>
        <time>2014-07-05T12:35:15Z</time>
      </trkpt>
      <trkpt lat="45.85598" lon="4.6814">
        <ele>214.03</ele>
        <time>2014-07-05T12:35:16Z</time>
      </trkpt>
      <trkpt lat="45.856" lon="4.68144">
        <ele>214.03</ele>
        <time>2014-07-05T12:35:17Z</time>
      </trkpt>
      <trkpt lat="45.85617" lon="4.68171">
        <ele>213.55</ele>
        <time>2014-07-05T12:35:27Z</time>
      </trkpt>
      <trkpt lat="45.85626" lon="4.68177">
        <ele>214.51</ele>
        <time>2014-07-05T12:35:32Z</time>
      </trkpt>
      <trkpt lat="45.85627" lon="4.68176">
        <ele>214.51</ele>
        <time>2014-07-05T12:35:33Z</time>
      </trkpt>
      <trkpt lat="45.85629" lon="4.68173">
        <ele>214.51</ele>
        <time>2014-07-05T12:35:34Z</time>
      </trkpt>
      <trkpt lat="45.85631" lon="4.6817">
        <ele>214.99</ele>
        <time>2014-07-05T12:35:35Z</time>
      </trkpt>
      <trkpt lat="45.85633" lon="4.68167">
        <ele>214.99</ele>
        <time>2014-07-05T12:35:36Z</time>
      </trkpt>
      <trkpt lat="45.85635" lon="4.68163">
        <ele>214.99</ele>
        <time>2014-07-05T12:35:37Z</time>
      </trkpt>
      <trkpt lat="45.85649" lon="4.68143">
        <ele>215.47</ele>
        <time>2014-07-05T12:35:46Z</time>
      </trkpt>
      <trkpt lat="45.85649" lon="4.68141">
        <ele>214.99</ele>
        <time>2014-07-05T12:35:47Z</time>
      </trkpt>
      <trkpt lat="45.85649" lon="4.68138">
        <ele>215.47</ele>
        <time>2014-07-05T12:35:48Z</time>
      </trkpt>
      <trkpt lat="45.85644" lon="4.68126">
        <ele>213.55</ele>
        <time>2014-07-05T12:35:51Z</time>
      </trkpt>
      <trkpt lat="45.85645" lon="4.68122">
        <ele>213.07</ele>
        <time>2014-07-05T12:35:52Z</time>
      </trkpt>
      <trkpt lat="45.85647" lon="4.6812">
        <ele>213.07</ele>
        <time>2014-07-05T12:35:53Z</time>
      </trkpt>
      <trkpt lat="45.85651" lon="4.68122">
        <ele>213.07</ele>
        <time>2014-07-05T12:35:54Z</time>
      </trkpt>
      <trkpt lat="45.8566" lon="4.68136">
        <ele>213.55</ele>
        <time>2014-07-05T12:35:57Z</time>
      </trkpt>
      <trkpt lat="45.85664" lon="4.68152">
        <ele>213.07</ele>
        <time>2014-07-05T12:36:00Z</time>
      </trkpt>
      <trkpt lat="45.85684" lon="4.68184">
        <ele>212.59</ele>
        <time>2014-07-05T12:36:08Z</time>
      </trkpt>
      <trkpt lat="45.85699" lon="4.68212">
        <ele>213.07</ele>
        <time>2014-07-05T12:36:17Z</time>
      </trkpt>
      <trkpt lat="45.85721" lon="4.68243">
        <ele>212.59</ele>
        <time>2014-07-05T12:36:28Z</time>
      </trkpt>
      <trkpt lat="45.85746" lon="4.68269">
        <ele>213.07</ele>
        <time>2014-07-05T12:36:37Z</time>
      </trkpt>
      <trkpt lat="45.85756" lon="4.6828">
        <ele>212.11</ele>
        <time>2014-07-05T12:36:40Z</time>
      </trkpt>
      <trkpt lat="45.85783" lon="4.68313">
        <ele>210.67</ele>
        <time>2014-07-05T12:36:50Z</time>
      </trkpt>
      <trkpt lat="45.85809" lon="4.68339">
        <ele>211.15</ele>
        <time>2014-07-05T12:36:59Z</time>
      </trkpt>
      <trkpt lat="45.85836" lon="4.68375">
        <ele>210.67</ele>
        <time>2014-07-05T12:37:09Z</time>
      </trkpt>
      <trkpt lat="45.85859" lon="4.68405">
        <ele>212.11</ele>
        <time>2014-07-05T12:37:18Z</time>
      </trkpt>
      <trkpt lat="45.85868" lon="4.68447">
        <ele>213.55</ele>
        <time>2014-07-05T12:37:27Z</time>
      </trkpt>
      <trkpt lat="45.85875" lon="4.68491">
        <ele>212.59</ele>
        <time>2014-07-05T12:37:36Z</time>
      </trkpt>
      <trkpt lat="45.85882" lon="4.68535">
        <ele>213.07</ele>
        <time>2014-07-05T12:37:45Z</time>
      </trkpt>
      <trkpt lat="45.85886" lon="4.68575">
        <ele>213.07</ele>
        <time>2014-07-05T12:37:54Z</time>
      </trkpt>
      <trkpt lat="45.85885" lon="4.68576">
        <ele>212.59</ele>
        <time>2014-07-05T12:37:55Z</time>
      </trkpt>
      <trkpt lat="45.85885" lon="4.68579">
        <ele>213.07</ele>
        <time>2014-07-05T12:37:56Z</time>
      </trkpt>
      <trkpt lat="45.85885" lon="4.68583">
        <ele>212.59</ele>
        <time>2014-07-05T12:37:57Z</time>
      </trkpt>
      <trkpt lat="45.85886" lon="4.68588">
        <ele>213.07</ele>
        <time>2014-07-05T12:37:58Z</time>
      </trkpt>
      <trkpt lat="45.85887" lon="4.68592">
        <ele>212.59</ele>
        <time>2014-07-05T12:37:59Z</time>
      </trkpt>
      <trkpt lat="45.85888" lon="4.68597">
        <ele>213.55</ele>
        <time>2014-07-05T12:38:00Z</time>
      </trkpt>
      <trkpt lat="45.85889" lon="4.68602">
        <ele>212.59</ele>
        <time>2014-07-05T12:38:01Z</time>
      </trkpt>
      <trkpt lat="45.8589" lon="4.68606">
        <ele>213.07</ele>
        <time>2014-07-05T12:38:02Z</time>
      </trkpt>
      <trkpt lat="45.8589" lon="4.6861">
        <ele>212.59</ele>
        <time>2014-07-05T12:38:03Z</time>
      </trkpt>
      <trkpt lat="45.8589" lon="4.68614">
        <ele>212.59</ele>
        <time>2014-07-05T12:38:04Z</time>
      </trkpt>
      <trkpt lat="45.8589" lon="4.68674">
        <ele>213.07</ele>
        <time>2014-07-05T12:38:15Z</time>
      </trkpt>
      <trkpt lat="45.85886" lon="4.68724">
        <ele>212.59</ele>
        <time>2014-07-05T12:38:25Z</time>
      </trkpt>
      <trkpt lat="45.85877" lon="4.68785">
        <ele>213.07</ele>
        <time>2014-07-05T12:38:37Z</time>
      </trkpt>
      <trkpt lat="45.8587" lon="4.68827">
        <ele>212.11</ele>
        <time>2014-07-05T12:38:46Z</time>
      </trkpt>
      <trkpt lat="45.85863" lon="4.68887">
        <ele>212.59</ele>
        <time>2014-07-05T12:38:58Z</time>
      </trkpt>
      <trkpt lat="45.85861" lon="4.68947">
        <ele>212.11</ele>
        <time>2014-07-05T12:39:10Z</time>
      </trkpt>
      <trkpt lat="45.85864" lon="4.68996">
        <ele>212.59</ele>
        <time>2014-07-05T12:39:20Z</time>
      </trkpt>
      <trkpt lat="45.8587" lon="4.69024">
        <ele>211.63</ele>
        <time>2014-07-05T12:39:27Z</time>
      </trkpt>
      <trkpt lat="45.85864" lon="4.69057">
        <ele>211.63</ele>
        <time>2014-07-05T12:39:34Z</time>
      </trkpt>
      <trkpt lat="45.85862" lon="4.69063">
        <ele>211.15</ele>
        <time>2014-07-05T12:39:35Z</time>
      </trkpt>
      <trkpt lat="45.85861" lon="4.69069">
        <ele>211.15</ele>
        <time>2014-07-05T12:39:36Z</time>
      </trkpt>
      <trkpt lat="45.85861" lon="4.69075">
        <ele>211.15</ele>
        <time>2014-07-05T12:39:37Z</time>
      </trkpt>
      <trkpt lat="45.85861" lon="4.69081">
        <ele>211.15</ele>
        <time>2014-07-05T12:39:38Z</time>
      </trkpt>
      <trkpt lat="45.85861" lon="4.69087">
        <ele>211.15</ele>
        <time>2014-07-05T12:39:39Z</time>
      </trkpt>
      <trkpt lat="45.85855" lon="4.69133">
        <ele>211.15</ele>
        <time>2014-07-05T12:39:48Z</time>
      </trkpt>
      <trkpt lat="45.85847" lon="4.69186">
        <ele>210.19</ele>
        <time>2014-07-05T12:39:58Z</time>
      </trkpt>
      <trkpt lat="45.85835" lon="4.6926">
        <ele>210.19</ele>
        <time>2014-07-05T12:40:11Z</time>
      </trkpt>
      <trkpt lat="45.85836" lon="4.69306">
        <ele>210.67</ele>
        <time>2014-07-05T12:40:19Z</time>
      </trkpt>
      <trkpt lat="45.85846" lon="4.69341">
        <ele>210.67</ele>
        <time>2014-07-05T12:40:25Z</time>
      </trkpt>
      <trkpt lat="45.85848" lon="4.69346">
        <ele>210.19</ele>
        <time>2014-07-05T12:40:26Z</time>
      </trkpt>
      <trkpt lat="45.85853" lon="4.69368">
        <ele>210.67</ele>
        <time>2014-07-05T12:40:30Z</time>
      </trkpt>
      <trkpt lat="45.85852" lon="4.69373">
        <ele>210.67</ele>
        <time>2014-07-05T12:40:31Z</time>
      </trkpt>
      <trkpt lat="45.8585" lon="4.69378">
        <ele>210.67</ele>
        <time>2014-07-05T12:40:32Z</time>
      </trkpt>
      <trkpt lat="45.85849" lon="4.69383">
        <ele>210.67</ele>
        <time>2014-07-05T12:40:33Z</time>
      </trkpt>
      <trkpt lat="45.85847" lon="4.69388">
        <ele>210.19</ele>
        <time>2014-07-05T12:40:34Z</time>
      </trkpt>
      <trkpt lat="45.85842" lon="4.69399">
        <ele>210.67</ele>
        <time>2014-07-05T12:40:36Z</time>
      </trkpt>
      <trkpt lat="45.85839" lon="4.69404">
        <ele>210.19</ele>
        <time>2014-07-05T12:40:37Z</time>
      </trkpt>
      <trkpt lat="45.85836" lon="4.69409">
        <ele>210.19</ele>
        <time>2014-07-05T12:40:38Z</time>
      </trkpt>
      <trkpt lat="45.85833" lon="4.69414">
        <ele>209.7</ele>
        <time>2014-07-05T12:40:39Z</time>
      </trkpt>
      <trkpt lat="45.85829" lon="4.69419">
        <ele>209.7</ele>
        <time>2014-07-05T12:40:40Z</time>
      </trkpt>
      <trkpt lat="45.85825" lon="4.69451">
        <ele>210.19</ele>
        <time>2014-07-05T12:40:46Z</time>
      </trkpt>
      <trkpt lat="45.85829" lon="4.6949">
        <ele>210.19</ele>
        <time>2014-07-05T12:40:53Z</time>
      </trkpt>
      <trkpt lat="45.85836" lon="4.69568">
        <ele>210.19</ele>
        <time>2014-07-05T12:41:06Z</time>
      </trkpt>
      <trkpt lat="45.85839" lon="4.69591">
        <ele>209.7</ele>
        <time>2014-07-05T12:41:10Z</time>
      </trkpt>
      <trkpt lat="45.85856" lon="4.69656">
        <ele>209.7</ele>
        <time>2014-07-05T12:41:22Z</time>
      </trkpt>
      <trkpt lat="45.85877" lon="4.69715">
        <ele>209.7</ele>
        <time>2014-07-05T12:41:34Z</time>
      </trkpt>
      <trkpt lat="45.85897" lon="4.69756">
        <ele>209.22</ele>
        <time>2014-07-05T12:41:43Z</time>
      </trkpt>
      <trkpt lat="45.85928" lon="4.69803">
        <ele>208.74</ele>
        <time>2014-07-05T12:41:55Z</time>
      </trkpt>
      <trkpt lat="45.85966" lon="4.69848">
        <ele>209.22</ele>
        <time>2014-07-05T12:42:08Z</time>
      </trkpt>
      <trkpt lat="45.86009" lon="4.69887">
        <ele>208.74</ele>
        <time>2014-07-05T12:42:20Z</time>
      </trkpt>
      <trkpt lat="45.86017" lon="4.69892">
        <ele>208.26</ele>
        <time>2014-07-05T12:42:22Z</time>
      </trkpt>
      <trkpt lat="45.86021" lon="4.69893">
        <ele>208.26</ele>
        <time>2014-07-05T12:42:23Z</time>
      </trkpt>
      <trkpt lat="45.86025" lon="4.69894">
        <ele>208.26</ele>
        <time>2014-07-05T12:42:24Z</time>
      </trkpt>
      <trkpt lat="45.86033" lon="4.69896">
        <ele>208.74</ele>
        <time>2014-07-05T12:42:26Z</time>
      </trkpt>
      <trkpt lat="45.86037" lon="4.69895">
        <ele>208.26</ele>
        <time>2014-07-05T12:42:27Z</time>
      </trkpt>
      <trkpt lat="45.86051" lon="4.69893">
        <ele>208.26</ele>
        <time>2014-07-05T12:42:30Z</time>
      </trkpt>
      <trkpt lat="45.86099" lon="4.6988">
        <ele>208.74</ele>
        <time>2014-07-05T12:42:41Z</time>
      </trkpt>
      <trkpt lat="45.86103" lon="4.69878">
        <ele>208.74</ele>
        <time>2014-07-05T12:42:42Z</time>
      </trkpt>
      <trkpt lat="45.86146" lon="4.69844">
        <ele>208.74</ele>
        <time>2014-07-05T12:42:53Z</time>
      </trkpt>
      <trkpt lat="45.8617" lon="4.69826">
        <ele>208.26</ele>
        <time>2014-07-05T12:43:01Z</time>
      </trkpt>
      <trkpt lat="45.86203" lon="4.69801">
        <ele>208.26</ele>
        <time>2014-07-05T12:43:11Z</time>
      </trkpt>
      <trkpt lat="45.86216" lon="4.69793">
        <ele>208.26</ele>
        <time>2014-07-05T12:43:14Z</time>
      </trkpt>
      <trkpt lat="45.86244" lon="4.69764">
        <ele>208.26</ele>
        <time>2014-07-05T12:43:22Z</time>
      </trkpt>
      <trkpt lat="45.86248" lon="4.69761">
        <ele>208.26</ele>
        <time>2014-07-05T12:43:23Z</time>
      </trkpt>
      <trkpt lat="45.86252" lon="4.6976">
        <ele>208.74</ele>
        <time>2014-07-05T12:43:24Z</time>
      </trkpt>
      <trkpt lat="45.86299" lon="4.69753">
        <ele>207.78</ele>
        <time>2014-07-05T12:43:36Z</time>
      </trkpt>
      <trkpt lat="45.86339" lon="4.69762">
        <ele>208.74</ele>
        <time>2014-07-05T12:43:47Z</time>
      </trkpt>
      <trkpt lat="45.8635" lon="4.69771">
        <ele>208.74</ele>
        <time>2014-07-05T12:43:50Z</time>
      </trkpt>
      <trkpt lat="45.86353" lon="4.69776">
        <ele>208.74</ele>
        <time>2014-07-05T12:43:51Z</time>
      </trkpt>
      <trkpt lat="45.8637" lon="4.69811">
        <ele>208.74</ele>
        <time>2014-07-05T12:43:59Z</time>
      </trkpt>
      <trkpt lat="45.86375" lon="4.6982">
        <ele>209.22</ele>
        <time>2014-07-05T12:44:01Z</time>
      </trkpt>
      <trkpt lat="45.86397" lon="4.69869">
        <ele>208.74</ele>
        <time>2014-07-05T12:44:11Z</time>
      </trkpt>
      <trkpt lat="45.86405" lon="4.69922">
        <ele>208.74</ele>
        <time>2014-07-05T12:44:20Z</time>
      </trkpt>
      <trkpt lat="45.86405" lon="4.69928">
        <ele>208.74</ele>
        <time>2014-07-05T12:44:21Z</time>
      </trkpt>
      <trkpt lat="45.86403" lon="4.69986">
        <ele>208.26</ele>
        <time>2014-07-05T12:44:31Z</time>
      </trkpt>
      <trkpt lat="45.864" lon="4.70046">
        <ele>208.74</ele>
        <time>2014-07-05T12:44:41Z</time>
      </trkpt>
      <trkpt lat="45.86398" lon="4.70057">
        <ele>208.74</ele>
        <time>2014-07-05T12:44:43Z</time>
      </trkpt>
      <trkpt lat="45.86397" lon="4.70063">
        <ele>208.74</ele>
        <time>2014-07-05T12:44:44Z</time>
      </trkpt>
      <trkpt lat="45.86396" lon="4.70069">
        <ele>208.74</ele>
        <time>2014-07-05T12:44:45Z</time>
      </trkpt>
      <trkpt lat="45.8639" lon="4.70105">
        <ele>208.74</ele>
        <time>2014-07-05T12:44:51Z</time>
      </trkpt>
      <trkpt lat="45.86389" lon="4.70117">
        <ele>208.74</ele>
        <time>2014-07-05T12:44:53Z</time>
      </trkpt>
      <trkpt lat="45.86378" lon="4.70177">
        <ele>207.3</ele>
        <time>2014-07-05T12:45:03Z</time>
      </trkpt>
      <trkpt lat="45.86376" lon="4.70182">
        <ele>207.3</ele>
        <time>2014-07-05T12:45:04Z</time>
      </trkpt>
      <trkpt lat="45.86364" lon="4.70207">
        <ele>207.3</ele>
        <time>2014-07-05T12:45:09Z</time>
      </trkpt>
      <trkpt lat="45.86361" lon="4.70211">
        <ele>207.78</ele>
        <time>2014-07-05T12:45:10Z</time>
      </trkpt>
      <trkpt lat="45.86358" lon="4.70215">
        <ele>207.3</ele>
        <time>2014-07-05T12:45:11Z</time>
      </trkpt>
      <trkpt lat="45.86355" lon="4.70218">
        <ele>207.3</ele>
        <time>2014-07-05T12:45:12Z</time>
      </trkpt>
      <trkpt lat="45.86351" lon="4.70221">
        <ele>207.3</ele>
        <time>2014-07-05T12:45:13Z</time>
      </trkpt>
      <trkpt lat="45.86334" lon="4.70254">
        <ele>207.3</ele>
        <time>2014-07-05T12:45:22Z</time>
      </trkpt>
      <trkpt lat="45.86327" lon="4.70295">
        <ele>207.3</ele>
        <time>2014-07-05T12:45:30Z</time>
      </trkpt>
      <trkpt lat="45.86327" lon="4.70301">
        <ele>207.3</ele>
        <time>2014-07-05T12:45:31Z</time>
      </trkpt>
      <trkpt lat="45.86328" lon="4.70306">
        <ele>207.3</ele>
        <time>2014-07-05T12:45:32Z</time>
      </trkpt>
      <trkpt lat="45.8633" lon="4.70312">
        <ele>207.78</ele>
        <time>2014-07-05T12:45:33Z</time>
      </trkpt>
      <trkpt lat="45.86332" lon="4.70316">
        <ele>207.3</ele>
        <time>2014-07-05T12:45:34Z</time>
      </trkpt>
      <trkpt lat="45.86337" lon="4.70326">
        <ele>206.82</ele>
        <time>2014-07-05T12:45:36Z</time>
      </trkpt>
      <trkpt lat="45.8636" lon="4.70357">
        <ele>206.82</ele>
        <time>2014-07-05T12:45:44Z</time>
      </trkpt>
      <trkpt lat="45.86364" lon="4.70361">
        <ele>207.3</ele>
        <time>2014-07-05T12:45:45Z</time>
      </trkpt>
      <trkpt lat="45.86367" lon="4.70365">
        <ele>206.82</ele>
        <time>2014-07-05T12:45:46Z</time>
      </trkpt>
      <trkpt lat="45.8637" lon="4.70369">
        <ele>206.82</ele>
        <time>2014-07-05T12:45:47Z</time>
      </trkpt>
      <trkpt lat="45.86374" lon="4.70372">
        <ele>206.82</ele>
        <time>2014-07-05T12:45:48Z</time>
      </trkpt>
      <trkpt lat="45.86381" lon="4.7038">
        <ele>206.82</ele>
        <time>2014-07-05T12:45:50Z</time>
      </trkpt>
      <trkpt lat="45.86384" lon="4.70384">
        <ele>206.34</ele>
        <time>2014-07-05T12:45:51Z</time>
      </trkpt>
      <trkpt lat="45.86387" lon="4.70389">
        <ele>206.34</ele>
        <time>2014-07-05T12:45:52Z</time>
      </trkpt>
      <trkpt lat="45.86392" lon="4.704">
        <ele>205.86</ele>
        <time>2014-07-05T12:45:54Z</time>
      </trkpt>
      <trkpt lat="45.86394" lon="4.70407">
        <ele>206.34</ele>
        <time>2014-07-05T12:45:55Z</time>
      </trkpt>
      <trkpt lat="45.86395" lon="4.70413">
        <ele>206.34</ele>
        <time>2014-07-05T12:45:56Z</time>
      </trkpt>
      <trkpt lat="45.86396" lon="4.70419">
        <ele>206.34</ele>
        <time>2014-07-05T12:45:57Z</time>
      </trkpt>
      <trkpt lat="45.86397" lon="4.70425">
        <ele>206.34</ele>
        <time>2014-07-05T12:45:58Z</time>
      </trkpt>
      <trkpt lat="45.86398" lon="4.70431">
        <ele>206.82</ele>
        <time>2014-07-05T12:45:59Z</time>
      </trkpt>
      <trkpt lat="45.864" lon="4.70441">
        <ele>205.86</ele>
        <time>2014-07-05T12:46:01Z</time>
      </trkpt>
      <trkpt lat="45.86399" lon="4.70447">
        <ele>205.86</ele>
        <time>2014-07-05T12:46:02Z</time>
      </trkpt>
      <trkpt lat="45.86397" lon="4.70452">
        <ele>205.86</ele>
        <time>2014-07-05T12:46:03Z</time>
      </trkpt>
      <trkpt lat="45.86395" lon="4.70457">
        <ele>205.86</ele>
        <time>2014-07-05T12:46:04Z</time>
      </trkpt>
      <trkpt lat="45.86392" lon="4.70461">
        <ele>206.34</ele>
        <time>2014-07-05T12:46:05Z</time>
      </trkpt>
      <trkpt lat="45.86374" lon="4.70506">
        <ele>205.86</ele>
        <time>2014-07-05T12:46:14Z</time>
      </trkpt>
      <trkpt lat="45.86377" lon="4.70553">
        <ele>205.86</ele>
        <time>2014-07-05T12:46:22Z</time>
      </trkpt>
      <trkpt lat="45.86378" lon="4.70559">
        <ele>205.86</ele>
        <time>2014-07-05T12:46:23Z</time>
      </trkpt>
      <trkpt lat="45.8638" lon="4.70564">
        <ele>205.38</ele>
        <time>2014-07-05T12:46:24Z</time>
      </trkpt>
      <trkpt lat="45.86382" lon="4.7057">
        <ele>205.86</ele>
        <time>2014-07-05T12:46:25Z</time>
      </trkpt>
      <trkpt lat="45.86385" lon="4.70575">
        <ele>205.38</ele>
        <time>2014-07-05T12:46:26Z</time>
      </trkpt>
      <trkpt lat="45.86388" lon="4.70578">
        <ele>205.38</ele>
        <time>2014-07-05T12:46:27Z</time>
      </trkpt>
      <trkpt lat="45.86392" lon="4.70579">
        <ele>205.38</ele>
        <time>2014-07-05T12:46:28Z</time>
      </trkpt>
      <trkpt lat="45.86397" lon="4.70578">
        <ele>205.38</ele>
        <time>2014-07-05T12:46:29Z</time>
      </trkpt>
      <trkpt lat="45.86401" lon="4.70577">
        <ele>204.9</ele>
        <time>2014-07-05T12:46:30Z</time>
      </trkpt>
      <trkpt lat="45.86411" lon="4.70573">
        <ele>204.9</ele>
        <time>2014-07-05T12:46:32Z</time>
      </trkpt>
      <trkpt lat="45.86456" lon="4.70563">
        <ele>205.38</ele>
        <time>2014-07-05T12:46:42Z</time>
      </trkpt>
      <trkpt lat="45.86465" lon="4.70562">
        <ele>204.9</ele>
        <time>2014-07-05T12:46:44Z</time>
      </trkpt>
      <trkpt lat="45.86479" lon="4.70561">
        <ele>204.9</ele>
        <time>2014-07-05T12:46:47Z</time>
      </trkpt>
      <trkpt lat="45.86502" lon="4.70564">
        <ele>205.38</ele>
        <time>2014-07-05T12:46:52Z</time>
      </trkpt>
      <trkpt lat="45.86512" lon="4.70567">
        <ele>205.38</ele>
        <time>2014-07-05T12:46:54Z</time>
      </trkpt>
      <trkpt lat="45.8652" lon="4.70573">
        <ele>204.9</ele>
        <time>2014-07-05T12:46:56Z</time>
      </trkpt>
      <trkpt lat="45.86524" lon="4.70577">
        <ele>204.9</ele>
        <time>2014-07-05T12:46:57Z</time>
      </trkpt>
      <trkpt lat="45.86528" lon="4.70582">
        <ele>204.42</ele>
        <time>2014-07-05T12:46:58Z</time>
      </trkpt>
      <trkpt lat="45.86532" lon="4.70587">
        <ele>204.42</ele>
        <time>2014-07-05T12:46:59Z</time>
      </trkpt>
      <trkpt lat="45.86536" lon="4.70593">
        <ele>204.42</ele>
        <time>2014-07-05T12:47:00Z</time>
      </trkpt>
      <trkpt lat="45.8654" lon="4.706">
        <ele>203.94</ele>
        <time>2014-07-05T12:47:01Z</time>
      </trkpt>
      <trkpt lat="45.86543" lon="4.70607">
        <ele>203.94</ele>
        <time>2014-07-05T12:47:02Z</time>
      </trkpt>
      <trkpt lat="45.86546" lon="4.70614">
        <ele>203.94</ele>
        <time>2014-07-05T12:47:03Z</time>
      </trkpt>
      <trkpt lat="45.86549" lon="4.7062">
        <ele>203.46</ele>
        <time>2014-07-05T12:47:04Z</time>
      </trkpt>
      <trkpt lat="45.86552" lon="4.70626">
        <ele>204.42</ele>
        <time>2014-07-05T12:47:05Z</time>
      </trkpt>
      <trkpt lat="45.86556" lon="4.7063">
        <ele>204.42</ele>
        <time>2014-07-05T12:47:06Z</time>
      </trkpt>
      <trkpt lat="45.86561" lon="4.70632">
        <ele>203.94</ele>
        <time>2014-07-05T12:47:07Z</time>
      </trkpt>
      <trkpt lat="45.86566" lon="4.70633">
        <ele>203.94</ele>
        <time>2014-07-05T12:47:08Z</time>
      </trkpt>
      <trkpt lat="45.86571" lon="4.70633">
        <ele>203.46</ele>
        <time>2014-07-05T12:47:09Z</time>
      </trkpt>
      <trkpt lat="45.86576" lon="4.70634">
        <ele>203.46</ele>
        <time>2014-07-05T12:47:10Z</time>
      </trkpt>
      <trkpt lat="45.8658" lon="4.70634">
        <ele>203.94</ele>
        <time>2014-07-05T12:47:11Z</time>
      </trkpt>
      <trkpt lat="45.86592" lon="4.70634">
        <ele>203.46</ele>
        <time>2014-07-05T12:47:14Z</time>
      </trkpt>
      <trkpt lat="45.86596" lon="4.70633">
        <ele>202.98</ele>
        <time>2014-07-05T12:47:15Z</time>
      </trkpt>
      <trkpt lat="45.866" lon="4.70633">
        <ele>203.46</ele>
        <time>2014-07-05T12:47:16Z</time>
      </trkpt>
      <trkpt lat="45.86608" lon="4.70636">
        <ele>203.46</ele>
        <time>2014-07-05T12:47:18Z</time>
      </trkpt>
      <trkpt lat="45.86621" lon="4.70645">
        <ele>203.46</ele>
        <time>2014-07-05T12:47:21Z</time>
      </trkpt>
      <trkpt lat="45.86642" lon="4.70643">
        <ele>203.46</ele>
        <time>2014-07-05T12:47:28Z</time>
      </trkpt>
      <trkpt lat="45.86652" lon="4.70637">
        <ele>203.94</ele>
        <time>2014-07-05T12:47:33Z</time>
      </trkpt>
      <trkpt lat="45.86665" lon="4.70637">
        <ele>203.46</ele>
        <time>2014-07-05T12:47:41Z</time>
      </trkpt>
      <trkpt lat="45.86687" lon="4.7066">
        <ele>202.98</ele>
        <time>2014-07-05T12:47:50Z</time>
      </trkpt>
      <trkpt lat="45.86711" lon="4.707">
        <ele>202.98</ele>
        <time>2014-07-05T12:48:00Z</time>
      </trkpt>
      <trkpt lat="45.86734" lon="4.70709">
        <ele>202.98</ele>
        <time>2014-07-05T12:48:09Z</time>
      </trkpt>
      <trkpt lat="45.86753" lon="4.70727">
        <ele>203.46</ele>
        <time>2014-07-05T12:48:17Z</time>
      </trkpt>
      <trkpt lat="45.86755" lon="4.70732">
        <ele>203.94</ele>
        <time>2014-07-05T12:48:19Z</time>
      </trkpt>
      <trkpt lat="45.86767" lon="4.70744">
        <ele>204.42</ele>
        <time>2014-07-05T12:48:24Z</time>
      </trkpt>
      <trkpt lat="45.8677" lon="4.7076">
        <ele>203.94</ele>
        <time>2014-07-05T12:48:29Z</time>
      </trkpt>
      <trkpt lat="45.86778" lon="4.70809">
        <ele>202.98</ele>
        <time>2014-07-05T12:48:37Z</time>
      </trkpt>
      <trkpt lat="45.86802" lon="4.70835">
        <ele>203.46</ele>
        <time>2014-07-05T12:48:45Z</time>
      </trkpt>
      <trkpt lat="45.86824" lon="4.70875">
        <ele>203.46</ele>
        <time>2014-07-05T12:48:54Z</time>
      </trkpt>
      <trkpt lat="45.86847" lon="4.70929">
        <ele>202.98</ele>
        <time>2014-07-05T12:49:05Z</time>
      </trkpt>
      <trkpt lat="45.86867" lon="4.70978">
        <ele>202.98</ele>
        <time>2014-07-05T12:49:15Z</time>
      </trkpt>
      <trkpt lat="45.86868" lon="4.70984">
        <ele>202.98</ele>
        <time>2014-07-05T12:49:16Z</time>
      </trkpt>
      <trkpt lat="45.86869" lon="4.70989">
        <ele>203.46</ele>
        <time>2014-07-05T12:49:17Z</time>
      </trkpt>
      <trkpt lat="45.86872" lon="4.71018">
        <ele>202.98</ele>
        <time>2014-07-05T12:49:22Z</time>
      </trkpt>
      <trkpt lat="45.86872" lon="4.71024">
        <ele>203.46</ele>
        <time>2014-07-05T12:49:23Z</time>
      </trkpt>
      <trkpt lat="45.86872" lon="4.71029">
        <ele>202.98</ele>
        <time>2014-07-05T12:49:24Z</time>
      </trkpt>
      <trkpt lat="45.86873" lon="4.71035">
        <ele>202.98</ele>
        <time>2014-07-05T12:49:25Z</time>
      </trkpt>
      <trkpt lat="45.86874" lon="4.7104">
        <ele>202.98</ele>
        <time>2014-07-05T12:49:26Z</time>
      </trkpt>
      <trkpt lat="45.86875" lon="4.71045">
        <ele>203.46</ele>
        <time>2014-07-05T12:49:27Z</time>
      </trkpt>
      <trkpt lat="45.86875" lon="4.7105">
        <ele>203.46</ele>
        <time>2014-07-05T12:49:28Z</time>
      </trkpt>
      <trkpt lat="45.86876" lon="4.71054">
        <ele>203.46</ele>
        <time>2014-07-05T12:49:29Z</time>
      </trkpt>
      <trkpt lat="45.86876" lon="4.71058">
        <ele>203.94</ele>
        <time>2014-07-05T12:49:30Z</time>
      </trkpt>
      <trkpt lat="45.86877" lon="4.71061">
        <ele>203.94</ele>
        <time>2014-07-05T12:49:31Z</time>
      </trkpt>
      <trkpt lat="45.86878" lon="4.71063">
        <ele>203.46</ele>
        <time>2014-07-05T12:49:32Z</time>
      </trkpt>
      <trkpt lat="45.86878" lon="4.71065">
        <ele>203.94</ele>
        <time>2014-07-05T12:49:33Z</time>
      </trkpt>
      <trkpt lat="45.86879" lon="4.71067">
        <ele>204.42</ele>
        <time>2014-07-05T12:49:34Z</time>
      </trkpt>
      <trkpt lat="45.86879" lon="4.71069">
        <ele>204.42</ele>
        <time>2014-07-05T12:49:35Z</time>
      </trkpt>
      <trkpt lat="45.86879" lon="4.71071">
        <ele>204.42</ele>
        <time>2014-07-05T12:49:36Z</time>
      </trkpt>
      <trkpt lat="45.86879" lon="4.71072">
        <ele>204.42</ele>
        <time>2014-07-05T12:49:37Z</time>
      </trkpt>
      <trkpt lat="45.86879" lon="4.71074">
        <ele>204.9</ele>
        <time>2014-07-05T12:49:38Z</time>
      </trkpt>
      <trkpt lat="45.86878" lon="4.71075">
        <ele>203.94</ele>
        <time>2014-07-05T12:49:39Z</time>
      </trkpt>
      <trkpt lat="45.86877" lon="4.71077">
        <ele>204.42</ele>
        <time>2014-07-05T12:49:40Z</time>
      </trkpt>
      <trkpt lat="45.86876" lon="4.7108">
        <ele>204.42</ele>
        <time>2014-07-05T12:49:41Z</time>
      </trkpt>
      <trkpt lat="45.86875" lon="4.71083">
        <ele>203.94</ele>
        <time>2014-07-05T12:49:42Z</time>
      </trkpt>
      <trkpt lat="45.86874" lon="4.71124">
        <ele>204.42</ele>
        <time>2014-07-05T12:49:52Z</time>
      </trkpt>
      <trkpt lat="45.86877" lon="4.71171">
        <ele>204.42</ele>
        <time>2014-07-05T12:50:01Z</time>
      </trkpt>
      <trkpt lat="45.86875" lon="4.7123">
        <ele>204.42</ele>
        <time>2014-07-05T12:50:12Z</time>
      </trkpt>
      <trkpt lat="45.86879" lon="4.71281">
        <ele>203.94</ele>
        <time>2014-07-05T12:50:22Z</time>
      </trkpt>
      <trkpt lat="45.86879" lon="4.71332">
        <ele>203.46</ele>
        <time>2014-07-05T12:50:32Z</time>
      </trkpt>
      <trkpt lat="45.86879" lon="4.71338">
        <ele>202.98</ele>
        <time>2014-07-05T12:50:33Z</time>
      </trkpt>
      <trkpt lat="45.86887" lon="4.71394">
        <ele>202.49</ele>
        <time>2014-07-05T12:50:40Z</time>
      </trkpt>
      <trkpt lat="45.86888" lon="4.71401">
        <ele>202.49</ele>
        <time>2014-07-05T12:50:41Z</time>
      </trkpt>
      <trkpt lat="45.86889" lon="4.71409">
        <ele>202.49</ele>
        <time>2014-07-05T12:50:42Z</time>
      </trkpt>
      <trkpt lat="45.86895" lon="4.71434">
        <ele>202.49</ele>
        <time>2014-07-05T12:50:46Z</time>
      </trkpt>
      <trkpt lat="45.869" lon="4.71457">
        <ele>202.49</ele>
        <time>2014-07-05T12:50:50Z</time>
      </trkpt>
      <trkpt lat="45.86909" lon="4.71482">
        <ele>202.49</ele>
        <time>2014-07-05T12:50:54Z</time>
      </trkpt>
      <trkpt lat="45.86916" lon="4.71501">
        <ele>202.01</ele>
        <time>2014-07-05T12:50:57Z</time>
      </trkpt>
      <trkpt lat="45.8692" lon="4.71508">
        <ele>202.49</ele>
        <time>2014-07-05T12:50:58Z</time>
      </trkpt>
      <trkpt lat="45.86924" lon="4.71513">
        <ele>202.49</ele>
        <time>2014-07-05T12:50:59Z</time>
      </trkpt>
      <trkpt lat="45.86928" lon="4.71519">
        <ele>202.49</ele>
        <time>2014-07-05T12:51:00Z</time>
      </trkpt>
      <trkpt lat="45.86933" lon="4.71523">
        <ele>202.01</ele>
        <time>2014-07-05T12:51:01Z</time>
      </trkpt>
      <trkpt lat="45.8694" lon="4.71533">
        <ele>202.49</ele>
        <time>2014-07-05T12:51:03Z</time>
      </trkpt>
      <trkpt lat="45.86943" lon="4.71539">
        <ele>202.49</ele>
        <time>2014-07-05T12:51:04Z</time>
      </trkpt>
      <trkpt lat="45.86946" lon="4.71544">
        <ele>202.49</ele>
        <time>2014-07-05T12:51:05Z</time>
      </trkpt>
      <trkpt lat="45.86951" lon="4.71555">
        <ele>202.49</ele>
        <time>2014-07-05T12:51:07Z</time>
      </trkpt>
      <trkpt lat="45.86965" lon="4.71577">
        <ele>202.49</ele>
        <time>2014-07-05T12:51:11Z</time>
      </trkpt>
      <trkpt lat="45.86969" lon="4.71581">
        <ele>202.01</ele>
        <time>2014-07-05T12:51:12Z</time>
      </trkpt>
      <trkpt lat="45.86978" lon="4.71589">
        <ele>202.01</ele>
        <time>2014-07-05T12:51:14Z</time>
      </trkpt>
      <trkpt lat="45.86982" lon="4.71592">
        <ele>202.01</ele>
        <time>2014-07-05T12:51:15Z</time>
      </trkpt>
      <trkpt lat="45.86998" lon="4.71603">
        <ele>202.49</ele>
        <time>2014-07-05T12:51:19Z</time>
      </trkpt>
      <trkpt lat="45.87016" lon="4.71612">
        <ele>202.01</ele>
        <time>2014-07-05T12:51:23Z</time>
      </trkpt>
      <trkpt lat="45.87021" lon="4.71615">
        <ele>202.49</ele>
        <time>2014-07-05T12:51:24Z</time>
      </trkpt>
      <trkpt lat="45.87065" lon="4.71655">
        <ele>201.53</ele>
        <time>2014-07-05T12:51:35Z</time>
      </trkpt>
      <trkpt lat="45.87069" lon="4.71656">
        <ele>201.53</ele>
        <time>2014-07-05T12:51:36Z</time>
      </trkpt>
      <trkpt lat="45.87107" lon="4.71644">
        <ele>201.53</ele>
        <time>2014-07-05T12:51:45Z</time>
      </trkpt>
      <trkpt lat="45.87111" lon="4.71642">
        <ele>202.01</ele>
        <time>2014-07-05T12:51:46Z</time>
      </trkpt>
      <trkpt lat="45.87119" lon="4.71636">
        <ele>201.53</ele>
        <time>2014-07-05T12:51:48Z</time>
      </trkpt>
      <trkpt lat="45.87133" lon="4.71621">
        <ele>202.01</ele>
        <time>2014-07-05T12:51:52Z</time>
      </trkpt>
      <trkpt lat="45.87151" lon="4.71594">
        <ele>202.98</ele>
        <time>2014-07-05T12:51:58Z</time>
      </trkpt>
      <trkpt lat="45.87155" lon="4.7159">
        <ele>202.98</ele>
        <time>2014-07-05T12:51:59Z</time>
      </trkpt>
      <trkpt lat="45.87159" lon="4.71587">
        <ele>202.98</ele>
        <time>2014-07-05T12:52:00Z</time>
      </trkpt>
      <trkpt lat="45.87195" lon="4.71546">
        <ele>202.98</ele>
        <time>2014-07-05T12:52:11Z</time>
      </trkpt>
      <trkpt lat="45.87207" lon="4.71526">
        <ele>202.49</ele>
        <time>2014-07-05T12:52:17Z</time>
      </trkpt>
      <trkpt lat="45.87207" lon="4.71522">
        <ele>202.49</ele>
        <time>2014-07-05T12:52:18Z</time>
      </trkpt>
      <trkpt lat="45.87208" lon="4.71518">
        <ele>202.98</ele>
        <time>2014-07-05T12:52:19Z</time>
      </trkpt>
      <trkpt lat="45.8721" lon="4.71515">
        <ele>202.49</ele>
        <time>2014-07-05T12:52:20Z</time>
      </trkpt>
      <trkpt lat="45.87212" lon="4.71511">
        <ele>202.98</ele>
        <time>2014-07-05T12:52:21Z</time>
      </trkpt>
      <trkpt lat="45.87214" lon="4.71508">
        <ele>202.49</ele>
        <time>2014-07-05T12:52:22Z</time>
      </trkpt>
      <trkpt lat="45.87216" lon="4.71505">
        <ele>202.98</ele>
        <time>2014-07-05T12:52:23Z</time>
      </trkpt>
      <trkpt lat="45.87247" lon="4.7146">
        <ele>202.98</ele>
        <time>2014-07-05T12:52:35Z</time>
      </trkpt>
      <trkpt lat="45.87285" lon="4.7142">
        <ele>204.9</ele>
        <time>2014-07-05T12:52:48Z</time>
      </trkpt>
      <trkpt lat="45.8731" lon="4.71407">
        <ele>206.34</ele>
        <time>2014-07-05T12:52:58Z</time>
      </trkpt>
      <trkpt lat="45.87333" lon="4.71393">
        <ele>209.22</ele>
        <time>2014-07-05T12:53:10Z</time>
      </trkpt>
      <trkpt lat="45.87353" lon="4.71385">
        <ele>211.15</ele>
        <time>2014-07-05T12:53:20Z</time>
      </trkpt>
      <trkpt lat="45.87358" lon="4.71382">
        <ele>212.11</ele>
        <time>2014-07-05T12:53:28Z</time>
      </trkpt>
      <trkpt lat="45.8736" lon="4.7138">
        <ele>212.11</ele>
        <time>2014-07-05T12:53:29Z</time>
      </trkpt>
      <trkpt lat="45.87361" lon="4.71378">
        <ele>212.59</ele>
        <time>2014-07-05T12:53:30Z</time>
      </trkpt>
      <trkpt lat="45.87374" lon="4.71371">
        <ele>215.95</ele>
        <time>2014-07-05T12:53:40Z</time>
      </trkpt>
      <trkpt lat="45.87388" lon="4.71369">
        <ele>218.84</ele>
        <time>2014-07-05T12:53:51Z</time>
      </trkpt>
      <trkpt lat="45.87399" lon="4.71372">
        <ele>222.2</ele>
        <time>2014-07-05T12:54:02Z</time>
      </trkpt>
      <trkpt lat="45.87414" lon="4.71367">
        <ele>224.61</ele>
        <time>2014-07-05T12:54:13Z</time>
      </trkpt>
      <trkpt lat="45.87415" lon="4.71364">
        <ele>226.05</ele>
        <time>2014-07-05T12:54:17Z</time>
      </trkpt>
      <trkpt lat="45.87416" lon="4.71362">
        <ele>226.05</ele>
        <time>2014-07-05T12:54:18Z</time>
      </trkpt>
      <trkpt lat="45.87421" lon="4.71346">
        <ele>227.01</ele>
        <time>2014-07-05T12:54:26Z</time>
      </trkpt>
      <trkpt lat="45.8743" lon="4.71318">
        <ele>227.97</ele>
        <time>2014-07-05T12:54:36Z</time>
      </trkpt>
      <trkpt lat="45.87437" lon="4.71306">
        <ele>227.97</ele>
        <time>2014-07-05T12:54:41Z</time>
      </trkpt>
      <trkpt lat="45.87439" lon="4.71306">
        <ele>228.45</ele>
        <time>2014-07-05T12:54:42Z</time>
      </trkpt>
      <trkpt lat="45.87441" lon="4.71308">
        <ele>228.93</ele>
        <time>2014-07-05T12:54:43Z</time>
      </trkpt>
      <trkpt lat="45.87443" lon="4.7131">
        <ele>228.93</ele>
        <time>2014-07-05T12:54:44Z</time>
      </trkpt>
      <trkpt lat="45.87444" lon="4.71311">
        <ele>228.93</ele>
        <time>2014-07-05T12:54:45Z</time>
      </trkpt>
      <trkpt lat="45.87445" lon="4.71312">
        <ele>228.93</ele>
        <time>2014-07-05T12:54:46Z</time>
      </trkpt>
      <trkpt lat="45.87446" lon="4.71314">
        <ele>229.41</ele>
        <time>2014-07-05T12:54:47Z</time>
      </trkpt>
      <trkpt lat="45.87447" lon="4.71315">
        <ele>229.41</ele>
        <time>2014-07-05T12:54:48Z</time>
      </trkpt>
      <trkpt lat="45.87453" lon="4.71324">
        <ele>231.33</ele>
        <time>2014-07-05T12:54:54Z</time>
      </trkpt>
      <trkpt lat="45.87472" lon="4.71342">
        <ele>232.78</ele>
        <time>2014-07-05T12:55:08Z</time>
      </trkpt>
      <trkpt lat="45.87477" lon="4.71347">
        <ele>233.26</ele>
        <time>2014-07-05T12:55:11Z</time>
      </trkpt>
      <trkpt lat="45.8748" lon="4.71345">
        <ele>232.78</ele>
        <time>2014-07-05T12:55:12Z</time>
      </trkpt>
      <trkpt lat="45.87481" lon="4.71343">
        <ele>233.26</ele>
        <time>2014-07-05T12:55:13Z</time>
      </trkpt>
      <trkpt lat="45.87483" lon="4.71341">
        <ele>233.26</ele>
        <time>2014-07-05T12:55:14Z</time>
      </trkpt>
      <trkpt lat="45.87484" lon="4.71339">
        <ele>233.26</ele>
        <time>2014-07-05T12:55:15Z</time>
      </trkpt>
      <trkpt lat="45.87489" lon="4.71335">
        <ele>233.74</ele>
        <time>2014-07-05T12:55:19Z</time>
      </trkpt>
      <trkpt lat="45.87491" lon="4.71336">
        <ele>233.74</ele>
        <time>2014-07-05T12:55:20Z</time>
      </trkpt>
      <trkpt lat="45.87507" lon="4.71361">
        <ele>234.7</ele>
        <time>2014-07-05T12:55:33Z</time>
      </trkpt>
      <trkpt lat="45.87529" lon="4.71378">
        <ele>236.14</ele>
        <time>2014-07-05T12:55:44Z</time>
      </trkpt>
      <trkpt lat="45.87556" lon="4.71384">
        <ele>236.14</ele>
        <time>2014-07-05T12:55:55Z</time>
      </trkpt>
      <trkpt lat="45.87594" lon="4.71374">
        <ele>236.14</ele>
        <time>2014-07-05T12:56:07Z</time>
      </trkpt>
      <trkpt lat="45.87631" lon="4.71359">
        <ele>235.66</ele>
        <time>2014-07-05T12:56:19Z</time>
      </trkpt>
      <trkpt lat="45.87633" lon="4.71318">
        <ele>236.62</ele>
        <time>2014-07-05T12:56:28Z</time>
      </trkpt>
      <trkpt lat="45.87633" lon="4.71313">
        <ele>236.62</ele>
        <time>2014-07-05T12:56:29Z</time>
      </trkpt>
      <trkpt lat="45.87635" lon="4.71309">
        <ele>236.62</ele>
        <time>2014-07-05T12:56:30Z</time>
      </trkpt>
      <trkpt lat="45.87638" lon="4.71305">
        <ele>236.14</ele>
        <time>2014-07-05T12:56:31Z</time>
      </trkpt>
      <trkpt lat="45.87642" lon="4.71303">
        <ele>236.62</ele>
        <time>2014-07-05T12:56:32Z</time>
      </trkpt>
      <trkpt lat="45.87646" lon="4.71301">
        <ele>236.14</ele>
        <time>2014-07-05T12:56:33Z</time>
      </trkpt>
      <trkpt lat="45.87651" lon="4.71299">
        <ele>236.62</ele>
        <time>2014-07-05T12:56:34Z</time>
      </trkpt>
      <trkpt lat="45.87686" lon="4.71277">
        <ele>236.62</ele>
        <time>2014-07-05T12:56:44Z</time>
      </trkpt>
      <trkpt lat="45.87709" lon="4.71251">
        <ele>236.14</ele>
        <time>2014-07-05T12:56:54Z</time>
      </trkpt>
      <trkpt lat="45.87723" lon="4.71236">
        <ele>236.62</ele>
        <time>2014-07-05T12:56:58Z</time>
      </trkpt>
      <trkpt lat="45.87736" lon="4.71222">
        <ele>236.62</ele>
        <time>2014-07-05T12:57:02Z</time>
      </trkpt>
      <trkpt lat="45.87766" lon="4.71193">
        <ele>237.1</ele>
        <time>2014-07-05T12:57:11Z</time>
      </trkpt>
      <trkpt lat="45.87791" lon="4.71169">
        <ele>236.62</ele>
        <time>2014-07-05T12:57:20Z</time>
      </trkpt>
      <trkpt lat="45.87795" lon="4.7116">
        <ele>236.62</ele>
        <time>2014-07-05T12:57:22Z</time>
      </trkpt>
      <trkpt lat="45.878" lon="4.71149">
        <ele>236.14</ele>
        <time>2014-07-05T12:57:24Z</time>
      </trkpt>
      <trkpt lat="45.8782" lon="4.71071">
        <ele>235.66</ele>
        <time>2014-07-05T12:57:37Z</time>
      </trkpt>
      <trkpt lat="45.87829" lon="4.71031">
        <ele>234.7</ele>
        <time>2014-07-05T12:57:44Z</time>
      </trkpt>
      <trkpt lat="45.8783" lon="4.71026">
        <ele>235.18</ele>
        <time>2014-07-05T12:57:45Z</time>
      </trkpt>
      <trkpt lat="45.8784" lon="4.70997">
        <ele>234.22</ele>
        <time>2014-07-05T12:57:54Z</time>
      </trkpt>
      <trkpt lat="45.87843" lon="4.70981">
        <ele>234.7</ele>
        <time>2014-07-05T12:58:04Z</time>
      </trkpt>
      <trkpt lat="45.87851" lon="4.70947">
        <ele>234.22</ele>
        <time>2014-07-05T12:58:10Z</time>
      </trkpt>
      <trkpt lat="45.87853" lon="4.70942">
        <ele>234.7</ele>
        <time>2014-07-05T12:58:11Z</time>
      </trkpt>
      <trkpt lat="45.87869" lon="4.70887">
        <ele>234.7</ele>
        <time>2014-07-05T12:58:22Z</time>
      </trkpt>
      <trkpt lat="45.87873" lon="4.70886">
        <ele>234.7</ele>
        <time>2014-07-05T12:58:23Z</time>
      </trkpt>
      <trkpt lat="45.87876" lon="4.70887">
        <ele>234.7</ele>
        <time>2014-07-05T12:58:24Z</time>
      </trkpt>
      <trkpt lat="45.8788" lon="4.70888">
        <ele>234.22</ele>
        <time>2014-07-05T12:58:25Z</time>
      </trkpt>
      <trkpt lat="45.87883" lon="4.70888">
        <ele>234.7</ele>
        <time>2014-07-05T12:58:26Z</time>
      </trkpt>
      <trkpt lat="45.87887" lon="4.70887">
        <ele>234.7</ele>
        <time>2014-07-05T12:58:27Z</time>
      </trkpt>
      <trkpt lat="45.8789" lon="4.70884">
        <ele>235.18</ele>
        <time>2014-07-05T12:58:28Z</time>
      </trkpt>
      <trkpt lat="45.87893" lon="4.70881">
        <ele>235.18</ele>
        <time>2014-07-05T12:58:29Z</time>
      </trkpt>
      <trkpt lat="45.87896" lon="4.70876">
        <ele>235.18</ele>
        <time>2014-07-05T12:58:30Z</time>
      </trkpt>
      <trkpt lat="45.87901" lon="4.70868">
        <ele>235.18</ele>
        <time>2014-07-05T12:58:32Z</time>
      </trkpt>
      <trkpt lat="45.87932" lon="4.7081">
        <ele>236.14</ele>
        <time>2014-07-05T12:58:45Z</time>
      </trkpt>
      <trkpt lat="45.87933" lon="4.70787">
        <ele>235.66</ele>
        <time>2014-07-05T12:58:49Z</time>
      </trkpt>
      <trkpt lat="45.87935" lon="4.70782">
        <ele>235.18</ele>
        <time>2014-07-05T12:58:50Z</time>
      </trkpt>
      <trkpt lat="45.87938" lon="4.70777">
        <ele>235.66</ele>
        <time>2014-07-05T12:58:51Z</time>
      </trkpt>
      <trkpt lat="45.87971" lon="4.70722">
        <ele>236.62</ele>
        <time>2014-07-05T12:59:03Z</time>
      </trkpt>
      <trkpt lat="45.88007" lon="4.70662">
        <ele>238.54</ele>
        <time>2014-07-05T12:59:17Z</time>
      </trkpt>
      <trkpt lat="45.88034" lon="4.70613">
        <ele>240.95</ele>
        <time>2014-07-05T12:59:30Z</time>
      </trkpt>
      <trkpt lat="45.88044" lon="4.70601">
        <ele>243.35</ele>
        <time>2014-07-05T12:59:35Z</time>
      </trkpt>
      <trkpt lat="45.88046" lon="4.70602">
        <ele>243.83</ele>
        <time>2014-07-05T12:59:36Z</time>
      </trkpt>
      <trkpt lat="45.88048" lon="4.70605">
        <ele>243.83</ele>
        <time>2014-07-05T12:59:37Z</time>
      </trkpt>
      <trkpt lat="45.88051" lon="4.70606">
        <ele>243.35</ele>
        <time>2014-07-05T12:59:38Z</time>
      </trkpt>
      <trkpt lat="45.88053" lon="4.70607">
        <ele>243.83</ele>
        <time>2014-07-05T12:59:39Z</time>
      </trkpt>
      <trkpt lat="45.88054" lon="4.70607">
        <ele>243.83</ele>
        <time>2014-07-05T12:59:40Z</time>
      </trkpt>
      <trkpt lat="45.88056" lon="4.70606">
        <ele>244.31</ele>
        <time>2014-07-05T12:59:41Z</time>
      </trkpt>
      <trkpt lat="45.88058" lon="4.70604">
        <ele>243.83</ele>
        <time>2014-07-05T12:59:42Z</time>
      </trkpt>
      <trkpt lat="45.88059" lon="4.70602">
        <ele>243.83</ele>
        <time>2014-07-05T12:59:43Z</time>
      </trkpt>
      <trkpt lat="45.88059" lon="4.70599">
        <ele>244.79</ele>
        <time>2014-07-05T12:59:44Z</time>
      </trkpt>
      <trkpt lat="45.8806" lon="4.70597">
        <ele>244.31</ele>
        <time>2014-07-05T12:59:45Z</time>
      </trkpt>
      <trkpt lat="45.88061" lon="4.70595">
        <ele>245.27</ele>
        <time>2014-07-05T12:59:46Z</time>
      </trkpt>
      <trkpt lat="45.88062" lon="4.70593">
        <ele>245.75</ele>
        <time>2014-07-05T12:59:47Z</time>
      </trkpt>
      <trkpt lat="45.88063" lon="4.70592">
        <ele>245.75</ele>
        <time>2014-07-05T12:59:48Z</time>
      </trkpt>
      <trkpt lat="45.88064" lon="4.7059">
        <ele>245.75</ele>
        <time>2014-07-05T12:59:49Z</time>
      </trkpt>
      <trkpt lat="45.88065" lon="4.70588">
        <ele>246.23</ele>
        <time>2014-07-05T12:59:50Z</time>
      </trkpt>
      <trkpt lat="45.88066" lon="4.70586">
        <ele>246.72</ele>
        <time>2014-07-05T12:59:51Z</time>
      </trkpt>
      <trkpt lat="45.88067" lon="4.70584">
        <ele>246.72</ele>
        <time>2014-07-05T12:59:52Z</time>
      </trkpt>
      <trkpt lat="45.88067" lon="4.70582">
        <ele>247.2</ele>
        <time>2014-07-05T12:59:53Z</time>
      </trkpt>
      <trkpt lat="45.88069" lon="4.70581">
        <ele>247.2</ele>
        <time>2014-07-05T12:59:54Z</time>
      </trkpt>
      <trkpt lat="45.8807" lon="4.7058">
        <ele>247.2</ele>
        <time>2014-07-05T12:59:55Z</time>
      </trkpt>
      <trkpt lat="45.88071" lon="4.70578">
        <ele>247.68</ele>
        <time>2014-07-05T12:59:56Z</time>
      </trkpt>
      <trkpt lat="45.88072" lon="4.70575">
        <ele>248.16</ele>
        <time>2014-07-05T12:59:58Z</time>
      </trkpt>
      <trkpt lat="45.88073" lon="4.70574">
        <ele>248.64</ele>
        <time>2014-07-05T12:59:59Z</time>
      </trkpt>
      <trkpt lat="45.88074" lon="4.70573">
        <ele>248.64</ele>
        <time>2014-07-05T13:00:00Z</time>
      </trkpt>
      <trkpt lat="45.88075" lon="4.70571">
        <ele>249.12</ele>
        <time>2014-07-05T13:00:01Z</time>
      </trkpt>
      <trkpt lat="45.88075" lon="4.70569">
        <ele>249.12</ele>
        <time>2014-07-05T13:00:02Z</time>
      </trkpt>
      <trkpt lat="45.88082" lon="4.70555">
        <ele>250.56</ele>
        <time>2014-07-05T13:00:10Z</time>
      </trkpt>
      <trkpt lat="45.88083" lon="4.70553">
        <ele>250.56</ele>
        <time>2014-07-05T13:00:11Z</time>
      </trkpt>
      <trkpt lat="45.88083" lon="4.70551">
        <ele>251.04</ele>
        <time>2014-07-05T13:00:12Z</time>
      </trkpt>
      <trkpt lat="45.88093" lon="4.7053">
        <ele>252</ele>
        <time>2014-07-05T13:00:23Z</time>
      </trkpt>
      <trkpt lat="45.88104" lon="4.70507">
        <ele>252.96</ele>
        <time>2014-07-05T13:00:35Z</time>
      </trkpt>
      <trkpt lat="45.88115" lon="4.70487">
        <ele>253.93</ele>
        <time>2014-07-05T13:00:46Z</time>
      </trkpt>
      <trkpt lat="45.88124" lon="4.70464">
        <ele>255.37</ele>
        <time>2014-07-05T13:00:57Z</time>
      </trkpt>
      <trkpt lat="45.88135" lon="4.70438">
        <ele>256.33</ele>
        <time>2014-07-05T13:01:08Z</time>
      </trkpt>
      <trkpt lat="45.88152" lon="4.70399">
        <ele>256.81</ele>
        <time>2014-07-05T13:01:20Z</time>
      </trkpt>
      <trkpt lat="45.88165" lon="4.70371">
        <ele>256.33</ele>
        <time>2014-07-05T13:01:27Z</time>
      </trkpt>
      <trkpt lat="45.88167" lon="4.70366">
        <ele>256.33</ele>
        <time>2014-07-05T13:01:28Z</time>
      </trkpt>
      <trkpt lat="45.88172" lon="4.70356">
        <ele>256.33</ele>
        <time>2014-07-05T13:01:30Z</time>
      </trkpt>
      <trkpt lat="45.88173" lon="4.70351">
        <ele>255.85</ele>
        <time>2014-07-05T13:01:31Z</time>
      </trkpt>
      <trkpt lat="45.88176" lon="4.70346">
        <ele>255.37</ele>
        <time>2014-07-05T13:01:32Z</time>
      </trkpt>
      <trkpt lat="45.88204" lon="4.7028">
        <ele>252.48</ele>
        <time>2014-07-05T13:01:42Z</time>
      </trkpt>
      <trkpt lat="45.8821" lon="4.70266">
        <ele>251.52</ele>
        <time>2014-07-05T13:01:44Z</time>
      </trkpt>
      <trkpt lat="45.88213" lon="4.7026">
        <ele>251.52</ele>
        <time>2014-07-05T13:01:45Z</time>
      </trkpt>
      <trkpt lat="45.88216" lon="4.70255">
        <ele>251.52</ele>
        <time>2014-07-05T13:01:46Z</time>
      </trkpt>
      <trkpt lat="45.88218" lon="4.70249">
        <ele>250.56</ele>
        <time>2014-07-05T13:01:47Z</time>
      </trkpt>
      <trkpt lat="45.88223" lon="4.70238">
        <ele>250.56</ele>
        <time>2014-07-05T13:01:49Z</time>
      </trkpt>
      <trkpt lat="45.88225" lon="4.70232">
        <ele>250.08</ele>
        <time>2014-07-05T13:01:50Z</time>
      </trkpt>
      <trkpt lat="45.88228" lon="4.70226">
        <ele>250.08</ele>
        <time>2014-07-05T13:01:51Z</time>
      </trkpt>
      <trkpt lat="45.88242" lon="4.7019">
        <ele>248.16</ele>
        <time>2014-07-05T13:01:59Z</time>
      </trkpt>
      <trkpt lat="45.88245" lon="4.70175">
        <ele>246.72</ele>
        <time>2014-07-05T13:02:06Z</time>
      </trkpt>
      <trkpt lat="45.88244" lon="4.70174">
        <ele>246.72</ele>
        <time>2014-07-05T13:02:07Z</time>
      </trkpt>
      <trkpt lat="45.88239" lon="4.70173">
        <ele>246.23</ele>
        <time>2014-07-05T13:02:09Z</time>
      </trkpt>
      <trkpt lat="45.88237" lon="4.70173">
        <ele>246.23</ele>
        <time>2014-07-05T13:02:10Z</time>
      </trkpt>
      <trkpt lat="45.88236" lon="4.70173">
        <ele>246.23</ele>
        <time>2014-07-05T13:02:19Z</time>
      </trkpt>
      <trkpt lat="45.88236" lon="4.7017">
        <ele>246.23</ele>
        <time>2014-07-05T13:02:34Z</time>
      </trkpt>
      <trkpt lat="45.88236" lon="4.7017">
        <ele>245.75</ele>
        <time>2014-07-05T13:03:01Z</time>
      </trkpt>
      <trkpt lat="45.88236" lon="4.70168">
        <ele>245.75</ele>
        <time>2014-07-05T13:03:29Z</time>
      </trkpt>
      <trkpt lat="45.88237" lon="4.70169">
        <ele>245.27</ele>
        <time>2014-07-05T13:04:01Z</time>
      </trkpt>
      <trkpt lat="45.88236" lon="4.7017">
        <ele>246.23</ele>
        <time>2014-07-05T13:04:22Z</time>
      </trkpt>
      <trkpt lat="45.8823" lon="4.70167">
        <ele>246.23</ele>
        <time>2014-07-05T13:04:43Z</time>
      </trkpt>
      <trkpt lat="45.88229" lon="4.70167">
        <ele>246.23</ele>
        <time>2014-07-05T13:04:44Z</time>
      </trkpt>
      <trkpt lat="45.88207" lon="4.70172">
        <ele>245.27</ele>
        <time>2014-07-05T13:04:54Z</time>
      </trkpt>
      <trkpt lat="45.88183" lon="4.70175">
        <ele>244.79</ele>
        <time>2014-07-05T13:05:03Z</time>
      </trkpt>
      <trkpt lat="45.88144" lon="4.7018">
        <ele>242.39</ele>
        <time>2014-07-05T13:05:12Z</time>
      </trkpt>
      <trkpt lat="45.88103" lon="4.70183">
        <ele>240.95</ele>
        <time>2014-07-05T13:05:20Z</time>
      </trkpt>
      <trkpt lat="45.88051" lon="4.70191">
        <ele>240.47</ele>
        <time>2014-07-05T13:05:31Z</time>
      </trkpt>
      <trkpt lat="45.88031" lon="4.7019">
        <ele>239.99</ele>
        <time>2014-07-05T13:05:37Z</time>
      </trkpt>
      <trkpt lat="45.8803" lon="4.70187">
        <ele>239.99</ele>
        <time>2014-07-05T13:05:38Z</time>
      </trkpt>
      <trkpt lat="45.88029" lon="4.70184">
        <ele>239.99</ele>
        <time>2014-07-05T13:05:39Z</time>
      </trkpt>
      <trkpt lat="45.88029" lon="4.70181">
        <ele>239.99</ele>
        <time>2014-07-05T13:05:40Z</time>
      </trkpt>
      <trkpt lat="45.8803" lon="4.70177">
        <ele>239.99</ele>
        <time>2014-07-05T13:05:41Z</time>
      </trkpt>
      <trkpt lat="45.88032" lon="4.70172">
        <ele>239.51</ele>
        <time>2014-07-05T13:05:42Z</time>
      </trkpt>
      <trkpt lat="45.88034" lon="4.70168">
        <ele>239.51</ele>
        <time>2014-07-05T13:05:43Z</time>
      </trkpt>
      <trkpt lat="45.88059" lon="4.70119">
        <ele>239.99</ele>
        <time>2014-07-05T13:05:54Z</time>
      </trkpt>
      <trkpt lat="45.88077" lon="4.70083">
        <ele>242.87</ele>
        <time>2014-07-05T13:06:05Z</time>
      </trkpt>
      <trkpt lat="45.88089" lon="4.70047">
        <ele>245.27</ele>
        <time>2014-07-05T13:06:16Z</time>
      </trkpt>
      <trkpt lat="45.881" lon="4.70012">
        <ele>247.2</ele>
        <time>2014-07-05T13:06:28Z</time>
      </trkpt>
      <trkpt lat="45.88106" lon="4.69973">
        <ele>249.12</ele>
        <time>2014-07-05T13:06:42Z</time>
      </trkpt>
      <trkpt lat="45.88107" lon="4.69938">
        <ele>251.04</ele>
        <time>2014-07-05T13:06:54Z</time>
      </trkpt>
      <trkpt lat="45.88107" lon="4.699">
        <ele>253.44</ele>
        <time>2014-07-05T13:07:08Z</time>
      </trkpt>
      <trkpt lat="45.88112" lon="4.69855">
        <ele>255.37</ele>
        <time>2014-07-05T13:07:23Z</time>
      </trkpt>
      <trkpt lat="45.88116" lon="4.69844">
        <ele>256.81</ele>
        <time>2014-07-05T13:07:28Z</time>
      </trkpt>
      <trkpt lat="45.88117" lon="4.69844">
        <ele>256.33</ele>
        <time>2014-07-05T13:07:37Z</time>
      </trkpt>
      <trkpt lat="45.88118" lon="4.69841">
        <ele>256.81</ele>
        <time>2014-07-05T13:07:55Z</time>
      </trkpt>
      <trkpt lat="45.88118" lon="4.69842">
        <ele>256.81</ele>
        <time>2014-07-05T13:08:09Z</time>
      </trkpt>
      <trkpt lat="45.88116" lon="4.69841">
        <ele>256.33</ele>
        <time>2014-07-05T13:08:35Z</time>
      </trkpt>
      <trkpt lat="45.88117" lon="4.69842">
        <ele>256.81</ele>
        <time>2014-07-05T13:09:09Z</time>
      </trkpt>
      <trkpt lat="45.88115" lon="4.69837">
        <ele>256.81</ele>
        <time>2014-07-05T13:09:32Z</time>
      </trkpt>
      <trkpt lat="45.88115" lon="4.69834">
        <ele>256.33</ele>
        <time>2014-07-05T13:09:33Z</time>
      </trkpt>
      <trkpt lat="45.88116" lon="4.69831">
        <ele>256.81</ele>
        <time>2014-07-05T13:09:34Z</time>
      </trkpt>
      <trkpt lat="45.88116" lon="4.69828">
        <ele>257.29</ele>
        <time>2014-07-05T13:09:35Z</time>
      </trkpt>
      <trkpt lat="45.88117" lon="4.69824">
        <ele>257.29</ele>
        <time>2014-07-05T13:09:36Z</time>
      </trkpt>
      <trkpt lat="45.88118" lon="4.69821">
        <ele>257.29</ele>
        <time>2014-07-05T13:09:37Z</time>
      </trkpt>
      <trkpt lat="45.8812" lon="4.69818">
        <ele>257.29</ele>
        <time>2014-07-05T13:09:38Z</time>
      </trkpt>
      <trkpt lat="45.88121" lon="4.69814">
        <ele>257.77</ele>
        <time>2014-07-05T13:09:39Z</time>
      </trkpt>
      <trkpt lat="45.88128" lon="4.69768">
        <ele>259.21</ele>
        <time>2014-07-05T13:09:52Z</time>
      </trkpt>
      <trkpt lat="45.88136" lon="4.69725">
        <ele>260.17</ele>
        <time>2014-07-05T13:10:02Z</time>
      </trkpt>
      <trkpt lat="45.88149" lon="4.69669">
        <ele>261.14</ele>
        <time>2014-07-05T13:10:15Z</time>
      </trkpt>
      <trkpt lat="45.88156" lon="4.69628">
        <ele>262.58</ele>
        <time>2014-07-05T13:10:25Z</time>
      </trkpt>
      <trkpt lat="45.8816" lon="4.69592">
        <ele>263.06</ele>
        <time>2014-07-05T13:10:33Z</time>
      </trkpt>
      <trkpt lat="45.88166" lon="4.69554">
        <ele>264.5</ele>
        <time>2014-07-05T13:10:43Z</time>
      </trkpt>
      <trkpt lat="45.88167" lon="4.69529">
        <ele>265.94</ele>
        <time>2014-07-05T13:10:51Z</time>
      </trkpt>
      <trkpt lat="45.88171" lon="4.69493">
        <ele>267.38</ele>
        <time>2014-07-05T13:11:03Z</time>
      </trkpt>
      <trkpt lat="45.88174" lon="4.69464">
        <ele>268.83</ele>
        <time>2014-07-05T13:11:13Z</time>
      </trkpt>
      <trkpt lat="45.88177" lon="4.6943">
        <ele>270.75</ele>
        <time>2014-07-05T13:11:25Z</time>
      </trkpt>
      <trkpt lat="45.88183" lon="4.69398">
        <ele>272.19</ele>
        <time>2014-07-05T13:11:37Z</time>
      </trkpt>
      <trkpt lat="45.88189" lon="4.6937">
        <ele>273.63</ele>
        <time>2014-07-05T13:11:49Z</time>
      </trkpt>
      <trkpt lat="45.88195" lon="4.69344">
        <ele>275.56</ele>
        <time>2014-07-05T13:12:00Z</time>
      </trkpt>
      <trkpt lat="45.88202" lon="4.69313">
        <ele>277.48</ele>
        <time>2014-07-05T13:12:11Z</time>
      </trkpt>
      <trkpt lat="45.88211" lon="4.69276">
        <ele>279.88</ele>
        <time>2014-07-05T13:12:25Z</time>
      </trkpt>
      <trkpt lat="45.88224" lon="4.69256">
        <ele>281.32</ele>
        <time>2014-07-05T13:12:36Z</time>
      </trkpt>
      <trkpt lat="45.88235" lon="4.69238">
        <ele>282.28</ele>
        <time>2014-07-05T13:12:46Z</time>
      </trkpt>
      <trkpt lat="45.88248" lon="4.69218">
        <ele>282.28</ele>
        <time>2014-07-05T13:12:58Z</time>
      </trkpt>
      <trkpt lat="45.88247" lon="4.6922">
        <ele>282.28</ele>
        <time>2014-07-05T13:13:11Z</time>
      </trkpt>
      <trkpt lat="45.88247" lon="4.6922">
        <ele>278.44</ele>
        <time>2014-07-05T13:13:14Z</time>
      </trkpt>
      <trkpt lat="45.88247" lon="4.6922">
        <ele>289.01</ele>
        <time>2014-07-05T13:13:15Z</time>
      </trkpt>
      <trkpt lat="45.88247" lon="4.6922">
        <ele>283.73</ele>
        <time>2014-07-05T13:13:16Z</time>
      </trkpt>
      <trkpt lat="45.88245" lon="4.69224">
        <ele>282.77</ele>
        <time>2014-07-05T13:13:37Z</time>
      </trkpt>
      <trkpt lat="45.88245" lon="4.69222">
        <ele>283.73</ele>
        <time>2014-07-05T13:13:59Z</time>
      </trkpt>
      <trkpt lat="45.88248" lon="4.6922">
        <ele>283.73</ele>
        <time>2014-07-05T13:14:17Z</time>
      </trkpt>
      <trkpt lat="45.88252" lon="4.69211">
        <ele>283.73</ele>
        <time>2014-07-05T13:14:30Z</time>
      </trkpt>
      <trkpt lat="45.88264" lon="4.69186">
        <ele>285.65</ele>
        <time>2014-07-05T13:14:41Z</time>
      </trkpt>
      <trkpt lat="45.88278" lon="4.69159">
        <ele>287.57</ele>
        <time>2014-07-05T13:14:52Z</time>
      </trkpt>
      <trkpt lat="45.88288" lon="4.69134">
        <ele>289.01</ele>
        <time>2014-07-05T13:15:02Z</time>
      </trkpt>
      <trkpt lat="45.88296" lon="4.69106">
        <ele>290.46</ele>
        <time>2014-07-05T13:15:13Z</time>
      </trkpt>
      <trkpt lat="45.88304" lon="4.69079">
        <ele>290.94</ele>
        <time>2014-07-05T13:15:24Z</time>
      </trkpt>
      <trkpt lat="45.88316" lon="4.69042">
        <ele>292.38</ele>
        <time>2014-07-05T13:15:39Z</time>
      </trkpt>
      <trkpt lat="45.88324" lon="4.69017">
        <ele>294.3</ele>
        <time>2014-07-05T13:15:50Z</time>
      </trkpt>
      <trkpt lat="45.8833" lon="4.68994">
        <ele>294.78</ele>
        <time>2014-07-05T13:16:00Z</time>
      </trkpt>
      <trkpt lat="45.88338" lon="4.68961">
        <ele>296.7</ele>
        <time>2014-07-05T13:16:15Z</time>
      </trkpt>
      <trkpt lat="45.88338" lon="4.68938">
        <ele>298.15</ele>
        <time>2014-07-05T13:16:25Z</time>
      </trkpt>
      <trkpt lat="45.88339" lon="4.68937">
        <ele>298.63</ele>
        <time>2014-07-05T13:16:26Z</time>
      </trkpt>
      <trkpt lat="45.8834" lon="4.68933">
        <ele>298.63</ele>
        <time>2014-07-05T13:16:28Z</time>
      </trkpt>
      <trkpt lat="45.8834" lon="4.68931">
        <ele>299.11</ele>
        <time>2014-07-05T13:16:29Z</time>
      </trkpt>
      <trkpt lat="45.88343" lon="4.68906">
        <ele>300.55</ele>
        <time>2014-07-05T13:16:40Z</time>
      </trkpt>
      <trkpt lat="45.88345" lon="4.68883">
        <ele>301.99</ele>
        <time>2014-07-05T13:16:49Z</time>
      </trkpt>
      <trkpt lat="45.88346" lon="4.68861">
        <ele>302.95</ele>
        <time>2014-07-05T13:16:59Z</time>
      </trkpt>
      <trkpt lat="45.88349" lon="4.68836">
        <ele>305.36</ele>
        <time>2014-07-05T13:17:11Z</time>
      </trkpt>
      <trkpt lat="45.8835" lon="4.68835">
        <ele>305.36</ele>
        <time>2014-07-05T13:17:12Z</time>
      </trkpt>
      <trkpt lat="45.88351" lon="4.68833">
        <ele>305.36</ele>
        <time>2014-07-05T13:17:21Z</time>
      </trkpt>
      <trkpt lat="45.88351" lon="4.68831">
        <ele>305.36</ele>
        <time>2014-07-05T13:17:43Z</time>
      </trkpt>
      <trkpt lat="45.88352" lon="4.68833">
        <ele>305.84</ele>
        <time>2014-07-05T13:18:02Z</time>
      </trkpt>
      <trkpt lat="45.88351" lon="4.68832">
        <ele>305.84</ele>
        <time>2014-07-05T13:18:20Z</time>
      </trkpt>
      <trkpt lat="45.88351" lon="4.68833">
        <ele>305.36</ele>
        <time>2014-07-05T13:18:42Z</time>
      </trkpt>
      <trkpt lat="45.88352" lon="4.68838">
        <ele>305.36</ele>
        <time>2014-07-05T13:19:03Z</time>
      </trkpt>
      <trkpt lat="45.8835" lon="4.68841">
        <ele>305.36</ele>
        <time>2014-07-05T13:19:37Z</time>
      </trkpt>
      <trkpt lat="45.8835" lon="4.68842">
        <ele>305.36</ele>
        <time>2014-07-05T13:20:12Z</time>
      </trkpt>
      <trkpt lat="45.8835" lon="4.68842">
        <ele>305.84</ele>
        <time>2014-07-05T13:20:45Z</time>
      </trkpt>
      <trkpt lat="45.88351" lon="4.68841">
        <ele>305.84</ele>
        <time>2014-07-05T13:21:21Z</time>
      </trkpt>
      <trkpt lat="45.88352" lon="4.68841">
        <ele>305.84</ele>
        <time>2014-07-05T13:21:56Z</time>
      </trkpt>
      <trkpt lat="45.8835" lon="4.68843">
        <ele>306.32</ele>
        <time>2014-07-05T13:22:32Z</time>
      </trkpt>
      <trkpt lat="45.88349" lon="4.68837">
        <ele>306.32</ele>
        <time>2014-07-05T13:22:40Z</time>
      </trkpt>
      <trkpt lat="45.88348" lon="4.68835">
        <ele>306.32</ele>
        <time>2014-07-05T13:23:08Z</time>
      </trkpt>
      <trkpt lat="45.88347" lon="4.68836">
        <ele>306.32</ele>
        <time>2014-07-05T13:23:35Z</time>
      </trkpt>
      <trkpt lat="45.88347" lon="4.68835">
        <ele>306.8</ele>
        <time>2014-07-05T13:24:04Z</time>
      </trkpt>
      <trkpt lat="45.88349" lon="4.68836">
        <ele>306.32</ele>
        <time>2014-07-05T13:24:40Z</time>
      </trkpt>
      <trkpt lat="45.88349" lon="4.68834">
        <ele>306.8</ele>
        <time>2014-07-05T13:25:16Z</time>
      </trkpt>
      <trkpt lat="45.88347" lon="4.68834">
        <ele>306.32</ele>
        <time>2014-07-05T13:25:50Z</time>
      </trkpt>
      <trkpt lat="45.88349" lon="4.68833">
        <ele>306.8</ele>
        <time>2014-07-05T13:26:24Z</time>
      </trkpt>
      <trkpt lat="45.88349" lon="4.68834">
        <ele>306.8</ele>
        <time>2014-07-05T13:26:58Z</time>
      </trkpt>
      <trkpt lat="45.88349" lon="4.68835">
        <ele>306.8</ele>
        <time>2014-07-05T13:27:28Z</time>
      </trkpt>
      <trkpt lat="45.8835" lon="4.68833">
        <ele>306.8</ele>
        <time>2014-07-05T13:28:01Z</time>
      </trkpt>
      <trkpt lat="45.8835" lon="4.68834">
        <ele>306.8</ele>
        <time>2014-07-05T13:28:32Z</time>
      </trkpt>
      <trkpt lat="45.88349" lon="4.68835">
        <ele>306.8</ele>
        <time>2014-07-05T13:29:06Z</time>
      </trkpt>
      <trkpt lat="45.88349" lon="4.68835">
        <ele>306.32</ele>
        <time>2014-07-05T13:29:33Z</time>
      </trkpt>
      <trkpt lat="45.8835" lon="4.68833">
        <ele>306.32</ele>
        <time>2014-07-05T13:30:04Z</time>
      </trkpt>
      <trkpt lat="45.88348" lon="4.68834">
        <ele>306.32</ele>
        <time>2014-07-05T13:30:39Z</time>
      </trkpt>
      <trkpt lat="45.88347" lon="4.68835">
        <ele>306.32</ele>
        <time>2014-07-05T13:31:13Z</time>
      </trkpt>
      <trkpt lat="45.88349" lon="4.68835">
        <ele>306.8</ele>
        <time>2014-07-05T13:31:52Z</time>
      </trkpt>
      <trkpt lat="45.88351" lon="4.68835">
        <ele>307.28</ele>
        <time>2014-07-05T13:32:25Z</time>
      </trkpt>
      <trkpt lat="45.8835" lon="4.68835">
        <ele>306.8</ele>
        <time>2014-07-05T13:32:52Z</time>
      </trkpt>
      <trkpt lat="45.8835" lon="4.68835">
        <ele>306.8</ele>
        <time>2014-07-05T13:33:25Z</time>
      </trkpt>
      <trkpt lat="45.8835" lon="4.68835">
        <ele>306.8</ele>
        <time>2014-07-05T13:33:54Z</time>
      </trkpt>
      <trkpt lat="45.88351" lon="4.68834">
        <ele>306.8</ele>
        <time>2014-07-05T13:34:35Z</time>
      </trkpt>
      <trkpt lat="45.88351" lon="4.68835">
        <ele>307.28</ele>
        <time>2014-07-05T13:35:08Z</time>
      </trkpt>
      <trkpt lat="45.8835" lon="4.68834">
        <ele>306.32</ele>
        <time>2014-07-05T13:35:35Z</time>
      </trkpt>
      <trkpt lat="45.88349" lon="4.68834">
        <ele>307.28</ele>
        <time>2014-07-05T13:36:15Z</time>
      </trkpt>
      <trkpt lat="45.88347" lon="4.68835">
        <ele>307.28</ele>
        <time>2014-07-05T13:37:02Z</time>
      </trkpt>
      <trkpt lat="45.88349" lon="4.68835">
        <ele>306.8</ele>
        <time>2014-07-05T13:37:41Z</time>
      </trkpt>
      <trkpt lat="45.88348" lon="4.68836">
        <ele>307.28</ele>
        <time>2014-07-05T13:38:19Z</time>
      </trkpt>
      <trkpt lat="45.88348" lon="4.68836">
        <ele>306.8</ele>
        <time>2014-07-05T13:39:04Z</time>
      </trkpt>
      <trkpt lat="45.88348" lon="4.68835">
        <ele>307.28</ele>
        <time>2014-07-05T13:39:38Z</time>
      </trkpt>
      <trkpt lat="45.8835" lon="4.68835">
        <ele>308.24</ele>
        <time>2014-07-05T13:40:01Z</time>
      </trkpt>
      <trkpt lat="45.88352" lon="4.68834">
        <ele>308.24</ele>
        <time>2014-07-05T13:40:10Z</time>
      </trkpt>
      <trkpt lat="45.88353" lon="4.68834">
        <ele>308.72</ele>
        <time>2014-07-05T13:40:11Z</time>
      </trkpt>
      <trkpt lat="45.88355" lon="4.68835">
        <ele>308.72</ele>
        <time>2014-07-05T13:40:12Z</time>
      </trkpt>
      <trkpt lat="45.88357" lon="4.68835">
        <ele>308.72</ele>
        <time>2014-07-05T13:40:13Z</time>
      </trkpt>
      <trkpt lat="45.88359" lon="4.68834">
        <ele>308.24</ele>
        <time>2014-07-05T13:40:14Z</time>
      </trkpt>
      <trkpt lat="45.88382" lon="4.68822">
        <ele>308.72</ele>
        <time>2014-07-05T13:40:25Z</time>
      </trkpt>
      <trkpt lat="45.88395" lon="4.68799">
        <ele>309.68</ele>
        <time>2014-07-05T13:40:34Z</time>
      </trkpt>
      <trkpt lat="45.88419" lon="4.68774">
        <ele>310.16</ele>
        <time>2014-07-05T13:40:44Z</time>
      </trkpt>
      <trkpt lat="45.88448" lon="4.68764">
        <ele>310.64</ele>
        <time>2014-07-05T13:40:53Z</time>
      </trkpt>
      <trkpt lat="45.88454" lon="4.68772">
        <ele>310.64</ele>
        <time>2014-07-05T13:40:55Z</time>
      </trkpt>
      <trkpt lat="45.88456" lon="4.68777">
        <ele>309.68</ele>
        <time>2014-07-05T13:40:56Z</time>
      </trkpt>
      <trkpt lat="45.88458" lon="4.68784">
        <ele>309.2</ele>
        <time>2014-07-05T13:40:57Z</time>
      </trkpt>
      <trkpt lat="45.88466" lon="4.68814">
        <ele>306.32</ele>
        <time>2014-07-05T13:41:03Z</time>
      </trkpt>
      <trkpt lat="45.88469" lon="4.68815">
        <ele>306.32</ele>
        <time>2014-07-05T13:41:04Z</time>
      </trkpt>
      <trkpt lat="45.88472" lon="4.68815">
        <ele>306.32</ele>
        <time>2014-07-05T13:41:05Z</time>
      </trkpt>
      <trkpt lat="45.88475" lon="4.68813">
        <ele>306.8</ele>
        <time>2014-07-05T13:41:06Z</time>
      </trkpt>
      <trkpt lat="45.88479" lon="4.68811">
        <ele>306.8</ele>
        <time>2014-07-05T13:41:07Z</time>
      </trkpt>
      <trkpt lat="45.88519" lon="4.68795">
        <ele>307.76</ele>
        <time>2014-07-05T13:41:18Z</time>
      </trkpt>
      <trkpt lat="45.88555" lon="4.68784">
        <ele>306.8</ele>
        <time>2014-07-05T13:41:28Z</time>
      </trkpt>
      <trkpt lat="45.88559" lon="4.68783">
        <ele>306.8</ele>
        <time>2014-07-05T13:41:29Z</time>
      </trkpt>
      <trkpt lat="45.88612" lon="4.68769">
        <ele>304.39</ele>
        <time>2014-07-05T13:41:40Z</time>
      </trkpt>
      <trkpt lat="45.8865" lon="4.68758">
        <ele>303.91</ele>
        <time>2014-07-05T13:41:48Z</time>
      </trkpt>
      <trkpt lat="45.88699" lon="4.68727">
        <ele>302.95</ele>
        <time>2014-07-05T13:41:59Z</time>
      </trkpt>
      <trkpt lat="45.88756" lon="4.68694">
        <ele>303.43</ele>
        <time>2014-07-05T13:42:13Z</time>
      </trkpt>
      <trkpt lat="45.8876" lon="4.68692">
        <ele>303.43</ele>
        <time>2014-07-05T13:42:14Z</time>
      </trkpt>
      <trkpt lat="45.88764" lon="4.6869">
        <ele>303.43</ele>
        <time>2014-07-05T13:42:15Z</time>
      </trkpt>
      <trkpt lat="45.88768" lon="4.68688">
        <ele>302.95</ele>
        <time>2014-07-05T13:42:16Z</time>
      </trkpt>
      <trkpt lat="45.88772" lon="4.68686">
        <ele>303.91</ele>
        <time>2014-07-05T13:42:17Z</time>
      </trkpt>
      <trkpt lat="45.88776" lon="4.68684">
        <ele>303.91</ele>
        <time>2014-07-05T13:42:18Z</time>
      </trkpt>
      <trkpt lat="45.88814" lon="4.68668">
        <ele>303.91</ele>
        <time>2014-07-05T13:42:29Z</time>
      </trkpt>
      <trkpt lat="45.88852" lon="4.68657">
        <ele>303.91</ele>
        <time>2014-07-05T13:42:39Z</time>
      </trkpt>
      <trkpt lat="45.8889" lon="4.68632">
        <ele>303.91</ele>
        <time>2014-07-05T13:42:50Z</time>
      </trkpt>
      <trkpt lat="45.88913" lon="4.68621">
        <ele>304.39</ele>
        <time>2014-07-05T13:42:56Z</time>
      </trkpt>
      <trkpt lat="45.88968" lon="4.68608">
        <ele>302.95</ele>
        <time>2014-07-05T13:43:08Z</time>
      </trkpt>
      <trkpt lat="45.88973" lon="4.68609">
        <ele>302.95</ele>
        <time>2014-07-05T13:43:09Z</time>
      </trkpt>
      <trkpt lat="45.88978" lon="4.6861">
        <ele>302.95</ele>
        <time>2014-07-05T13:43:10Z</time>
      </trkpt>
      <trkpt lat="45.89026" lon="4.68623">
        <ele>301.51</ele>
        <time>2014-07-05T13:43:20Z</time>
      </trkpt>
      <trkpt lat="45.89031" lon="4.68625">
        <ele>301.51</ele>
        <time>2014-07-05T13:43:21Z</time>
      </trkpt>
      <trkpt lat="45.89041" lon="4.68633">
        <ele>301.51</ele>
        <time>2014-07-05T13:43:23Z</time>
      </trkpt>
      <trkpt lat="45.89046" lon="4.6864">
        <ele>301.51</ele>
        <time>2014-07-05T13:43:24Z</time>
      </trkpt>
      <trkpt lat="45.89049" lon="4.68648">
        <ele>301.03</ele>
        <time>2014-07-05T13:43:25Z</time>
      </trkpt>
      <trkpt lat="45.89052" lon="4.68656">
        <ele>300.55</ele>
        <time>2014-07-05T13:43:26Z</time>
      </trkpt>
      <trkpt lat="45.89054" lon="4.68665">
        <ele>301.03</ele>
        <time>2014-07-05T13:43:27Z</time>
      </trkpt>
      <trkpt lat="45.89061" lon="4.68718">
        <ele>299.11</ele>
        <time>2014-07-05T13:43:33Z</time>
      </trkpt>
      <trkpt lat="45.89061" lon="4.68724">
        <ele>299.11</ele>
        <time>2014-07-05T13:43:34Z</time>
      </trkpt>
      <trkpt lat="45.89062" lon="4.68729">
        <ele>299.11</ele>
        <time>2014-07-05T13:43:35Z</time>
      </trkpt>
      <trkpt lat="45.89062" lon="4.68732">
        <ele>298.63</ele>
        <time>2014-07-05T13:43:36Z</time>
      </trkpt>
      <trkpt lat="45.89062" lon="4.68735">
        <ele>298.63</ele>
        <time>2014-07-05T13:43:37Z</time>
      </trkpt>
      <trkpt lat="45.89064" lon="4.68735">
        <ele>298.63</ele>
        <time>2014-07-05T13:43:38Z</time>
      </trkpt>
      <trkpt lat="45.89067" lon="4.68735">
        <ele>298.63</ele>
        <time>2014-07-05T13:43:39Z</time>
      </trkpt>
      <trkpt lat="45.89071" lon="4.68734">
        <ele>298.15</ele>
        <time>2014-07-05T13:43:40Z</time>
      </trkpt>
      <trkpt lat="45.89109" lon="4.68731">
        <ele>296.7</ele>
        <time>2014-07-05T13:43:49Z</time>
      </trkpt>
      <trkpt lat="45.8913" lon="4.68759">
        <ele>296.22</ele>
        <time>2014-07-05T13:43:57Z</time>
      </trkpt>
      <trkpt lat="45.89148" lon="4.68781">
        <ele>295.26</ele>
        <time>2014-07-05T13:44:05Z</time>
      </trkpt>
      <trkpt lat="45.89181" lon="4.68788">
        <ele>293.34</ele>
        <time>2014-07-05T13:44:16Z</time>
      </trkpt>
      <trkpt lat="45.89214" lon="4.68792">
        <ele>291.42</ele>
        <time>2014-07-05T13:44:23Z</time>
      </trkpt>
      <trkpt lat="45.89218" lon="4.68794">
        <ele>291.42</ele>
        <time>2014-07-05T13:44:24Z</time>
      </trkpt>
      <trkpt lat="45.89223" lon="4.68797">
        <ele>291.42</ele>
        <time>2014-07-05T13:44:25Z</time>
      </trkpt>
      <trkpt lat="45.89226" lon="4.68802">
        <ele>291.42</ele>
        <time>2014-07-05T13:44:26Z</time>
      </trkpt>
      <trkpt lat="45.8923" lon="4.68806">
        <ele>290.94</ele>
        <time>2014-07-05T13:44:27Z</time>
      </trkpt>
      <trkpt lat="45.89237" lon="4.6882">
        <ele>290.46</ele>
        <time>2014-07-05T13:44:30Z</time>
      </trkpt>
      <trkpt lat="45.89239" lon="4.68825">
        <ele>290.46</ele>
        <time>2014-07-05T13:44:31Z</time>
      </trkpt>
      <trkpt lat="45.89242" lon="4.68829">
        <ele>289.97</ele>
        <time>2014-07-05T13:44:32Z</time>
      </trkpt>
      <trkpt lat="45.89246" lon="4.68833">
        <ele>289.97</ele>
        <time>2014-07-05T13:44:33Z</time>
      </trkpt>
      <trkpt lat="45.8925" lon="4.68836">
        <ele>289.97</ele>
        <time>2014-07-05T13:44:34Z</time>
      </trkpt>
      <trkpt lat="45.89256" lon="4.68837">
        <ele>289.49</ele>
        <time>2014-07-05T13:44:35Z</time>
      </trkpt>
      <trkpt lat="45.89262" lon="4.68838">
        <ele>289.01</ele>
        <time>2014-07-05T13:44:36Z</time>
      </trkpt>
      <trkpt lat="45.89267" lon="4.68837">
        <ele>288.53</ele>
        <time>2014-07-05T13:44:37Z</time>
      </trkpt>
      <trkpt lat="45.89272" lon="4.68836">
        <ele>288.05</ele>
        <time>2014-07-05T13:44:38Z</time>
      </trkpt>
      <trkpt lat="45.89276" lon="4.68834">
        <ele>288.05</ele>
        <time>2014-07-05T13:44:39Z</time>
      </trkpt>
      <trkpt lat="45.8928" lon="4.68832">
        <ele>288.05</ele>
        <time>2014-07-05T13:44:40Z</time>
      </trkpt>
      <trkpt lat="45.89283" lon="4.68828">
        <ele>287.09</ele>
        <time>2014-07-05T13:44:41Z</time>
      </trkpt>
      <trkpt lat="45.89285" lon="4.68823">
        <ele>287.09</ele>
        <time>2014-07-05T13:44:42Z</time>
      </trkpt>
      <trkpt lat="45.89286" lon="4.68819">
        <ele>287.09</ele>
        <time>2014-07-05T13:44:43Z</time>
      </trkpt>
      <trkpt lat="45.89288" lon="4.68815">
        <ele>286.61</ele>
        <time>2014-07-05T13:44:44Z</time>
      </trkpt>
      <trkpt lat="45.89289" lon="4.6881">
        <ele>285.65</ele>
        <time>2014-07-05T13:44:45Z</time>
      </trkpt>
      <trkpt lat="45.8929" lon="4.68804">
        <ele>285.17</ele>
        <time>2014-07-05T13:44:46Z</time>
      </trkpt>
      <trkpt lat="45.89291" lon="4.68798">
        <ele>284.69</ele>
        <time>2014-07-05T13:44:47Z</time>
      </trkpt>
      <trkpt lat="45.89296" lon="4.68771">
        <ele>282.28</ele>
        <time>2014-07-05T13:44:51Z</time>
      </trkpt>
      <trkpt lat="45.89302" lon="4.68757">
        <ele>281.32</ele>
        <time>2014-07-05T13:44:53Z</time>
      </trkpt>
      <trkpt lat="45.89308" lon="4.68743">
        <ele>280.84</ele>
        <time>2014-07-05T13:44:55Z</time>
      </trkpt>
      <trkpt lat="45.89312" lon="4.68738">
        <ele>281.32</ele>
        <time>2014-07-05T13:44:56Z</time>
      </trkpt>
      <trkpt lat="45.89315" lon="4.68733">
        <ele>281.32</ele>
        <time>2014-07-05T13:44:57Z</time>
      </trkpt>
      <trkpt lat="45.89319" lon="4.6873">
        <ele>280.84</ele>
        <time>2014-07-05T13:44:58Z</time>
      </trkpt>
      <trkpt lat="45.89323" lon="4.68729">
        <ele>281.32</ele>
        <time>2014-07-05T13:44:59Z</time>
      </trkpt>
      <trkpt lat="45.89327" lon="4.68728">
        <ele>281.32</ele>
        <time>2014-07-05T13:45:00Z</time>
      </trkpt>
      <trkpt lat="45.89331" lon="4.68726">
        <ele>280.84</ele>
        <time>2014-07-05T13:45:01Z</time>
      </trkpt>
      <trkpt lat="45.89334" lon="4.68723">
        <ele>281.32</ele>
        <time>2014-07-05T13:45:02Z</time>
      </trkpt>
      <trkpt lat="45.89337" lon="4.68721">
        <ele>281.8</ele>
        <time>2014-07-05T13:45:03Z</time>
      </trkpt>
      <trkpt lat="45.89339" lon="4.6872">
        <ele>281.8</ele>
        <time>2014-07-05T13:45:04Z</time>
      </trkpt>
      <trkpt lat="45.8934" lon="4.6872">
        <ele>281.8</ele>
        <time>2014-07-05T13:45:05Z</time>
      </trkpt>
      <trkpt lat="45.89355" lon="4.6872">
        <ele>284.69</ele>
        <time>2014-07-05T13:45:16Z</time>
      </trkpt>
      <trkpt lat="45.89362" lon="4.68718">
        <ele>285.17</ele>
        <time>2014-07-05T13:45:31Z</time>
      </trkpt>
      <trkpt lat="45.89372" lon="4.68714">
        <ele>287.09</ele>
        <time>2014-07-05T13:45:45Z</time>
      </trkpt>
      <trkpt lat="45.8938" lon="4.68712">
        <ele>289.49</ele>
        <time>2014-07-05T13:45:57Z</time>
      </trkpt>
      <trkpt lat="45.89388" lon="4.68709">
        <ele>291.42</ele>
        <time>2014-07-05T13:46:12Z</time>
      </trkpt>
      <trkpt lat="45.89398" lon="4.68707">
        <ele>293.82</ele>
        <time>2014-07-05T13:46:28Z</time>
      </trkpt>
      <trkpt lat="45.89405" lon="4.68707">
        <ele>295.26</ele>
        <time>2014-07-05T13:46:39Z</time>
      </trkpt>
      <trkpt lat="45.89415" lon="4.68704">
        <ele>298.63</ele>
        <time>2014-07-05T13:46:51Z</time>
      </trkpt>
      <trkpt lat="45.89416" lon="4.68703">
        <ele>298.15</ele>
        <time>2014-07-05T13:46:52Z</time>
      </trkpt>
      <trkpt lat="45.89424" lon="4.68696">
        <ele>298.63</ele>
        <time>2014-07-05T13:47:03Z</time>
      </trkpt>
      <trkpt lat="45.89428" lon="4.68696">
        <ele>298.63</ele>
        <time>2014-07-05T13:47:14Z</time>
      </trkpt>
      <trkpt lat="45.8943" lon="4.68697">
        <ele>298.63</ele>
        <time>2014-07-05T13:47:16Z</time>
      </trkpt>
      <trkpt lat="45.89432" lon="4.68697">
        <ele>298.63</ele>
        <time>2014-07-05T13:47:17Z</time>
      </trkpt>
      <trkpt lat="45.89434" lon="4.68697">
        <ele>298.15</ele>
        <time>2014-07-05T13:47:25Z</time>
      </trkpt>
      <trkpt lat="45.89432" lon="4.68698">
        <ele>298.15</ele>
        <time>2014-07-05T13:47:46Z</time>
      </trkpt>
      <trkpt lat="45.89433" lon="4.68698">
        <ele>298.15</ele>
        <time>2014-07-05T13:47:47Z</time>
      </trkpt>
      <trkpt lat="45.89434" lon="4.68699">
        <ele>298.15</ele>
        <time>2014-07-05T13:47:48Z</time>
      </trkpt>
      <trkpt lat="45.89435" lon="4.68699">
        <ele>298.15</ele>
        <time>2014-07-05T13:47:49Z</time>
      </trkpt>
      <trkpt lat="45.89445" lon="4.687">
        <ele>298.15</ele>
        <time>2014-07-05T13:47:55Z</time>
      </trkpt>
      <trkpt lat="45.89447" lon="4.68702">
        <ele>297.67</ele>
        <time>2014-07-05T13:47:56Z</time>
      </trkpt>
      <trkpt lat="45.89447" lon="4.68704">
        <ele>297.18</ele>
        <time>2014-07-05T13:47:57Z</time>
      </trkpt>
      <trkpt lat="45.89448" lon="4.68707">
        <ele>297.67</ele>
        <time>2014-07-05T13:47:58Z</time>
      </trkpt>
      <trkpt lat="45.89448" lon="4.68711">
        <ele>297.67</ele>
        <time>2014-07-05T13:47:59Z</time>
      </trkpt>
      <trkpt lat="45.8945" lon="4.68748">
        <ele>294.78</ele>
        <time>2014-07-05T13:48:07Z</time>
      </trkpt>
      <trkpt lat="45.89456" lon="4.68787">
        <ele>291.9</ele>
        <time>2014-07-05T13:48:13Z</time>
      </trkpt>
      <trkpt lat="45.89459" lon="4.68794">
        <ele>291.9</ele>
        <time>2014-07-05T13:48:14Z</time>
      </trkpt>
      <trkpt lat="45.89462" lon="4.68801">
        <ele>291.42</ele>
        <time>2014-07-05T13:48:15Z</time>
      </trkpt>
      <trkpt lat="45.89465" lon="4.68808">
        <ele>291.42</ele>
        <time>2014-07-05T13:48:16Z</time>
      </trkpt>
      <trkpt lat="45.89469" lon="4.68813">
        <ele>290.94</ele>
        <time>2014-07-05T13:48:17Z</time>
      </trkpt>
      <trkpt lat="45.89474" lon="4.68819">
        <ele>290.94</ele>
        <time>2014-07-05T13:48:18Z</time>
      </trkpt>
      <trkpt lat="45.89478" lon="4.68823">
        <ele>290.94</ele>
        <time>2014-07-05T13:48:19Z</time>
      </trkpt>
      <trkpt lat="45.89482" lon="4.68827">
        <ele>290.46</ele>
        <time>2014-07-05T13:48:20Z</time>
      </trkpt>
      <trkpt lat="45.89486" lon="4.68829">
        <ele>289.97</ele>
        <time>2014-07-05T13:48:21Z</time>
      </trkpt>
      <trkpt lat="45.89518" lon="4.68844">
        <ele>289.49</ele>
        <time>2014-07-05T13:48:28Z</time>
      </trkpt>
      <trkpt lat="45.89523" lon="4.68843">
        <ele>289.49</ele>
        <time>2014-07-05T13:48:29Z</time>
      </trkpt>
      <trkpt lat="45.89554" lon="4.68827">
        <ele>289.49</ele>
        <time>2014-07-05T13:48:38Z</time>
      </trkpt>
      <trkpt lat="45.89591" lon="4.68812">
        <ele>286.13</ele>
        <time>2014-07-05T13:48:47Z</time>
      </trkpt>
      <trkpt lat="45.896" lon="4.68789">
        <ele>284.69</ele>
        <time>2014-07-05T13:48:52Z</time>
      </trkpt>
      <trkpt lat="45.89608" lon="4.68733">
        <ele>281.32</ele>
        <time>2014-07-05T13:48:59Z</time>
      </trkpt>
      <trkpt lat="45.89612" lon="4.68712">
        <ele>280.84</ele>
        <time>2014-07-05T13:49:01Z</time>
      </trkpt>
      <trkpt lat="45.89615" lon="4.68702">
        <ele>280.36</ele>
        <time>2014-07-05T13:49:02Z</time>
      </trkpt>
      <trkpt lat="45.89618" lon="4.68693">
        <ele>280.36</ele>
        <time>2014-07-05T13:49:03Z</time>
      </trkpt>
      <trkpt lat="45.89625" lon="4.68676">
        <ele>280.36</ele>
        <time>2014-07-05T13:49:05Z</time>
      </trkpt>
      <trkpt lat="45.89629" lon="4.6867">
        <ele>280.36</ele>
        <time>2014-07-05T13:49:06Z</time>
      </trkpt>
      <trkpt lat="45.89633" lon="4.68665">
        <ele>280.36</ele>
        <time>2014-07-05T13:49:07Z</time>
      </trkpt>
      <trkpt lat="45.89637" lon="4.68661">
        <ele>280.36</ele>
        <time>2014-07-05T13:49:08Z</time>
      </trkpt>
      <trkpt lat="45.89642" lon="4.68658">
        <ele>280.36</ele>
        <time>2014-07-05T13:49:09Z</time>
      </trkpt>
      <trkpt lat="45.89648" lon="4.68656">
        <ele>279.88</ele>
        <time>2014-07-05T13:49:10Z</time>
      </trkpt>
      <trkpt lat="45.89653" lon="4.68654">
        <ele>280.36</ele>
        <time>2014-07-05T13:49:11Z</time>
      </trkpt>
      <trkpt lat="45.89659" lon="4.68652">
        <ele>280.36</ele>
        <time>2014-07-05T13:49:12Z</time>
      </trkpt>
      <trkpt lat="45.8968" lon="4.68644">
        <ele>280.36</ele>
        <time>2014-07-05T13:49:16Z</time>
      </trkpt>
      <trkpt lat="45.89684" lon="4.68645">
        <ele>280.36</ele>
        <time>2014-07-05T13:49:17Z</time>
      </trkpt>
      <trkpt lat="45.89688" lon="4.68646">
        <ele>280.36</ele>
        <time>2014-07-05T13:49:18Z</time>
      </trkpt>
      <trkpt lat="45.89691" lon="4.68649">
        <ele>280.36</ele>
        <time>2014-07-05T13:49:19Z</time>
      </trkpt>
      <trkpt lat="45.89693" lon="4.68652">
        <ele>279.88</ele>
        <time>2014-07-05T13:49:20Z</time>
      </trkpt>
      <trkpt lat="45.89694" lon="4.68655">
        <ele>279.88</ele>
        <time>2014-07-05T13:49:21Z</time>
      </trkpt>
      <trkpt lat="45.89695" lon="4.68658">
        <ele>279.88</ele>
        <time>2014-07-05T13:49:22Z</time>
      </trkpt>
      <trkpt lat="45.89702" lon="4.68678">
        <ele>281.32</ele>
        <time>2014-07-05T13:49:31Z</time>
      </trkpt>
      <trkpt lat="45.89714" lon="4.68694">
        <ele>283.25</ele>
        <time>2014-07-05T13:49:42Z</time>
      </trkpt>
      <trkpt lat="45.89715" lon="4.68695">
        <ele>284.21</ele>
        <time>2014-07-05T13:49:43Z</time>
      </trkpt>
      <trkpt lat="45.89717" lon="4.68695">
        <ele>283.73</ele>
        <time>2014-07-05T13:49:44Z</time>
      </trkpt>
      <trkpt lat="45.89718" lon="4.68696">
        <ele>283.73</ele>
        <time>2014-07-05T13:49:45Z</time>
      </trkpt>
      <trkpt lat="45.89722" lon="4.68698">
        <ele>285.17</ele>
        <time>2014-07-05T13:49:48Z</time>
      </trkpt>
      <trkpt lat="45.89724" lon="4.68705">
        <ele>285.65</ele>
        <time>2014-07-05T13:50:03Z</time>
      </trkpt>
      <trkpt lat="45.89732" lon="4.68706">
        <ele>287.57</ele>
        <time>2014-07-05T13:50:16Z</time>
      </trkpt>
      <trkpt lat="45.89739" lon="4.68704">
        <ele>289.97</ele>
        <time>2014-07-05T13:50:27Z</time>
      </trkpt>
      <trkpt lat="45.89738" lon="4.68708">
        <ele>289.49</ele>
        <time>2014-07-05T13:50:40Z</time>
      </trkpt>
      <trkpt lat="45.89742" lon="4.68708">
        <ele>289.49</ele>
        <time>2014-07-05T13:50:49Z</time>
      </trkpt>
      <trkpt lat="45.89744" lon="4.68708">
        <ele>289.97</ele>
        <time>2014-07-05T13:50:50Z</time>
      </trkpt>
      <trkpt lat="45.89745" lon="4.68708">
        <ele>290.46</ele>
        <time>2014-07-05T13:50:51Z</time>
      </trkpt>
      <trkpt lat="45.89755" lon="4.68705">
        <ele>292.38</ele>
        <time>2014-07-05T13:50:56Z</time>
      </trkpt>
      <trkpt lat="45.8977" lon="4.68701">
        <ele>295.26</ele>
        <time>2014-07-05T13:51:04Z</time>
      </trkpt>
      <trkpt lat="45.89789" lon="4.68698">
        <ele>297.67</ele>
        <time>2014-07-05T13:51:16Z</time>
      </trkpt>
      <trkpt lat="45.89806" lon="4.68719">
        <ele>297.67</ele>
        <time>2014-07-05T13:51:26Z</time>
      </trkpt>
      <trkpt lat="45.89809" lon="4.68724">
        <ele>297.67</ele>
        <time>2014-07-05T13:51:35Z</time>
      </trkpt>
      <trkpt lat="45.8981" lon="4.68723">
        <ele>297.67</ele>
        <time>2014-07-05T13:51:52Z</time>
      </trkpt>
      <trkpt lat="45.89812" lon="4.68723">
        <ele>296.22</ele>
        <time>2014-07-05T13:52:03Z</time>
      </trkpt>
      <trkpt lat="45.89812" lon="4.68724">
        <ele>298.15</ele>
        <time>2014-07-05T13:52:05Z</time>
      </trkpt>
      <trkpt lat="45.89812" lon="4.68725">
        <ele>296.7</ele>
        <time>2014-07-05T13:52:17Z</time>
      </trkpt>
      <trkpt lat="45.8981" lon="4.68727">
        <ele>296.7</ele>
        <time>2014-07-05T13:52:52Z</time>
      </trkpt>
      <trkpt lat="45.89811" lon="4.68726">
        <ele>293.82</ele>
        <time>2014-07-05T13:53:18Z</time>
      </trkpt>
      <trkpt lat="45.89811" lon="4.68726">
        <ele>293.82</ele>
        <time>2014-07-05T13:53:19Z</time>
      </trkpt>
      <trkpt lat="45.89811" lon="4.68726">
        <ele>302.95</ele>
        <time>2014-07-05T13:53:20Z</time>
      </trkpt>
      <trkpt lat="45.89811" lon="4.68726">
        <ele>297.67</ele>
        <time>2014-07-05T13:53:21Z</time>
      </trkpt>
      <trkpt lat="45.89806" lon="4.68722">
        <ele>297.67</ele>
        <time>2014-07-05T13:53:43Z</time>
      </trkpt>
      <trkpt lat="45.89818" lon="4.68738">
        <ele>297.18</ele>
        <time>2014-07-05T13:53:52Z</time>
      </trkpt>
      <trkpt lat="45.89843" lon="4.68754">
        <ele>296.7</ele>
        <time>2014-07-05T13:54:03Z</time>
      </trkpt>
      <trkpt lat="45.89874" lon="4.68785">
        <ele>296.7</ele>
        <time>2014-07-05T13:54:14Z</time>
      </trkpt>
      <trkpt lat="45.89892" lon="4.68809">
        <ele>296.22</ele>
        <time>2014-07-05T13:54:20Z</time>
      </trkpt>
      <trkpt lat="45.89895" lon="4.68814">
        <ele>296.22</ele>
        <time>2014-07-05T13:54:21Z</time>
      </trkpt>
      <trkpt lat="45.89928" lon="4.68852">
        <ele>295.26</ele>
        <time>2014-07-05T13:54:31Z</time>
      </trkpt>
      <trkpt lat="45.89954" lon="4.68884">
        <ele>296.7</ele>
        <time>2014-07-05T13:54:41Z</time>
      </trkpt>
      <trkpt lat="45.89976" lon="4.68893">
        <ele>297.18</ele>
        <time>2014-07-05T13:54:48Z</time>
      </trkpt>
      <trkpt lat="45.89997" lon="4.68864">
        <ele>298.63</ele>
        <time>2014-07-05T13:54:58Z</time>
      </trkpt>
      <trkpt lat="45.90015" lon="4.68836">
        <ele>300.55</ele>
        <time>2014-07-05T13:55:10Z</time>
      </trkpt>
      <trkpt lat="45.90027" lon="4.68812">
        <ele>301.99</ele>
        <time>2014-07-05T13:55:20Z</time>
      </trkpt>
      <trkpt lat="45.90038" lon="4.68787">
        <ele>304.39</ele>
        <time>2014-07-05T13:55:31Z</time>
      </trkpt>
      <trkpt lat="45.90057" lon="4.68774">
        <ele>305.36</ele>
        <time>2014-07-05T13:55:41Z</time>
      </trkpt>
      <trkpt lat="45.90084" lon="4.6877">
        <ele>306.32</ele>
        <time>2014-07-05T13:55:53Z</time>
      </trkpt>
      <trkpt lat="45.90108" lon="4.68764">
        <ele>306.32</ele>
        <time>2014-07-05T13:56:03Z</time>
      </trkpt>
      <trkpt lat="45.90121" lon="4.68756">
        <ele>306.8</ele>
        <time>2014-07-05T13:56:11Z</time>
      </trkpt>
      <trkpt lat="45.90134" lon="4.68745">
        <ele>307.28</ele>
        <time>2014-07-05T13:56:19Z</time>
      </trkpt>
      <trkpt lat="45.90148" lon="4.68721">
        <ele>308.24</ele>
        <time>2014-07-05T13:56:31Z</time>
      </trkpt>
      <trkpt lat="45.9016" lon="4.68694">
        <ele>309.68</ele>
        <time>2014-07-05T13:56:40Z</time>
      </trkpt>
      <trkpt lat="45.90159" lon="4.68697">
        <ele>309.68</ele>
        <time>2014-07-05T13:56:54Z</time>
      </trkpt>
      <trkpt lat="45.90159" lon="4.68699">
        <ele>304.39</ele>
        <time>2014-07-05T13:56:59Z</time>
      </trkpt>
      <trkpt lat="45.90158" lon="4.687">
        <ele>313.53</ele>
        <time>2014-07-05T13:57:00Z</time>
      </trkpt>
      <trkpt lat="45.90158" lon="4.687">
        <ele>310.16</ele>
        <time>2014-07-05T13:57:01Z</time>
      </trkpt>
      <trkpt lat="45.90154" lon="4.68703">
        <ele>309.2</ele>
        <time>2014-07-05T13:57:27Z</time>
      </trkpt>
      <trkpt lat="45.90154" lon="4.68703">
        <ele>309.68</ele>
        <time>2014-07-05T13:57:48Z</time>
      </trkpt>
      <trkpt lat="45.90152" lon="4.68697">
        <ele>309.2</ele>
        <time>2014-07-05T13:58:08Z</time>
      </trkpt>
      <trkpt lat="45.90155" lon="4.68696">
        <ele>309.68</ele>
        <time>2014-07-05T13:58:33Z</time>
      </trkpt>
      <trkpt lat="45.90164" lon="4.68695">
        <ele>310.16</ele>
        <time>2014-07-05T13:58:57Z</time>
      </trkpt>
      <trkpt lat="45.90162" lon="4.68693">
        <ele>310.16</ele>
        <time>2014-07-05T13:59:11Z</time>
      </trkpt>
      <trkpt lat="45.90156" lon="4.68695">
        <ele>310.64</ele>
        <time>2014-07-05T13:59:33Z</time>
      </trkpt>
      <trkpt lat="45.90155" lon="4.6869">
        <ele>310.16</ele>
        <time>2014-07-05T13:59:53Z</time>
      </trkpt>
      <trkpt lat="45.90156" lon="4.68694">
        <ele>310.16</ele>
        <time>2014-07-05T14:00:09Z</time>
      </trkpt>
      <trkpt lat="45.90158" lon="4.68691">
        <ele>310.16</ele>
        <time>2014-07-05T14:00:28Z</time>
      </trkpt>
      <trkpt lat="45.90156" lon="4.68693">
        <ele>310.16</ele>
        <time>2014-07-05T14:00:48Z</time>
      </trkpt>
      <trkpt lat="45.90158" lon="4.68703">
        <ele>310.16</ele>
        <time>2014-07-05T14:01:07Z</time>
      </trkpt>
      <trkpt lat="45.90153" lon="4.68695">
        <ele>310.64</ele>
        <time>2014-07-05T14:01:33Z</time>
      </trkpt>
      <trkpt lat="45.90151" lon="4.68695">
        <ele>310.64</ele>
        <time>2014-07-05T14:01:53Z</time>
      </trkpt>
      <trkpt lat="45.90153" lon="4.68692">
        <ele>311.12</ele>
        <time>2014-07-05T14:02:10Z</time>
      </trkpt>
      <trkpt lat="45.90154" lon="4.68686">
        <ele>311.6</ele>
        <time>2014-07-05T14:02:13Z</time>
      </trkpt>
      <trkpt lat="45.90155" lon="4.68681">
        <ele>311.6</ele>
        <time>2014-07-05T14:02:15Z</time>
      </trkpt>
      <trkpt lat="45.90155" lon="4.68679">
        <ele>311.6</ele>
        <time>2014-07-05T14:02:16Z</time>
      </trkpt>
      <trkpt lat="45.90163" lon="4.68652">
        <ele>313.05</ele>
        <time>2014-07-05T14:02:25Z</time>
      </trkpt>
      <trkpt lat="45.90165" lon="4.68652">
        <ele>313.05</ele>
        <time>2014-07-05T14:02:26Z</time>
      </trkpt>
      <trkpt lat="45.90167" lon="4.68652">
        <ele>313.53</ele>
        <time>2014-07-05T14:02:27Z</time>
      </trkpt>
      <trkpt lat="45.90168" lon="4.68652">
        <ele>313.05</ele>
        <time>2014-07-05T14:02:28Z</time>
      </trkpt>
      <trkpt lat="45.9017" lon="4.68654">
        <ele>313.05</ele>
        <time>2014-07-05T14:02:29Z</time>
      </trkpt>
      <trkpt lat="45.90197" lon="4.68668">
        <ele>313.05</ele>
        <time>2014-07-05T14:02:38Z</time>
      </trkpt>
      <trkpt lat="45.90246" lon="4.68693">
        <ele>314.01</ele>
        <time>2014-07-05T14:02:51Z</time>
      </trkpt>
      <trkpt lat="45.90287" lon="4.687">
        <ele>315.93</ele>
        <time>2014-07-05T14:03:02Z</time>
      </trkpt>
      <trkpt lat="45.90324" lon="4.68698">
        <ele>317.37</ele>
        <time>2014-07-05T14:03:12Z</time>
      </trkpt>
      <trkpt lat="45.90354" lon="4.68694">
        <ele>318.81</ele>
        <time>2014-07-05T14:03:22Z</time>
      </trkpt>
      <trkpt lat="45.90379" lon="4.68695">
        <ele>319.3</ele>
        <time>2014-07-05T14:03:33Z</time>
      </trkpt>
      <trkpt lat="45.90406" lon="4.68712">
        <ele>318.81</ele>
        <time>2014-07-05T14:03:44Z</time>
      </trkpt>
      <trkpt lat="45.90411" lon="4.68715">
        <ele>318.81</ele>
        <time>2014-07-05T14:03:46Z</time>
      </trkpt>
      <trkpt lat="45.90413" lon="4.68717">
        <ele>318.33</ele>
        <time>2014-07-05T14:03:47Z</time>
      </trkpt>
      <trkpt lat="45.90421" lon="4.68721">
        <ele>317.85</ele>
        <time>2014-07-05T14:03:50Z</time>
      </trkpt>
      <trkpt lat="45.90423" lon="4.6872">
        <ele>317.85</ele>
        <time>2014-07-05T14:03:51Z</time>
      </trkpt>
      <trkpt lat="45.90425" lon="4.68718">
        <ele>317.85</ele>
        <time>2014-07-05T14:03:52Z</time>
      </trkpt>
      <trkpt lat="45.90428" lon="4.68717">
        <ele>318.33</ele>
        <time>2014-07-05T14:03:53Z</time>
      </trkpt>
      <trkpt lat="45.9043" lon="4.68715">
        <ele>318.33</ele>
        <time>2014-07-05T14:03:54Z</time>
      </trkpt>
      <trkpt lat="45.9043" lon="4.68711">
        <ele>319.3</ele>
        <time>2014-07-05T14:03:55Z</time>
      </trkpt>
      <trkpt lat="45.9043" lon="4.68708">
        <ele>319.3</ele>
        <time>2014-07-05T14:03:56Z</time>
      </trkpt>
      <trkpt lat="45.90431" lon="4.68704">
        <ele>319.78</ele>
        <time>2014-07-05T14:03:57Z</time>
      </trkpt>
      <trkpt lat="45.90431" lon="4.68701">
        <ele>319.78</ele>
        <time>2014-07-05T14:03:58Z</time>
      </trkpt>
      <trkpt lat="45.90432" lon="4.68697">
        <ele>320.26</ele>
        <time>2014-07-05T14:03:59Z</time>
      </trkpt>
      <trkpt lat="45.90432" lon="4.68694">
        <ele>320.74</ele>
        <time>2014-07-05T14:04:00Z</time>
      </trkpt>
      <trkpt lat="45.90439" lon="4.68666">
        <ele>323.14</ele>
        <time>2014-07-05T14:04:09Z</time>
      </trkpt>
      <trkpt lat="45.9044" lon="4.68664">
        <ele>323.62</ele>
        <time>2014-07-05T14:04:10Z</time>
      </trkpt>
      <trkpt lat="45.90442" lon="4.68664">
        <ele>323.62</ele>
        <time>2014-07-05T14:04:11Z</time>
      </trkpt>
      <trkpt lat="45.90444" lon="4.68663">
        <ele>324.1</ele>
        <time>2014-07-05T14:04:12Z</time>
      </trkpt>
      <trkpt lat="45.90446" lon="4.68663">
        <ele>324.1</ele>
        <time>2014-07-05T14:04:13Z</time>
      </trkpt>
      <trkpt lat="45.90447" lon="4.68662">
        <ele>324.1</ele>
        <time>2014-07-05T14:04:14Z</time>
      </trkpt>
      <trkpt lat="45.90449" lon="4.68661">
        <ele>324.1</ele>
        <time>2014-07-05T14:04:15Z</time>
      </trkpt>
      <trkpt lat="45.90451" lon="4.6866">
        <ele>324.58</ele>
        <time>2014-07-05T14:04:16Z</time>
      </trkpt>
      <trkpt lat="45.90453" lon="4.6866">
        <ele>324.1</ele>
        <time>2014-07-05T14:04:17Z</time>
      </trkpt>
      <trkpt lat="45.90473" lon="4.68653">
        <ele>325.54</ele>
        <time>2014-07-05T14:04:27Z</time>
      </trkpt>
      <trkpt lat="45.90488" lon="4.68643">
        <ele>326.99</ele>
        <time>2014-07-05T14:04:35Z</time>
      </trkpt>
      <trkpt lat="45.90489" lon="4.68641">
        <ele>326.99</ele>
        <time>2014-07-05T14:04:36Z</time>
      </trkpt>
      <trkpt lat="45.9049" lon="4.68639">
        <ele>326.5</ele>
        <time>2014-07-05T14:04:37Z</time>
      </trkpt>
      <trkpt lat="45.90491" lon="4.68638">
        <ele>327.47</ele>
        <time>2014-07-05T14:04:38Z</time>
      </trkpt>
      <trkpt lat="45.90493" lon="4.68636">
        <ele>327.47</ele>
        <time>2014-07-05T14:04:39Z</time>
      </trkpt>
      <trkpt lat="45.90495" lon="4.68635">
        <ele>327.95</ele>
        <time>2014-07-05T14:04:40Z</time>
      </trkpt>
      <trkpt lat="45.90514" lon="4.68615">
        <ele>331.31</ele>
        <time>2014-07-05T14:04:53Z</time>
      </trkpt>
      <trkpt lat="45.90531" lon="4.6859">
        <ele>332.75</ele>
        <time>2014-07-05T14:05:06Z</time>
      </trkpt>
      <trkpt lat="45.90535" lon="4.68586">
        <ele>333.71</ele>
        <time>2014-07-05T14:05:09Z</time>
      </trkpt>
      <trkpt lat="45.90537" lon="4.68585">
        <ele>333.23</ele>
        <time>2014-07-05T14:05:10Z</time>
      </trkpt>
      <trkpt lat="45.90549" lon="4.68571">
        <ele>335.16</ele>
        <time>2014-07-05T14:05:19Z</time>
      </trkpt>
      <trkpt lat="45.90549" lon="4.68569">
        <ele>335.64</ele>
        <time>2014-07-05T14:05:20Z</time>
      </trkpt>
      <trkpt lat="45.9055" lon="4.68567">
        <ele>335.64</ele>
        <time>2014-07-05T14:05:21Z</time>
      </trkpt>
      <trkpt lat="45.90554" lon="4.68545">
        <ele>338.04</ele>
        <time>2014-07-05T14:05:31Z</time>
      </trkpt>
      <trkpt lat="45.90557" lon="4.6854">
        <ele>338.52</ele>
        <time>2014-07-05T14:05:34Z</time>
      </trkpt>
      <trkpt lat="45.90565" lon="4.68535">
        <ele>339</ele>
        <time>2014-07-05T14:05:41Z</time>
      </trkpt>
      <trkpt lat="45.90578" lon="4.68531">
        <ele>339.96</ele>
        <time>2014-07-05T14:05:50Z</time>
      </trkpt>
      <trkpt lat="45.90583" lon="4.6853">
        <ele>339.96</ele>
        <time>2014-07-05T14:05:53Z</time>
      </trkpt>
      <trkpt lat="45.90588" lon="4.68531">
        <ele>340.44</ele>
        <time>2014-07-05T14:05:56Z</time>
      </trkpt>
      <trkpt lat="45.90603" lon="4.68528">
        <ele>340.92</ele>
        <time>2014-07-05T14:06:08Z</time>
      </trkpt>
      <trkpt lat="45.90607" lon="4.68524">
        <ele>340.92</ele>
        <time>2014-07-05T14:06:27Z</time>
      </trkpt>
      <trkpt lat="45.90609" lon="4.68527">
        <ele>341.41</ele>
        <time>2014-07-05T14:06:47Z</time>
      </trkpt>
      <trkpt lat="45.90611" lon="4.68523">
        <ele>341.41</ele>
        <time>2014-07-05T14:07:06Z</time>
      </trkpt>
      <trkpt lat="45.90613" lon="4.68523">
        <ele>341.89</ele>
        <time>2014-07-05T14:07:13Z</time>
      </trkpt>
      <trkpt lat="45.90614" lon="4.68523">
        <ele>341.89</ele>
        <time>2014-07-05T14:07:14Z</time>
      </trkpt>
      <trkpt lat="45.90615" lon="4.68522">
        <ele>341.89</ele>
        <time>2014-07-05T14:07:15Z</time>
      </trkpt>
      <trkpt lat="45.90617" lon="4.68521">
        <ele>342.37</ele>
        <time>2014-07-05T14:07:16Z</time>
      </trkpt>
      <trkpt lat="45.90618" lon="4.6852">
        <ele>341.89</ele>
        <time>2014-07-05T14:07:17Z</time>
      </trkpt>
      <trkpt lat="45.9062" lon="4.68519">
        <ele>342.37</ele>
        <time>2014-07-05T14:07:18Z</time>
      </trkpt>
      <trkpt lat="45.90622" lon="4.68518">
        <ele>342.37</ele>
        <time>2014-07-05T14:07:19Z</time>
      </trkpt>
      <trkpt lat="45.90649" lon="4.68509">
        <ele>344.29</ele>
        <time>2014-07-05T14:07:32Z</time>
      </trkpt>
      <trkpt lat="45.90687" lon="4.68519">
        <ele>344.77</ele>
        <time>2014-07-05T14:07:43Z</time>
      </trkpt>
      <trkpt lat="45.9074" lon="4.68527">
        <ele>347.17</ele>
        <time>2014-07-05T14:07:58Z</time>
      </trkpt>
      <trkpt lat="45.90779" lon="4.68531">
        <ele>350.06</ele>
        <time>2014-07-05T14:08:13Z</time>
      </trkpt>
      <trkpt lat="45.90805" lon="4.68535">
        <ele>352.94</ele>
        <time>2014-07-05T14:08:27Z</time>
      </trkpt>
      <trkpt lat="45.90812" lon="4.6853">
        <ele>354.38</ele>
        <time>2014-07-05T14:08:32Z</time>
      </trkpt>
      <trkpt lat="45.90814" lon="4.68528">
        <ele>354.38</ele>
        <time>2014-07-05T14:08:33Z</time>
      </trkpt>
      <trkpt lat="45.90815" lon="4.68526">
        <ele>354.38</ele>
        <time>2014-07-05T14:08:34Z</time>
      </trkpt>
      <trkpt lat="45.90816" lon="4.68523">
        <ele>354.86</ele>
        <time>2014-07-05T14:08:35Z</time>
      </trkpt>
      <trkpt lat="45.90815" lon="4.6852">
        <ele>355.34</ele>
        <time>2014-07-05T14:08:36Z</time>
      </trkpt>
      <trkpt lat="45.90815" lon="4.68517">
        <ele>355.34</ele>
        <time>2014-07-05T14:08:37Z</time>
      </trkpt>
      <trkpt lat="45.90812" lon="4.68483">
        <ele>358.23</ele>
        <time>2014-07-05T14:08:51Z</time>
      </trkpt>
      <trkpt lat="45.90812" lon="4.68446">
        <ele>361.11</ele>
        <time>2014-07-05T14:09:07Z</time>
      </trkpt>
      <trkpt lat="45.90815" lon="4.68416">
        <ele>364.48</ele>
        <time>2014-07-05T14:09:21Z</time>
      </trkpt>
      <trkpt lat="45.90817" lon="4.68385">
        <ele>366.88</ele>
        <time>2014-07-05T14:09:35Z</time>
      </trkpt>
      <trkpt lat="45.90819" lon="4.68352">
        <ele>369.76</ele>
        <time>2014-07-05T14:09:49Z</time>
      </trkpt>
      <trkpt lat="45.9082" lon="4.6832">
        <ele>372.17</ele>
        <time>2014-07-05T14:10:03Z</time>
      </trkpt>
      <trkpt lat="45.90824" lon="4.68289">
        <ele>374.57</ele>
        <time>2014-07-05T14:10:17Z</time>
      </trkpt>
      <trkpt lat="45.90828" lon="4.68267">
        <ele>376.97</ele>
        <time>2014-07-05T14:10:27Z</time>
      </trkpt>
      <trkpt lat="45.90829" lon="4.68266">
        <ele>376.97</ele>
        <time>2014-07-05T14:10:28Z</time>
      </trkpt>
      <trkpt lat="45.90831" lon="4.68266">
        <ele>377.45</ele>
        <time>2014-07-05T14:10:29Z</time>
      </trkpt>
      <trkpt lat="45.90832" lon="4.68267">
        <ele>377.45</ele>
        <time>2014-07-05T14:10:30Z</time>
      </trkpt>
      <trkpt lat="45.90833" lon="4.68269">
        <ele>377.94</ele>
        <time>2014-07-05T14:10:31Z</time>
      </trkpt>
      <trkpt lat="45.90848" lon="4.68291">
        <ele>378.42</ele>
        <time>2014-07-05T14:10:41Z</time>
      </trkpt>
      <trkpt lat="45.90868" lon="4.6831">
        <ele>380.82</ele>
        <time>2014-07-05T14:10:54Z</time>
      </trkpt>
      <trkpt lat="45.90885" lon="4.68323">
        <ele>382.74</ele>
        <time>2014-07-05T14:11:06Z</time>
      </trkpt>
      <trkpt lat="45.90906" lon="4.68343">
        <ele>384.66</ele>
        <time>2014-07-05T14:11:19Z</time>
      </trkpt>
      <trkpt lat="45.90928" lon="4.68365">
        <ele>386.59</ele>
        <time>2014-07-05T14:11:32Z</time>
      </trkpt>
      <trkpt lat="45.90953" lon="4.68385">
        <ele>388.03</ele>
        <time>2014-07-05T14:11:45Z</time>
      </trkpt>
      <trkpt lat="45.90977" lon="4.684">
        <ele>388.51</ele>
        <time>2014-07-05T14:11:56Z</time>
      </trkpt>
      <trkpt lat="45.91006" lon="4.68407">
        <ele>390.43</ele>
        <time>2014-07-05T14:12:08Z</time>
      </trkpt>
      <trkpt lat="45.91034" lon="4.68416">
        <ele>392.36</ele>
        <time>2014-07-05T14:12:21Z</time>
      </trkpt>
      <trkpt lat="45.91061" lon="4.68424">
        <ele>393.32</ele>
        <time>2014-07-05T14:12:33Z</time>
      </trkpt>
      <trkpt lat="45.91088" lon="4.68435">
        <ele>395.24</ele>
        <time>2014-07-05T14:12:45Z</time>
      </trkpt>
      <trkpt lat="45.91111" lon="4.68456">
        <ele>395.72</ele>
        <time>2014-07-05T14:12:56Z</time>
      </trkpt>
      <trkpt lat="45.91149" lon="4.68479">
        <ele>396.2</ele>
        <time>2014-07-05T14:13:07Z</time>
      </trkpt>
      <trkpt lat="45.91178" lon="4.68488">
        <ele>398.12</ele>
        <time>2014-07-05T14:13:17Z</time>
      </trkpt>
      <trkpt lat="45.91211" lon="4.6849">
        <ele>399.57</ele>
        <time>2014-07-05T14:13:28Z</time>
      </trkpt>
      <trkpt lat="45.91242" lon="4.68476">
        <ele>401.97</ele>
        <time>2014-07-05T14:13:40Z</time>
      </trkpt>
      <trkpt lat="45.91248" lon="4.6847">
        <ele>403.41</ele>
        <time>2014-07-05T14:13:43Z</time>
      </trkpt>
      <trkpt lat="45.91277" lon="4.68461">
        <ele>404.85</ele>
        <time>2014-07-05T14:13:56Z</time>
      </trkpt>
      <trkpt lat="45.91314" lon="4.68458">
        <ele>405.33</ele>
        <time>2014-07-05T14:14:10Z</time>
      </trkpt>
      <trkpt lat="45.91343" lon="4.6844">
        <ele>407.26</ele>
        <time>2014-07-05T14:14:21Z</time>
      </trkpt>
      <trkpt lat="45.91362" lon="4.68406">
        <ele>407.74</ele>
        <time>2014-07-05T14:14:34Z</time>
      </trkpt>
      <trkpt lat="45.91365" lon="4.68403">
        <ele>408.22</ele>
        <time>2014-07-05T14:14:43Z</time>
      </trkpt>
      <trkpt lat="45.91366" lon="4.68403">
        <ele>408.22</ele>
        <time>2014-07-05T14:14:54Z</time>
      </trkpt>
      <trkpt lat="45.91366" lon="4.68403">
        <ele>407.26</ele>
        <time>2014-07-05T14:15:04Z</time>
      </trkpt>
      <trkpt lat="45.91366" lon="4.68403">
        <ele>407.74</ele>
        <time>2014-07-05T14:15:14Z</time>
      </trkpt>
      <trkpt lat="45.91366" lon="4.68402">
        <ele>407.26</ele>
        <time>2014-07-05T14:15:28Z</time>
      </trkpt>
      <trkpt lat="45.91366" lon="4.68404">
        <ele>407.26</ele>
        <time>2014-07-05T14:15:43Z</time>
      </trkpt>
      <trkpt lat="45.91366" lon="4.68399">
        <ele>407.74</ele>
        <time>2014-07-05T14:16:03Z</time>
      </trkpt>
      <trkpt lat="45.91366" lon="4.68401">
        <ele>406.77</ele>
        <time>2014-07-05T14:16:15Z</time>
      </trkpt>
      <trkpt lat="45.91365" lon="4.68399">
        <ele>407.26</ele>
        <time>2014-07-05T14:16:30Z</time>
      </trkpt>
      <trkpt lat="45.91366" lon="4.68399">
        <ele>407.26</ele>
        <time>2014-07-05T14:16:39Z</time>
      </trkpt>
      <trkpt lat="45.91366" lon="4.684">
        <ele>407.74</ele>
        <time>2014-07-05T14:16:49Z</time>
      </trkpt>
      <trkpt lat="45.91367" lon="4.68402">
        <ele>408.22</ele>
        <time>2014-07-05T14:17:02Z</time>
      </trkpt>
      <trkpt lat="45.91368" lon="4.68403">
        <ele>407.74</ele>
        <time>2014-07-05T14:17:20Z</time>
      </trkpt>
      <trkpt lat="45.91366" lon="4.68398">
        <ele>408.22</ele>
        <time>2014-07-05T14:17:39Z</time>
      </trkpt>
      <trkpt lat="45.91365" lon="4.68398">
        <ele>408.22</ele>
        <time>2014-07-05T14:17:51Z</time>
      </trkpt>
      <trkpt lat="45.91365" lon="4.68394">
        <ele>407.74</ele>
        <time>2014-07-05T14:18:06Z</time>
      </trkpt>
      <trkpt lat="45.91365" lon="4.68397">
        <ele>407.74</ele>
        <time>2014-07-05T14:18:28Z</time>
      </trkpt>
      <trkpt lat="45.91365" lon="4.68393">
        <ele>407.74</ele>
        <time>2014-07-05T14:18:41Z</time>
      </trkpt>
      <trkpt lat="45.91366" lon="4.68393">
        <ele>407.74</ele>
        <time>2014-07-05T14:19:02Z</time>
      </trkpt>
      <trkpt lat="45.91366" lon="4.68397">
        <ele>408.7</ele>
        <time>2014-07-05T14:19:25Z</time>
      </trkpt>
      <trkpt lat="45.91366" lon="4.68397">
        <ele>407.74</ele>
        <time>2014-07-05T14:19:50Z</time>
      </trkpt>
      <trkpt lat="45.91366" lon="4.68395">
        <ele>407.26</ele>
        <time>2014-07-05T14:20:04Z</time>
      </trkpt>
      <trkpt lat="45.91365" lon="4.68393">
        <ele>407.74</ele>
        <time>2014-07-05T14:20:27Z</time>
      </trkpt>
      <trkpt lat="45.91365" lon="4.68395">
        <ele>408.22</ele>
        <time>2014-07-05T14:20:53Z</time>
      </trkpt>
      <trkpt lat="45.91366" lon="4.68397">
        <ele>407.74</ele>
        <time>2014-07-05T14:21:04Z</time>
      </trkpt>
      <trkpt lat="45.91366" lon="4.68396">
        <ele>408.7</ele>
        <time>2014-07-05T14:21:19Z</time>
      </trkpt>
      <trkpt lat="45.91365" lon="4.68393">
        <ele>408.7</ele>
        <time>2014-07-05T14:21:20Z</time>
      </trkpt>
      <trkpt lat="45.91365" lon="4.68391">
        <ele>408.22</ele>
        <time>2014-07-05T14:21:21Z</time>
      </trkpt>
      <trkpt lat="45.91365" lon="4.68387">
        <ele>408.22</ele>
        <time>2014-07-05T14:21:22Z</time>
      </trkpt>
      <trkpt lat="45.91366" lon="4.68382">
        <ele>408.22</ele>
        <time>2014-07-05T14:21:23Z</time>
      </trkpt>
      <trkpt lat="45.91367" lon="4.68377">
        <ele>408.22</ele>
        <time>2014-07-05T14:21:24Z</time>
      </trkpt>
      <trkpt lat="45.91368" lon="4.68371">
        <ele>408.22</ele>
        <time>2014-07-05T14:21:25Z</time>
      </trkpt>
      <trkpt lat="45.91369" lon="4.68365">
        <ele>408.22</ele>
        <time>2014-07-05T14:21:26Z</time>
      </trkpt>
      <trkpt lat="45.91371" lon="4.68344">
        <ele>406.77</ele>
        <time>2014-07-05T14:21:29Z</time>
      </trkpt>
      <trkpt lat="45.91372" lon="4.68337">
        <ele>406.29</ele>
        <time>2014-07-05T14:21:30Z</time>
      </trkpt>
      <trkpt lat="45.91374" lon="4.68331">
        <ele>405.33</ele>
        <time>2014-07-05T14:21:31Z</time>
      </trkpt>
      <trkpt lat="45.91379" lon="4.68326">
        <ele>405.33</ele>
        <time>2014-07-05T14:21:32Z</time>
      </trkpt>
      <trkpt lat="45.91384" lon="4.68323">
        <ele>404.37</ele>
        <time>2014-07-05T14:21:33Z</time>
      </trkpt>
      <trkpt lat="45.91391" lon="4.68322">
        <ele>403.41</ele>
        <time>2014-07-05T14:21:34Z</time>
      </trkpt>
      <trkpt lat="45.91398" lon="4.68321">
        <ele>402.93</ele>
        <time>2014-07-05T14:21:35Z</time>
      </trkpt>
      <trkpt lat="45.91406" lon="4.68319">
        <ele>401.97</ele>
        <time>2014-07-05T14:21:36Z</time>
      </trkpt>
      <trkpt lat="45.91413" lon="4.68315">
        <ele>401.49</ele>
        <time>2014-07-05T14:21:37Z</time>
      </trkpt>
      <trkpt lat="45.91419" lon="4.68309">
        <ele>401.01</ele>
        <time>2014-07-05T14:21:38Z</time>
      </trkpt>
      <trkpt lat="45.91425" lon="4.683">
        <ele>400.05</ele>
        <time>2014-07-05T14:21:39Z</time>
      </trkpt>
      <trkpt lat="45.91429" lon="4.68289">
        <ele>400.05</ele>
        <time>2014-07-05T14:21:40Z</time>
      </trkpt>
      <trkpt lat="45.91432" lon="4.68277">
        <ele>400.05</ele>
        <time>2014-07-05T14:21:41Z</time>
      </trkpt>
      <trkpt lat="45.91434" lon="4.68265">
        <ele>399.08</ele>
        <time>2014-07-05T14:21:42Z</time>
      </trkpt>
      <trkpt lat="45.91437" lon="4.6824">
        <ele>398.6</ele>
        <time>2014-07-05T14:21:44Z</time>
      </trkpt>
      <trkpt lat="45.91443" lon="4.68126">
        <ele>396.2</ele>
        <time>2014-07-05T14:21:55Z</time>
      </trkpt>
      <trkpt lat="45.91448" lon="4.68094">
        <ele>394.28</ele>
        <time>2014-07-05T14:22:01Z</time>
      </trkpt>
      <trkpt lat="45.91451" lon="4.68093">
        <ele>393.8</ele>
        <time>2014-07-05T14:22:02Z</time>
      </trkpt>
      <trkpt lat="45.91454" lon="4.68094">
        <ele>393.8</ele>
        <time>2014-07-05T14:22:03Z</time>
      </trkpt>
      <trkpt lat="45.91458" lon="4.68095">
        <ele>394.28</ele>
        <time>2014-07-05T14:22:04Z</time>
      </trkpt>
      <trkpt lat="45.91461" lon="4.68097">
        <ele>394.28</ele>
        <time>2014-07-05T14:22:05Z</time>
      </trkpt>
      <trkpt lat="45.91514" lon="4.68126">
        <ele>391.87</ele>
        <time>2014-07-05T14:22:16Z</time>
      </trkpt>
      <trkpt lat="45.91568" lon="4.68155">
        <ele>388.99</ele>
        <time>2014-07-05T14:22:25Z</time>
      </trkpt>
      <trkpt lat="45.91573" lon="4.68156">
        <ele>388.51</ele>
        <time>2014-07-05T14:22:26Z</time>
      </trkpt>
      <trkpt lat="45.91578" lon="4.68155">
        <ele>388.03</ele>
        <time>2014-07-05T14:22:27Z</time>
      </trkpt>
      <trkpt lat="45.91581" lon="4.68152">
        <ele>388.03</ele>
        <time>2014-07-05T14:22:28Z</time>
      </trkpt>
      <trkpt lat="45.91583" lon="4.68146">
        <ele>387.55</ele>
        <time>2014-07-05T14:22:29Z</time>
      </trkpt>
      <trkpt lat="45.91584" lon="4.68139">
        <ele>387.55</ele>
        <time>2014-07-05T14:22:30Z</time>
      </trkpt>
      <trkpt lat="45.91583" lon="4.68131">
        <ele>387.07</ele>
        <time>2014-07-05T14:22:31Z</time>
      </trkpt>
      <trkpt lat="45.91582" lon="4.68123">
        <ele>386.59</ele>
        <time>2014-07-05T14:22:32Z</time>
      </trkpt>
      <trkpt lat="45.91571" lon="4.68053">
        <ele>385.15</ele>
        <time>2014-07-05T14:22:41Z</time>
      </trkpt>
      <trkpt lat="45.91573" lon="4.67996">
        <ele>386.11</ele>
        <time>2014-07-05T14:22:51Z</time>
      </trkpt>
      <trkpt lat="45.91587" lon="4.67969">
        <ele>387.07</ele>
        <time>2014-07-05T14:22:59Z</time>
      </trkpt>
      <trkpt lat="45.91608" lon="4.67934">
        <ele>387.07</ele>
        <time>2014-07-05T14:23:08Z</time>
      </trkpt>
      <trkpt lat="45.91614" lon="4.67888">
        <ele>387.07</ele>
        <time>2014-07-05T14:23:15Z</time>
      </trkpt>
      <trkpt lat="45.91613" lon="4.67863">
        <ele>388.03</ele>
        <time>2014-07-05T14:23:19Z</time>
      </trkpt>
      <trkpt lat="45.91612" lon="4.67857">
        <ele>387.55</ele>
        <time>2014-07-05T14:23:20Z</time>
      </trkpt>
      <trkpt lat="45.91609" lon="4.67792">
        <ele>386.59</ele>
        <time>2014-07-05T14:23:30Z</time>
      </trkpt>
      <trkpt lat="45.91611" lon="4.6776">
        <ele>385.63</ele>
        <time>2014-07-05T14:23:34Z</time>
      </trkpt>
      <trkpt lat="45.91612" lon="4.67752">
        <ele>385.63</ele>
        <time>2014-07-05T14:23:35Z</time>
      </trkpt>
      <trkpt lat="45.91616" lon="4.67737">
        <ele>384.18</ele>
        <time>2014-07-05T14:23:37Z</time>
      </trkpt>
      <trkpt lat="45.91621" lon="4.67699">
        <ele>381.3</ele>
        <time>2014-07-05T14:23:41Z</time>
      </trkpt>
      <trkpt lat="45.91622" lon="4.67689">
        <ele>380.82</ele>
        <time>2014-07-05T14:23:42Z</time>
      </trkpt>
      <trkpt lat="45.91623" lon="4.67638">
        <ele>376.49</ele>
        <time>2014-07-05T14:23:47Z</time>
      </trkpt>
      <trkpt lat="45.91622" lon="4.6762">
        <ele>373.61</ele>
        <time>2014-07-05T14:23:52Z</time>
      </trkpt>
      <trkpt lat="45.91621" lon="4.67619">
        <ele>373.61</ele>
        <time>2014-07-05T14:23:53Z</time>
      </trkpt>
      <trkpt lat="45.9162" lon="4.67619">
        <ele>373.61</ele>
        <time>2014-07-05T14:23:54Z</time>
      </trkpt>
      <trkpt lat="45.9162" lon="4.6762">
        <ele>373.13</ele>
        <time>2014-07-05T14:23:55Z</time>
      </trkpt>
      <trkpt lat="45.9162" lon="4.67621">
        <ele>373.13</ele>
        <time>2014-07-05T14:23:56Z</time>
      </trkpt>
      <trkpt lat="45.91621" lon="4.67623">
        <ele>373.13</ele>
        <time>2014-07-05T14:23:57Z</time>
      </trkpt>
      <trkpt lat="45.91623" lon="4.67627">
        <ele>373.61</ele>
        <time>2014-07-05T14:23:58Z</time>
      </trkpt>
      <trkpt lat="45.91623" lon="4.6763">
        <ele>374.57</ele>
        <time>2014-07-05T14:23:59Z</time>
      </trkpt>
      <trkpt lat="45.91624" lon="4.67634">
        <ele>374.57</ele>
        <time>2014-07-05T14:24:00Z</time>
      </trkpt>
      <trkpt lat="45.91627" lon="4.67644">
        <ele>376.01</ele>
        <time>2014-07-05T14:24:03Z</time>
      </trkpt>
      <trkpt lat="45.91628" lon="4.67645">
        <ele>375.53</ele>
        <time>2014-07-05T14:24:04Z</time>
      </trkpt>
      <trkpt lat="45.9163" lon="4.67646">
        <ele>376.01</ele>
        <time>2014-07-05T14:24:05Z</time>
      </trkpt>
      <trkpt lat="45.91633" lon="4.67645">
        <ele>375.53</ele>
        <time>2014-07-05T14:24:06Z</time>
      </trkpt>
      <trkpt lat="45.91636" lon="4.67645">
        <ele>375.53</ele>
        <time>2014-07-05T14:24:07Z</time>
      </trkpt>
      <trkpt lat="45.91639" lon="4.67645">
        <ele>375.53</ele>
        <time>2014-07-05T14:24:08Z</time>
      </trkpt>
      <trkpt lat="45.91643" lon="4.67644">
        <ele>375.05</ele>
        <time>2014-07-05T14:24:09Z</time>
      </trkpt>
      <trkpt lat="45.91648" lon="4.67643">
        <ele>374.57</ele>
        <time>2014-07-05T14:24:10Z</time>
      </trkpt>
      <trkpt lat="45.91652" lon="4.67643">
        <ele>374.57</ele>
        <time>2014-07-05T14:24:11Z</time>
      </trkpt>
      <trkpt lat="45.91658" lon="4.67642">
        <ele>374.09</ele>
        <time>2014-07-05T14:24:12Z</time>
      </trkpt>
      <trkpt lat="45.91694" lon="4.67637">
        <ele>371.69</ele>
        <time>2014-07-05T14:24:18Z</time>
      </trkpt>
      <trkpt lat="45.917" lon="4.67637">
        <ele>371.69</ele>
        <time>2014-07-05T14:24:19Z</time>
      </trkpt>
      <trkpt lat="45.91704" lon="4.67635">
        <ele>370.73</ele>
        <time>2014-07-05T14:24:20Z</time>
      </trkpt>
      <trkpt lat="45.91708" lon="4.67631">
        <ele>370.73</ele>
        <time>2014-07-05T14:24:21Z</time>
      </trkpt>
      <trkpt lat="45.91713" lon="4.67628">
        <ele>369.76</ele>
        <time>2014-07-05T14:24:22Z</time>
      </trkpt>
      <trkpt lat="45.91716" lon="4.67621">
        <ele>369.28</ele>
        <time>2014-07-05T14:24:23Z</time>
      </trkpt>
      <trkpt lat="45.91719" lon="4.67612">
        <ele>369.28</ele>
        <time>2014-07-05T14:24:24Z</time>
      </trkpt>
      <trkpt lat="45.91721" lon="4.67603">
        <ele>368.32</ele>
        <time>2014-07-05T14:24:25Z</time>
      </trkpt>
      <trkpt lat="45.91726" lon="4.67578">
        <ele>364.96</ele>
        <time>2014-07-05T14:24:28Z</time>
      </trkpt>
      <trkpt lat="45.91728" lon="4.67569">
        <ele>364.48</ele>
        <time>2014-07-05T14:24:29Z</time>
      </trkpt>
      <trkpt lat="45.9173" lon="4.67561">
        <ele>363.52</ele>
        <time>2014-07-05T14:24:30Z</time>
      </trkpt>
      <trkpt lat="45.91736" lon="4.67544">
        <ele>361.11</ele>
        <time>2014-07-05T14:24:32Z</time>
      </trkpt>
      <trkpt lat="45.91739" lon="4.67535">
        <ele>359.67</ele>
        <time>2014-07-05T14:24:33Z</time>
      </trkpt>
      <trkpt lat="45.91747" lon="4.675">
        <ele>356.31</ele>
        <time>2014-07-05T14:24:37Z</time>
      </trkpt>
      <trkpt lat="45.91752" lon="4.67473">
        <ele>352.94</ele>
        <time>2014-07-05T14:24:40Z</time>
      </trkpt>
      <trkpt lat="45.91758" lon="4.6745">
        <ele>350.06</ele>
        <time>2014-07-05T14:24:43Z</time>
      </trkpt>
      <trkpt lat="45.91769" lon="4.6743">
        <ele>346.21</ele>
        <time>2014-07-05T14:24:46Z</time>
      </trkpt>
      <trkpt lat="45.91797" lon="4.67383">
        <ele>345.73</ele>
        <time>2014-07-05T14:24:52Z</time>
      </trkpt>
      <trkpt lat="45.91799" lon="4.67377">
        <ele>345.73</ele>
        <time>2014-07-05T14:24:53Z</time>
      </trkpt>
      <trkpt lat="45.91803" lon="4.67357">
        <ele>347.65</ele>
        <time>2014-07-05T14:24:57Z</time>
      </trkpt>
      <trkpt lat="45.91803" lon="4.67341">
        <ele>350.06</ele>
        <time>2014-07-05T14:25:01Z</time>
      </trkpt>
      <trkpt lat="45.91808" lon="4.67293">
        <ele>353.42</ele>
        <time>2014-07-05T14:25:14Z</time>
      </trkpt>
      <trkpt lat="45.91809" lon="4.6729">
        <ele>353.42</ele>
        <time>2014-07-05T14:25:15Z</time>
      </trkpt>
      <trkpt lat="45.91814" lon="4.67253">
        <ele>354.38</ele>
        <time>2014-07-05T14:25:26Z</time>
      </trkpt>
      <trkpt lat="45.91818" lon="4.67236">
        <ele>355.34</ele>
        <time>2014-07-05T14:25:33Z</time>
      </trkpt>
      <trkpt lat="45.91824" lon="4.67234">
        <ele>355.34</ele>
        <time>2014-07-05T14:25:37Z</time>
      </trkpt>
      <trkpt lat="45.91825" lon="4.67234">
        <ele>355.34</ele>
        <time>2014-07-05T14:25:38Z</time>
      </trkpt>
      <trkpt lat="45.91846" lon="4.67241">
        <ele>354.86</ele>
        <time>2014-07-05T14:25:51Z</time>
      </trkpt>
      <trkpt lat="45.91851" lon="4.67244">
        <ele>354.38</ele>
        <time>2014-07-05T14:26:04Z</time>
      </trkpt>
      <trkpt lat="45.91872" lon="4.67247">
        <ele>354.38</ele>
        <time>2014-07-05T14:26:12Z</time>
      </trkpt>
      <trkpt lat="45.91923" lon="4.67266">
        <ele>353.42</ele>
        <time>2014-07-05T14:26:24Z</time>
      </trkpt>
      <trkpt lat="45.92" lon="4.67297">
        <ele>351.98</ele>
        <time>2014-07-05T14:26:38Z</time>
      </trkpt>
      <trkpt lat="45.92043" lon="4.67317">
        <ele>349.1</ele>
        <time>2014-07-05T14:26:44Z</time>
      </trkpt>
      <trkpt lat="45.92066" lon="4.67329">
        <ele>347.17</ele>
        <time>2014-07-05T14:26:47Z</time>
      </trkpt>
      <trkpt lat="45.92074" lon="4.67331">
        <ele>347.17</ele>
        <time>2014-07-05T14:26:48Z</time>
      </trkpt>
      <trkpt lat="45.92082" lon="4.67332">
        <ele>346.69</ele>
        <time>2014-07-05T14:26:49Z</time>
      </trkpt>
      <trkpt lat="45.9209" lon="4.67332">
        <ele>345.73</ele>
        <time>2014-07-05T14:26:50Z</time>
      </trkpt>
      <trkpt lat="45.92099" lon="4.67332">
        <ele>345.25</ele>
        <time>2014-07-05T14:26:51Z</time>
      </trkpt>
      <trkpt lat="45.92158" lon="4.67327">
        <ele>341.89</ele>
        <time>2014-07-05T14:26:58Z</time>
      </trkpt>
      <trkpt lat="45.92195" lon="4.6733">
        <ele>339</ele>
        <time>2014-07-05T14:27:02Z</time>
      </trkpt>
      <trkpt lat="45.92232" lon="4.67339">
        <ele>335.64</ele>
        <time>2014-07-05T14:27:06Z</time>
      </trkpt>
      <trkpt lat="45.92266" lon="4.67349">
        <ele>332.27</ele>
        <time>2014-07-05T14:27:10Z</time>
      </trkpt>
      <trkpt lat="45.92302" lon="4.67358">
        <ele>328.91</ele>
        <time>2014-07-05T14:27:14Z</time>
      </trkpt>
      <trkpt lat="45.92329" lon="4.67365">
        <ele>325.54</ele>
        <time>2014-07-05T14:27:17Z</time>
      </trkpt>
      <trkpt lat="45.92346" lon="4.67369">
        <ele>324.1</ele>
        <time>2014-07-05T14:27:19Z</time>
      </trkpt>
      <trkpt lat="45.92373" lon="4.67375">
        <ele>321.22</ele>
        <time>2014-07-05T14:27:23Z</time>
      </trkpt>
      <trkpt lat="45.92385" lon="4.67374">
        <ele>319.3</ele>
        <time>2014-07-05T14:27:27Z</time>
      </trkpt>
      <trkpt lat="45.92387" lon="4.6737">
        <ele>319.3</ele>
        <time>2014-07-05T14:27:28Z</time>
      </trkpt>
      <trkpt lat="45.92404" lon="4.67312">
        <ele>318.33</ele>
        <time>2014-07-05T14:27:41Z</time>
      </trkpt>
      <trkpt lat="45.92411" lon="4.67289">
        <ele>319.78</ele>
        <time>2014-07-05T14:27:51Z</time>
      </trkpt>
      <trkpt lat="45.92418" lon="4.67264">
        <ele>322.66</ele>
        <time>2014-07-05T14:28:02Z</time>
      </trkpt>
      <trkpt lat="45.92426" lon="4.67239">
        <ele>325.06</ele>
        <time>2014-07-05T14:28:14Z</time>
      </trkpt>
      <trkpt lat="45.92434" lon="4.6721">
        <ele>327.95</ele>
        <time>2014-07-05T14:28:27Z</time>
      </trkpt>
      <trkpt lat="45.92444" lon="4.67177">
        <ele>330.83</ele>
        <time>2014-07-05T14:28:42Z</time>
      </trkpt>
      <trkpt lat="45.92455" lon="4.67145">
        <ele>333.23</ele>
        <time>2014-07-05T14:28:57Z</time>
      </trkpt>
      <trkpt lat="45.92465" lon="4.67123">
        <ele>335.16</ele>
        <time>2014-07-05T14:29:10Z</time>
      </trkpt>
      <trkpt lat="45.92479" lon="4.67104">
        <ele>337.08</ele>
        <time>2014-07-05T14:29:22Z</time>
      </trkpt>
      <trkpt lat="45.92486" lon="4.67085">
        <ele>339.48</ele>
        <time>2014-07-05T14:29:33Z</time>
      </trkpt>
      <trkpt lat="45.92487" lon="4.6706">
        <ele>341.41</ele>
        <time>2014-07-05T14:29:45Z</time>
      </trkpt>
      <trkpt lat="45.92483" lon="4.67036">
        <ele>343.33</ele>
        <time>2014-07-05T14:29:57Z</time>
      </trkpt>
      <trkpt lat="45.92479" lon="4.67012">
        <ele>344.77</ele>
        <time>2014-07-05T14:30:09Z</time>
      </trkpt>
      <trkpt lat="45.92478" lon="4.66991">
        <ele>347.65</ele>
        <time>2014-07-05T14:30:20Z</time>
      </trkpt>
      <trkpt lat="45.92472" lon="4.66962">
        <ele>348.62</ele>
        <time>2014-07-05T14:30:32Z</time>
      </trkpt>
      <trkpt lat="45.92468" lon="4.66939">
        <ele>350.06</ele>
        <time>2014-07-05T14:30:43Z</time>
      </trkpt>
      <trkpt lat="45.92464" lon="4.66916">
        <ele>351.5</ele>
        <time>2014-07-05T14:30:54Z</time>
      </trkpt>
      <trkpt lat="45.92461" lon="4.66892">
        <ele>352.94</ele>
        <time>2014-07-05T14:31:05Z</time>
      </trkpt>
      <trkpt lat="45.9246" lon="4.66867">
        <ele>353.42</ele>
        <time>2014-07-05T14:31:16Z</time>
      </trkpt>
      <trkpt lat="45.9246" lon="4.66837">
        <ele>353.9</ele>
        <time>2014-07-05T14:31:28Z</time>
      </trkpt>
      <trkpt lat="45.92456" lon="4.668">
        <ele>354.38</ele>
        <time>2014-07-05T14:31:41Z</time>
      </trkpt>
      <trkpt lat="45.92455" lon="4.66751">
        <ele>354.86</ele>
        <time>2014-07-05T14:31:57Z</time>
      </trkpt>
      <trkpt lat="45.92457" lon="4.66713">
        <ele>355.83</ele>
        <time>2014-07-05T14:32:10Z</time>
      </trkpt>
      <trkpt lat="45.9246" lon="4.66665">
        <ele>356.79</ele>
        <time>2014-07-05T14:32:25Z</time>
      </trkpt>
      <trkpt lat="45.92461" lon="4.66631">
        <ele>357.27</ele>
        <time>2014-07-05T14:32:36Z</time>
      </trkpt>
      <trkpt lat="45.92462" lon="4.66629">
        <ele>357.27</ele>
        <time>2014-07-05T14:32:37Z</time>
      </trkpt>
      <trkpt lat="45.92463" lon="4.66628">
        <ele>356.79</ele>
        <time>2014-07-05T14:32:38Z</time>
      </trkpt>
      <trkpt lat="45.92464" lon="4.66627">
        <ele>357.27</ele>
        <time>2014-07-05T14:32:39Z</time>
      </trkpt>
      <trkpt lat="45.92466" lon="4.66627">
        <ele>357.27</ele>
        <time>2014-07-05T14:32:40Z</time>
      </trkpt>
      <trkpt lat="45.92468" lon="4.66628">
        <ele>356.79</ele>
        <time>2014-07-05T14:32:41Z</time>
      </trkpt>
      <trkpt lat="45.9247" lon="4.66628">
        <ele>356.79</ele>
        <time>2014-07-05T14:32:42Z</time>
      </trkpt>
      <trkpt lat="45.92472" lon="4.66629">
        <ele>356.79</ele>
        <time>2014-07-05T14:32:43Z</time>
      </trkpt>
      <trkpt lat="45.92501" lon="4.66651">
        <ele>357.27</ele>
        <time>2014-07-05T14:32:54Z</time>
      </trkpt>
      <trkpt lat="45.92541" lon="4.66688">
        <ele>355.34</ele>
        <time>2014-07-05T14:33:06Z</time>
      </trkpt>
      <trkpt lat="45.92581" lon="4.66714">
        <ele>354.38</ele>
        <time>2014-07-05T14:33:14Z</time>
      </trkpt>
      <trkpt lat="45.92626" lon="4.66739">
        <ele>351.02</ele>
        <time>2014-07-05T14:33:23Z</time>
      </trkpt>
      <trkpt lat="45.9265" lon="4.6674">
        <ele>350.06</ele>
        <time>2014-07-05T14:33:31Z</time>
      </trkpt>
      <trkpt lat="45.92694" lon="4.66725">
        <ele>349.58</ele>
        <time>2014-07-05T14:33:43Z</time>
      </trkpt>
      <trkpt lat="45.92699" lon="4.66724">
        <ele>348.62</ele>
        <time>2014-07-05T14:33:44Z</time>
      </trkpt>
      <trkpt lat="45.92751" lon="4.66724">
        <ele>347.65</ele>
        <time>2014-07-05T14:33:55Z</time>
      </trkpt>
      <trkpt lat="45.92768" lon="4.66729">
        <ele>347.65</ele>
        <time>2014-07-05T14:33:59Z</time>
      </trkpt>
      <trkpt lat="45.92772" lon="4.66732">
        <ele>348.13</ele>
        <time>2014-07-05T14:34:00Z</time>
      </trkpt>
      <trkpt lat="45.92781" lon="4.66738">
        <ele>347.65</ele>
        <time>2014-07-05T14:34:02Z</time>
      </trkpt>
      <trkpt lat="45.92785" lon="4.66743">
        <ele>347.17</ele>
        <time>2014-07-05T14:34:03Z</time>
      </trkpt>
      <trkpt lat="45.92793" lon="4.66752">
        <ele>347.65</ele>
        <time>2014-07-05T14:34:05Z</time>
      </trkpt>
      <trkpt lat="45.92807" lon="4.66769">
        <ele>346.69</ele>
        <time>2014-07-05T14:34:09Z</time>
      </trkpt>
      <trkpt lat="45.92852" lon="4.668">
        <ele>345.25</ele>
        <time>2014-07-05T14:34:20Z</time>
      </trkpt>
      <trkpt lat="45.92857" lon="4.66802">
        <ele>345.25</ele>
        <time>2014-07-05T14:34:21Z</time>
      </trkpt>
      <trkpt lat="45.92861" lon="4.66805">
        <ele>344.77</ele>
        <time>2014-07-05T14:34:22Z</time>
      </trkpt>
      <trkpt lat="45.92895" lon="4.66831">
        <ele>344.29</ele>
        <time>2014-07-05T14:34:30Z</time>
      </trkpt>
      <trkpt lat="45.92899" lon="4.66835">
        <ele>343.81</ele>
        <time>2014-07-05T14:34:31Z</time>
      </trkpt>
      <trkpt lat="45.92928" lon="4.66886">
        <ele>343.33</ele>
        <time>2014-07-05T14:34:41Z</time>
      </trkpt>
      <trkpt lat="45.9296" lon="4.66954">
        <ele>340.92</ele>
        <time>2014-07-05T14:34:52Z</time>
      </trkpt>
      <trkpt lat="45.92972" lon="4.66986">
        <ele>340.92</ele>
        <time>2014-07-05T14:34:57Z</time>
      </trkpt>
      <trkpt lat="45.92973" lon="4.66992">
        <ele>340.92</ele>
        <time>2014-07-05T14:34:58Z</time>
      </trkpt>
      <trkpt lat="45.92976" lon="4.66996">
        <ele>340.44</ele>
        <time>2014-07-05T14:34:59Z</time>
      </trkpt>
      <trkpt lat="45.92979" lon="4.66999">
        <ele>340.44</ele>
        <time>2014-07-05T14:35:00Z</time>
      </trkpt>
      <trkpt lat="45.92983" lon="4.67">
        <ele>340.44</ele>
        <time>2014-07-05T14:35:01Z</time>
      </trkpt>
      <trkpt lat="45.92988" lon="4.67001">
        <ele>340.44</ele>
        <time>2014-07-05T14:35:02Z</time>
      </trkpt>
      <trkpt lat="45.92992" lon="4.67001">
        <ele>340.44</ele>
        <time>2014-07-05T14:35:03Z</time>
      </trkpt>
      <trkpt lat="45.92996" lon="4.67001">
        <ele>339.48</ele>
        <time>2014-07-05T14:35:04Z</time>
      </trkpt>
      <trkpt lat="45.93047" lon="4.67002">
        <ele>338.52</ele>
        <time>2014-07-05T14:35:14Z</time>
      </trkpt>
      <trkpt lat="45.93057" lon="4.67">
        <ele>338.04</ele>
        <time>2014-07-05T14:35:16Z</time>
      </trkpt>
      <trkpt lat="45.93079" lon="4.66996">
        <ele>337.56</ele>
        <time>2014-07-05T14:35:20Z</time>
      </trkpt>
      <trkpt lat="45.9309" lon="4.66998">
        <ele>337.08</ele>
        <time>2014-07-05T14:35:22Z</time>
      </trkpt>
      <trkpt lat="45.93105" lon="4.67002">
        <ele>336.6</ele>
        <time>2014-07-05T14:35:25Z</time>
      </trkpt>
      <trkpt lat="45.93156" lon="4.67025">
        <ele>335.64</ele>
        <time>2014-07-05T14:35:37Z</time>
      </trkpt>
      <trkpt lat="45.93169" lon="4.67024">
        <ele>334.68</ele>
        <time>2014-07-05T14:35:45Z</time>
      </trkpt>
      <trkpt lat="45.93169" lon="4.67023">
        <ele>334.68</ele>
        <time>2014-07-05T14:36:08Z</time>
      </trkpt>
      <trkpt lat="45.9317" lon="4.67022">
        <ele>334.68</ele>
        <time>2014-07-05T14:36:19Z</time>
      </trkpt>
      <trkpt lat="45.9317" lon="4.67021">
        <ele>335.16</ele>
        <time>2014-07-05T14:36:20Z</time>
      </trkpt>
      <trkpt lat="45.93171" lon="4.67019">
        <ele>334.68</ele>
        <time>2014-07-05T14:36:21Z</time>
      </trkpt>
      <trkpt lat="45.93172" lon="4.67016">
        <ele>335.16</ele>
        <time>2014-07-05T14:36:22Z</time>
      </trkpt>
      <trkpt lat="45.93171" lon="4.67012">
        <ele>335.16</ele>
        <time>2014-07-05T14:36:23Z</time>
      </trkpt>
      <trkpt lat="45.9317" lon="4.67008">
        <ele>335.16</ele>
        <time>2014-07-05T14:36:24Z</time>
      </trkpt>
      <trkpt lat="45.9316" lon="4.66957">
        <ele>337.08</ele>
        <time>2014-07-05T14:36:34Z</time>
      </trkpt>
      <trkpt lat="45.93152" lon="4.66883">
        <ele>339</ele>
        <time>2014-07-05T14:36:48Z</time>
      </trkpt>
      <trkpt lat="45.93147" lon="4.66816">
        <ele>339.48</ele>
        <time>2014-07-05T14:37:01Z</time>
      </trkpt>
      <trkpt lat="45.93142" lon="4.66745">
        <ele>339.96</ele>
        <time>2014-07-05T14:37:15Z</time>
      </trkpt>
      <trkpt lat="45.93134" lon="4.66695">
        <ele>338.52</ele>
        <time>2014-07-05T14:37:27Z</time>
      </trkpt>
      <trkpt lat="45.93135" lon="4.66685">
        <ele>338.04</ele>
        <time>2014-07-05T14:37:32Z</time>
      </trkpt>
      <trkpt lat="45.93136" lon="4.66684">
        <ele>338.52</ele>
        <time>2014-07-05T14:37:33Z</time>
      </trkpt>
      <trkpt lat="45.93137" lon="4.66684">
        <ele>338.04</ele>
        <time>2014-07-05T14:37:34Z</time>
      </trkpt>
      <trkpt lat="45.93138" lon="4.66685">
        <ele>338.04</ele>
        <time>2014-07-05T14:37:35Z</time>
      </trkpt>
      <trkpt lat="45.9314" lon="4.66685">
        <ele>338.04</ele>
        <time>2014-07-05T14:37:36Z</time>
      </trkpt>
      <trkpt lat="45.93157" lon="4.66701">
        <ele>338.04</ele>
        <time>2014-07-05T14:37:46Z</time>
      </trkpt>
      <trkpt lat="45.93178" lon="4.66708">
        <ele>338.04</ele>
        <time>2014-07-05T14:37:54Z</time>
      </trkpt>
      <trkpt lat="45.93221" lon="4.66714">
        <ele>336.6</ele>
        <time>2014-07-05T14:38:06Z</time>
      </trkpt>
      <trkpt lat="45.93269" lon="4.66721">
        <ele>335.64</ele>
        <time>2014-07-05T14:38:18Z</time>
      </trkpt>
      <trkpt lat="45.93319" lon="4.66729">
        <ele>333.71</ele>
        <time>2014-07-05T14:38:31Z</time>
      </trkpt>
      <trkpt lat="45.93369" lon="4.66738">
        <ele>331.79</ele>
        <time>2014-07-05T14:38:44Z</time>
      </trkpt>
      <trkpt lat="45.93381" lon="4.66737">
        <ele>331.79</ele>
        <time>2014-07-05T14:38:48Z</time>
      </trkpt>
      <trkpt lat="45.93384" lon="4.66732">
        <ele>331.79</ele>
        <time>2014-07-05T14:38:49Z</time>
      </trkpt>
      <trkpt lat="45.93394" lon="4.66712">
        <ele>330.35</ele>
        <time>2014-07-05T14:38:53Z</time>
      </trkpt>
      <trkpt lat="45.93396" lon="4.66706">
        <ele>329.87</ele>
        <time>2014-07-05T14:38:54Z</time>
      </trkpt>
      <trkpt lat="45.93398" lon="4.66699">
        <ele>330.35</ele>
        <time>2014-07-05T14:38:55Z</time>
      </trkpt>
      <trkpt lat="45.934" lon="4.66693">
        <ele>329.39</ele>
        <time>2014-07-05T14:38:56Z</time>
      </trkpt>
      <trkpt lat="45.93401" lon="4.66685">
        <ele>329.39</ele>
        <time>2014-07-05T14:38:57Z</time>
      </trkpt>
      <trkpt lat="45.93406" lon="4.66664">
        <ele>328.43</ele>
        <time>2014-07-05T14:39:00Z</time>
      </trkpt>
      <trkpt lat="45.93409" lon="4.66657">
        <ele>328.43</ele>
        <time>2014-07-05T14:39:01Z</time>
      </trkpt>
      <trkpt lat="45.93421" lon="4.66622">
        <ele>326.99</ele>
        <time>2014-07-05T14:39:06Z</time>
      </trkpt>
      <trkpt lat="45.93423" lon="4.66615">
        <ele>326.5</ele>
        <time>2014-07-05T14:39:07Z</time>
      </trkpt>
      <trkpt lat="45.93436" lon="4.66574">
        <ele>324.58</ele>
        <time>2014-07-05T14:39:13Z</time>
      </trkpt>
      <trkpt lat="45.93453" lon="4.6653">
        <ele>323.62</ele>
        <time>2014-07-05T14:39:20Z</time>
      </trkpt>
      <trkpt lat="45.93455" lon="4.66523">
        <ele>323.62</ele>
        <time>2014-07-05T14:39:21Z</time>
      </trkpt>
      <trkpt lat="45.93457" lon="4.66511">
        <ele>323.62</ele>
        <time>2014-07-05T14:39:23Z</time>
      </trkpt>
      <trkpt lat="45.93458" lon="4.66506">
        <ele>324.1</ele>
        <time>2014-07-05T14:39:24Z</time>
      </trkpt>
      <trkpt lat="45.93459" lon="4.66501">
        <ele>323.62</ele>
        <time>2014-07-05T14:39:25Z</time>
      </trkpt>
      <trkpt lat="45.93461" lon="4.66489">
        <ele>323.62</ele>
        <time>2014-07-05T14:39:27Z</time>
      </trkpt>
      <trkpt lat="45.93463" lon="4.66483">
        <ele>323.14</ele>
        <time>2014-07-05T14:39:28Z</time>
      </trkpt>
      <trkpt lat="45.93465" lon="4.66477">
        <ele>323.62</ele>
        <time>2014-07-05T14:39:29Z</time>
      </trkpt>
      <trkpt lat="45.93469" lon="4.66465">
        <ele>323.14</ele>
        <time>2014-07-05T14:39:31Z</time>
      </trkpt>
      <trkpt lat="45.93501" lon="4.66404">
        <ele>322.66</ele>
        <time>2014-07-05T14:39:43Z</time>
      </trkpt>
      <trkpt lat="45.93518" lon="4.66379">
        <ele>322.66</ele>
        <time>2014-07-05T14:39:51Z</time>
      </trkpt>
      <trkpt lat="45.9354" lon="4.66354">
        <ele>322.18</ele>
        <time>2014-07-05T14:40:00Z</time>
      </trkpt>
      <trkpt lat="45.93546" lon="4.66342">
        <ele>321.7</ele>
        <time>2014-07-05T14:40:04Z</time>
      </trkpt>
      <trkpt lat="45.93548" lon="4.6634">
        <ele>321.7</ele>
        <time>2014-07-05T14:40:05Z</time>
      </trkpt>
      <trkpt lat="45.93551" lon="4.66339">
        <ele>321.7</ele>
        <time>2014-07-05T14:40:06Z</time>
      </trkpt>
      <trkpt lat="45.93563" lon="4.66337">
        <ele>321.7</ele>
        <time>2014-07-05T14:40:12Z</time>
      </trkpt>
      <trkpt lat="45.93563" lon="4.66336">
        <ele>322.18</ele>
        <time>2014-07-05T14:40:24Z</time>
      </trkpt>
      <trkpt lat="45.93563" lon="4.66334">
        <ele>321.7</ele>
        <time>2014-07-05T14:40:28Z</time>
      </trkpt>
      <trkpt lat="45.93566" lon="4.66329">
        <ele>321.7</ele>
        <time>2014-07-05T14:40:40Z</time>
      </trkpt>
      <trkpt lat="45.93567" lon="4.66329">
        <ele>321.7</ele>
        <time>2014-07-05T14:40:52Z</time>
      </trkpt>
      <trkpt lat="45.93567" lon="4.66323">
        <ele>321.7</ele>
        <time>2014-07-05T14:40:54Z</time>
      </trkpt>
      <trkpt lat="45.93567" lon="4.6632">
        <ele>321.7</ele>
        <time>2014-07-05T14:40:55Z</time>
      </trkpt>
      <trkpt lat="45.93566" lon="4.66317">
        <ele>322.18</ele>
        <time>2014-07-05T14:40:56Z</time>
      </trkpt>
      <trkpt lat="45.93565" lon="4.66313">
        <ele>322.18</ele>
        <time>2014-07-05T14:40:57Z</time>
      </trkpt>
      <trkpt lat="45.93554" lon="4.66262">
        <ele>322.66</ele>
        <time>2014-07-05T14:41:07Z</time>
      </trkpt>
      <trkpt lat="45.93541" lon="4.66213">
        <ele>322.18</ele>
        <time>2014-07-05T14:41:18Z</time>
      </trkpt>
      <trkpt lat="45.93537" lon="4.66204">
        <ele>321.7</ele>
        <time>2014-07-05T14:41:20Z</time>
      </trkpt>
      <trkpt lat="45.93535" lon="4.66198">
        <ele>321.7</ele>
        <time>2014-07-05T14:41:21Z</time>
      </trkpt>
      <trkpt lat="45.93531" lon="4.66186">
        <ele>321.22</ele>
        <time>2014-07-05T14:41:23Z</time>
      </trkpt>
      <trkpt lat="45.93515" lon="4.66154">
        <ele>319.3</ele>
        <time>2014-07-05T14:41:29Z</time>
      </trkpt>
      <trkpt lat="45.93491" lon="4.66091">
        <ele>316.41</ele>
        <time>2014-07-05T14:41:40Z</time>
      </trkpt>
      <trkpt lat="45.93477" lon="4.66039">
        <ele>313.53</ele>
        <time>2014-07-05T14:41:49Z</time>
      </trkpt>
      <trkpt lat="45.93466" lon="4.66004">
        <ele>313.05</ele>
        <time>2014-07-05T14:41:55Z</time>
      </trkpt>
      <trkpt lat="45.93457" lon="4.65963">
        <ele>312.57</ele>
        <time>2014-07-05T14:42:02Z</time>
      </trkpt>
      <trkpt lat="45.93455" lon="4.65944">
        <ele>312.57</ele>
        <time>2014-07-05T14:42:05Z</time>
      </trkpt>
      <trkpt lat="45.93455" lon="4.65938">
        <ele>313.05</ele>
        <time>2014-07-05T14:42:06Z</time>
      </trkpt>
      <trkpt lat="45.93455" lon="4.65866">
        <ele>314.97</ele>
        <time>2014-07-05T14:42:17Z</time>
      </trkpt>
      <trkpt lat="45.93459" lon="4.6582">
        <ele>317.37</ele>
        <time>2014-07-05T14:42:28Z</time>
      </trkpt>
      <trkpt lat="45.93463" lon="4.65782">
        <ele>319.3</ele>
        <time>2014-07-05T14:42:39Z</time>
      </trkpt>
      <trkpt lat="45.93464" lon="4.65729">
        <ele>320.26</ele>
        <time>2014-07-05T14:42:53Z</time>
      </trkpt>
      <trkpt lat="45.93471" lon="4.65678">
        <ele>320.74</ele>
        <time>2014-07-05T14:43:05Z</time>
      </trkpt>
      <trkpt lat="45.93483" lon="4.65627">
        <ele>321.7</ele>
        <time>2014-07-05T14:43:17Z</time>
      </trkpt>
      <trkpt lat="45.93485" lon="4.65608">
        <ele>322.66</ele>
        <time>2014-07-05T14:43:26Z</time>
      </trkpt>
      <trkpt lat="45.93484" lon="4.65592">
        <ele>322.66</ele>
        <time>2014-07-05T14:43:39Z</time>
      </trkpt>
      <trkpt lat="45.93481" lon="4.65539">
        <ele>322.18</ele>
        <time>2014-07-05T14:43:49Z</time>
      </trkpt>
      <trkpt lat="45.93481" lon="4.65526">
        <ele>321.7</ele>
        <time>2014-07-05T14:43:51Z</time>
      </trkpt>
      <trkpt lat="45.93479" lon="4.65466">
        <ele>322.18</ele>
        <time>2014-07-05T14:44:01Z</time>
      </trkpt>
      <trkpt lat="45.93481" lon="4.65432">
        <ele>323.14</ele>
        <time>2014-07-05T14:44:08Z</time>
      </trkpt>
      <trkpt lat="45.93457" lon="4.65403">
        <ele>324.1</ele>
        <time>2014-07-05T14:44:21Z</time>
      </trkpt>
      <trkpt lat="45.93427" lon="4.65359">
        <ele>325.06</ele>
        <time>2014-07-05T14:44:35Z</time>
      </trkpt>
      <trkpt lat="45.93402" lon="4.65324">
        <ele>325.54</ele>
        <time>2014-07-05T14:44:46Z</time>
      </trkpt>
      <trkpt lat="45.93369" lon="4.65281">
        <ele>326.02</ele>
        <time>2014-07-05T14:44:58Z</time>
      </trkpt>
      <trkpt lat="45.93319" lon="4.65212">
        <ele>326.02</ele>
        <time>2014-07-05T14:45:15Z</time>
      </trkpt>
      <trkpt lat="45.933" lon="4.65194">
        <ele>326.5</ele>
        <time>2014-07-05T14:45:21Z</time>
      </trkpt>
      <trkpt lat="45.93297" lon="4.65195">
        <ele>326.5</ele>
        <time>2014-07-05T14:45:22Z</time>
      </trkpt>
      <trkpt lat="45.93293" lon="4.65197">
        <ele>326.02</ele>
        <time>2014-07-05T14:45:23Z</time>
      </trkpt>
      <trkpt lat="45.9329" lon="4.65199">
        <ele>326.02</ele>
        <time>2014-07-05T14:45:24Z</time>
      </trkpt>
      <trkpt lat="45.93287" lon="4.65202">
        <ele>326.5</ele>
        <time>2014-07-05T14:45:25Z</time>
      </trkpt>
      <trkpt lat="45.93284" lon="4.65205">
        <ele>326.02</ele>
        <time>2014-07-05T14:45:26Z</time>
      </trkpt>
      <trkpt lat="45.93247" lon="4.6523">
        <ele>325.54</ele>
        <time>2014-07-05T14:45:38Z</time>
      </trkpt>
      <trkpt lat="45.93201" lon="4.65237">
        <ele>326.5</ele>
        <time>2014-07-05T14:45:50Z</time>
      </trkpt>
      <trkpt lat="45.93136" lon="4.65226">
        <ele>326.5</ele>
        <time>2014-07-05T14:46:05Z</time>
      </trkpt>
      <trkpt lat="45.93107" lon="4.65219">
        <ele>326.5</ele>
        <time>2014-07-05T14:46:12Z</time>
      </trkpt>
      <trkpt lat="45.93063" lon="4.65223">
        <ele>326.5</ele>
        <time>2014-07-05T14:46:22Z</time>
      </trkpt>
      <trkpt lat="45.93059" lon="4.65223">
        <ele>326.99</ele>
        <time>2014-07-05T14:46:23Z</time>
      </trkpt>
      <trkpt lat="45.93038" lon="4.65217">
        <ele>326.02</ele>
        <time>2014-07-05T14:46:28Z</time>
      </trkpt>
      <trkpt lat="45.93034" lon="4.65214">
        <ele>326.5</ele>
        <time>2014-07-05T14:46:29Z</time>
      </trkpt>
      <trkpt lat="45.9303" lon="4.65211">
        <ele>326.02</ele>
        <time>2014-07-05T14:46:30Z</time>
      </trkpt>
      <trkpt lat="45.9297" lon="4.65179">
        <ele>326.02</ele>
        <time>2014-07-05T14:46:44Z</time>
      </trkpt>
      <trkpt lat="45.92928" lon="4.65171">
        <ele>326.99</ele>
        <time>2014-07-05T14:46:53Z</time>
      </trkpt>
      <trkpt lat="45.92877" lon="4.65191">
        <ele>326.02</ele>
        <time>2014-07-05T14:47:05Z</time>
      </trkpt>
      <trkpt lat="45.92865" lon="4.65197">
        <ele>325.54</ele>
        <time>2014-07-05T14:47:08Z</time>
      </trkpt>
      <trkpt lat="45.9282" lon="4.65229">
        <ele>325.06</ele>
        <time>2014-07-05T14:47:19Z</time>
      </trkpt>
      <trkpt lat="45.92776" lon="4.65251">
        <ele>324.1</ele>
        <time>2014-07-05T14:47:28Z</time>
      </trkpt>
      <trkpt lat="45.92752" lon="4.65255">
        <ele>323.62</ele>
        <time>2014-07-05T14:47:36Z</time>
      </trkpt>
      <trkpt lat="45.92736" lon="4.65259">
        <ele>323.14</ele>
        <time>2014-07-05T14:47:43Z</time>
      </trkpt>
      <trkpt lat="45.92734" lon="4.65258">
        <ele>322.66</ele>
        <time>2014-07-05T14:47:44Z</time>
      </trkpt>
      <trkpt lat="45.92732" lon="4.65258">
        <ele>323.14</ele>
        <time>2014-07-05T14:47:45Z</time>
      </trkpt>
      <trkpt lat="45.92701" lon="4.65264">
        <ele>322.66</ele>
        <time>2014-07-05T14:47:54Z</time>
      </trkpt>
      <trkpt lat="45.92696" lon="4.65264">
        <ele>322.66</ele>
        <time>2014-07-05T14:47:55Z</time>
      </trkpt>
      <trkpt lat="45.92692" lon="4.65265">
        <ele>322.66</ele>
        <time>2014-07-05T14:47:56Z</time>
      </trkpt>
      <trkpt lat="45.92644" lon="4.65274">
        <ele>321.7</ele>
        <time>2014-07-05T14:48:06Z</time>
      </trkpt>
      <trkpt lat="45.92591" lon="4.65282">
        <ele>319.78</ele>
        <time>2014-07-05T14:48:17Z</time>
      </trkpt>
      <trkpt lat="45.92564" lon="4.65289">
        <ele>319.3</ele>
        <time>2014-07-05T14:48:24Z</time>
      </trkpt>
      <trkpt lat="45.92535" lon="4.65302">
        <ele>318.33</ele>
        <time>2014-07-05T14:48:30Z</time>
      </trkpt>
      <trkpt lat="45.92518" lon="4.65307">
        <ele>318.33</ele>
        <time>2014-07-05T14:48:33Z</time>
      </trkpt>
      <trkpt lat="45.92455" lon="4.65301">
        <ele>317.37</ele>
        <time>2014-07-05T14:48:45Z</time>
      </trkpt>
      <trkpt lat="45.92404" lon="4.65298">
        <ele>316.89</ele>
        <time>2014-07-05T14:48:55Z</time>
      </trkpt>
      <trkpt lat="45.92345" lon="4.65316">
        <ele>315.93</ele>
        <time>2014-07-05T14:49:07Z</time>
      </trkpt>
      <trkpt lat="45.92284" lon="4.65322">
        <ele>314.97</ele>
        <time>2014-07-05T14:49:18Z</time>
      </trkpt>
      <trkpt lat="45.92261" lon="4.65318">
        <ele>314.49</ele>
        <time>2014-07-05T14:49:22Z</time>
      </trkpt>
      <trkpt lat="45.9221" lon="4.65296">
        <ele>312.57</ele>
        <time>2014-07-05T14:49:31Z</time>
      </trkpt>
      <trkpt lat="45.92162" lon="4.65284">
        <ele>312.57</ele>
        <time>2014-07-05T14:49:39Z</time>
      </trkpt>
      <trkpt lat="45.92151" lon="4.65281">
        <ele>312.57</ele>
        <time>2014-07-05T14:49:41Z</time>
      </trkpt>
      <trkpt lat="45.92087" lon="4.65263">
        <ele>313.53</ele>
        <time>2014-07-05T14:49:53Z</time>
      </trkpt>
      <trkpt lat="45.92032" lon="4.65233">
        <ele>314.01</ele>
        <time>2014-07-05T14:50:05Z</time>
      </trkpt>
      <trkpt lat="45.92002" lon="4.65245">
        <ele>312.57</ele>
        <time>2014-07-05T14:53:15Z</time>
      </trkpt>
      <trkpt lat="45.91983" lon="4.65305">
        <ele>310.64</ele>
        <time>2014-07-05T14:53:25Z</time>
      </trkpt>
      <trkpt lat="45.91973" lon="4.65369">
        <ele>307.28</ele>
        <time>2014-07-05T14:53:32Z</time>
      </trkpt>
      <trkpt lat="45.9197" lon="4.65404">
        <ele>304.39</ele>
        <time>2014-07-05T14:53:35Z</time>
      </trkpt>
      <trkpt lat="45.91965" lon="4.65439">
        <ele>302.95</ele>
        <time>2014-07-05T14:53:38Z</time>
      </trkpt>
      <trkpt lat="45.91952" lon="4.65479">
        <ele>303.43</ele>
        <time>2014-07-05T14:53:44Z</time>
      </trkpt>
      <trkpt lat="45.9195" lon="4.65477">
        <ele>303.91</ele>
        <time>2014-07-05T14:53:53Z</time>
      </trkpt>
      <trkpt lat="45.91949" lon="4.65482">
        <ele>303.91</ele>
        <time>2014-07-05T14:54:05Z</time>
      </trkpt>
      <trkpt lat="45.91948" lon="4.65484">
        <ele>303.91</ele>
        <time>2014-07-05T14:54:06Z</time>
      </trkpt>
      <trkpt lat="45.91947" lon="4.65486">
        <ele>304.39</ele>
        <time>2014-07-05T14:54:07Z</time>
      </trkpt>
      <trkpt lat="45.91946" lon="4.65489">
        <ele>303.91</ele>
        <time>2014-07-05T14:54:08Z</time>
      </trkpt>
      <trkpt lat="45.91947" lon="4.6549">
        <ele>303.91</ele>
        <time>2014-07-05T14:54:09Z</time>
      </trkpt>
      <trkpt lat="45.91946" lon="4.65491">
        <ele>303.91</ele>
        <time>2014-07-05T14:54:19Z</time>
      </trkpt>
      <trkpt lat="45.91946" lon="4.65492">
        <ele>303.43</ele>
        <time>2014-07-05T14:54:34Z</time>
      </trkpt>
      <trkpt lat="45.91946" lon="4.65493">
        <ele>304.88</ele>
        <time>2014-07-05T14:54:47Z</time>
      </trkpt>
      <trkpt lat="45.91946" lon="4.6549">
        <ele>301.51</ele>
        <time>2014-07-05T14:54:58Z</time>
      </trkpt>
      <trkpt lat="45.91946" lon="4.6549">
        <ele>305.84</ele>
        <time>2014-07-05T14:54:59Z</time>
      </trkpt>
      <trkpt lat="45.91947" lon="4.65491">
        <ele>303.91</ele>
        <time>2014-07-05T14:55:20Z</time>
      </trkpt>
      <trkpt lat="45.91946" lon="4.65492">
        <ele>304.39</ele>
        <time>2014-07-05T14:55:40Z</time>
      </trkpt>
      <trkpt lat="45.91946" lon="4.65493">
        <ele>303.91</ele>
        <time>2014-07-05T14:55:52Z</time>
      </trkpt>
      <trkpt lat="45.91945" lon="4.65494">
        <ele>304.39</ele>
        <time>2014-07-05T14:55:53Z</time>
      </trkpt>
      <trkpt lat="45.91945" lon="4.65496">
        <ele>303.91</ele>
        <time>2014-07-05T14:55:54Z</time>
      </trkpt>
      <trkpt lat="45.91945" lon="4.65498">
        <ele>304.39</ele>
        <time>2014-07-05T14:55:55Z</time>
      </trkpt>
      <trkpt lat="45.91944" lon="4.655">
        <ele>304.39</ele>
        <time>2014-07-05T14:55:56Z</time>
      </trkpt>
      <trkpt lat="45.91942" lon="4.65502">
        <ele>304.88</ele>
        <time>2014-07-05T14:55:57Z</time>
      </trkpt>
      <trkpt lat="45.9194" lon="4.65505">
        <ele>304.88</ele>
        <time>2014-07-05T14:55:58Z</time>
      </trkpt>
      <trkpt lat="45.91939" lon="4.65507">
        <ele>305.36</ele>
        <time>2014-07-05T14:55:59Z</time>
      </trkpt>
      <trkpt lat="45.91937" lon="4.65512">
        <ele>306.32</ele>
        <time>2014-07-05T14:56:01Z</time>
      </trkpt>
      <trkpt lat="45.91922" lon="4.65541">
        <ele>308.72</ele>
        <time>2014-07-05T14:56:12Z</time>
      </trkpt>
      <trkpt lat="45.91894" lon="4.65549">
        <ele>309.68</ele>
        <time>2014-07-05T14:56:23Z</time>
      </trkpt>
      <trkpt lat="45.91853" lon="4.65557">
        <ele>311.6</ele>
        <time>2014-07-05T14:56:36Z</time>
      </trkpt>
      <trkpt lat="45.91809" lon="4.65566">
        <ele>313.05</ele>
        <time>2014-07-05T14:56:50Z</time>
      </trkpt>
      <trkpt lat="45.91763" lon="4.65576">
        <ele>314.49</ele>
        <time>2014-07-05T14:57:05Z</time>
      </trkpt>
      <trkpt lat="45.9175" lon="4.65603">
        <ele>315.93</ele>
        <time>2014-07-05T14:57:13Z</time>
      </trkpt>
      <trkpt lat="45.91742" lon="4.65631">
        <ele>318.81</ele>
        <time>2014-07-05T14:57:23Z</time>
      </trkpt>
      <trkpt lat="45.91735" lon="4.65667">
        <ele>322.18</ele>
        <time>2014-07-05T14:57:37Z</time>
      </trkpt>
      <trkpt lat="45.91726" lon="4.65698">
        <ele>323.62</ele>
        <time>2014-07-05T14:57:50Z</time>
      </trkpt>
      <trkpt lat="45.9171" lon="4.65729">
        <ele>325.54</ele>
        <time>2014-07-05T14:58:03Z</time>
      </trkpt>
      <trkpt lat="45.91689" lon="4.65765">
        <ele>326.99</ele>
        <time>2014-07-05T14:58:18Z</time>
      </trkpt>
      <trkpt lat="45.9167" lon="4.65795">
        <ele>327.95</ele>
        <time>2014-07-05T14:58:31Z</time>
      </trkpt>
      <trkpt lat="45.91653" lon="4.65825">
        <ele>329.39</ele>
        <time>2014-07-05T14:58:44Z</time>
      </trkpt>
      <trkpt lat="45.91634" lon="4.65867">
        <ele>331.31</ele>
        <time>2014-07-05T14:59:01Z</time>
      </trkpt>
      <trkpt lat="45.91621" lon="4.65903">
        <ele>332.75</ele>
        <time>2014-07-05T14:59:14Z</time>
      </trkpt>
      <trkpt lat="45.91606" lon="4.65938">
        <ele>334.2</ele>
        <time>2014-07-05T14:59:28Z</time>
      </trkpt>
      <trkpt lat="45.91592" lon="4.65963">
        <ele>336.12</ele>
        <time>2014-07-05T14:59:39Z</time>
      </trkpt>
      <trkpt lat="45.91573" lon="4.65989">
        <ele>338.04</ele>
        <time>2014-07-05T14:59:54Z</time>
      </trkpt>
      <trkpt lat="45.91558" lon="4.66012">
        <ele>339.96</ele>
        <time>2014-07-05T15:00:07Z</time>
      </trkpt>
      <trkpt lat="45.91541" lon="4.66038">
        <ele>342.37</ele>
        <time>2014-07-05T15:00:22Z</time>
      </trkpt>
      <trkpt lat="45.91534" lon="4.66051">
        <ele>343.81</ele>
        <time>2014-07-05T15:00:30Z</time>
      </trkpt>
      <trkpt lat="45.91532" lon="4.66053">
        <ele>343.81</ele>
        <time>2014-07-05T15:00:31Z</time>
      </trkpt>
      <trkpt lat="45.91531" lon="4.66054">
        <ele>344.29</ele>
        <time>2014-07-05T15:00:32Z</time>
      </trkpt>
      <trkpt lat="45.9153" lon="4.66056">
        <ele>344.29</ele>
        <time>2014-07-05T15:00:33Z</time>
      </trkpt>
      <trkpt lat="45.91529" lon="4.66058">
        <ele>344.77</ele>
        <time>2014-07-05T15:00:34Z</time>
      </trkpt>
      <trkpt lat="45.91529" lon="4.6606">
        <ele>344.29</ele>
        <time>2014-07-05T15:00:35Z</time>
      </trkpt>
      <trkpt lat="45.91529" lon="4.66062">
        <ele>345.25</ele>
        <time>2014-07-05T15:00:36Z</time>
      </trkpt>
      <trkpt lat="45.91529" lon="4.66063">
        <ele>344.77</ele>
        <time>2014-07-05T15:00:37Z</time>
      </trkpt>
      <trkpt lat="45.91529" lon="4.66065">
        <ele>344.77</ele>
        <time>2014-07-05T15:00:38Z</time>
      </trkpt>
      <trkpt lat="45.91529" lon="4.66067">
        <ele>345.25</ele>
        <time>2014-07-05T15:00:39Z</time>
      </trkpt>
      <trkpt lat="45.91528" lon="4.66069">
        <ele>345.25</ele>
        <time>2014-07-05T15:00:40Z</time>
      </trkpt>
      <trkpt lat="45.91532" lon="4.66103">
        <ele>348.13</ele>
        <time>2014-07-05T15:00:56Z</time>
      </trkpt>
      <trkpt lat="45.91539" lon="4.66131">
        <ele>350.54</ele>
        <time>2014-07-05T15:01:09Z</time>
      </trkpt>
      <trkpt lat="45.91539" lon="4.66153">
        <ele>351.98</ele>
        <time>2014-07-05T15:01:20Z</time>
      </trkpt>
      <trkpt lat="45.91523" lon="4.66156">
        <ele>353.42</ele>
        <time>2014-07-05T15:01:31Z</time>
      </trkpt>
      <trkpt lat="45.91512" lon="4.66162">
        <ele>354.38</ele>
        <time>2014-07-05T15:01:39Z</time>
      </trkpt>
      <trkpt lat="45.91511" lon="4.66173">
        <ele>355.83</ele>
        <time>2014-07-05T15:01:45Z</time>
      </trkpt>
      <trkpt lat="45.91512" lon="4.66203">
        <ele>357.27</ele>
        <time>2014-07-05T15:01:59Z</time>
      </trkpt>
      <trkpt lat="45.91514" lon="4.66237">
        <ele>359.19</ele>
        <time>2014-07-05T15:02:13Z</time>
      </trkpt>
      <trkpt lat="45.91513" lon="4.66239">
        <ele>359.67</ele>
        <time>2014-07-05T15:02:14Z</time>
      </trkpt>
      <trkpt lat="45.91506" lon="4.66243">
        <ele>360.63</ele>
        <time>2014-07-05T15:02:19Z</time>
      </trkpt>
      <trkpt lat="45.91481" lon="4.66237">
        <ele>361.59</ele>
        <time>2014-07-05T15:02:34Z</time>
      </trkpt>
      <trkpt lat="45.91457" lon="4.66224">
        <ele>361.59</ele>
        <time>2014-07-05T15:02:47Z</time>
      </trkpt>
      <trkpt lat="45.91422" lon="4.66213">
        <ele>362.55</ele>
        <time>2014-07-05T15:03:02Z</time>
      </trkpt>
      <trkpt lat="45.9138" lon="4.66199">
        <ele>362.55</ele>
        <time>2014-07-05T15:03:16Z</time>
      </trkpt>
      <trkpt lat="45.91378" lon="4.662">
        <ele>362.55</ele>
        <time>2014-07-05T15:03:17Z</time>
      </trkpt>
      <trkpt lat="45.91376" lon="4.66202">
        <ele>362.07</ele>
        <time>2014-07-05T15:03:18Z</time>
      </trkpt>
      <trkpt lat="45.91375" lon="4.66204">
        <ele>362.07</ele>
        <time>2014-07-05T15:03:19Z</time>
      </trkpt>
      <trkpt lat="45.91374" lon="4.66207">
        <ele>362.55</ele>
        <time>2014-07-05T15:03:20Z</time>
      </trkpt>
      <trkpt lat="45.91374" lon="4.6621">
        <ele>362.55</ele>
        <time>2014-07-05T15:03:21Z</time>
      </trkpt>
      <trkpt lat="45.91374" lon="4.66213">
        <ele>363.04</ele>
        <time>2014-07-05T15:03:22Z</time>
      </trkpt>
      <trkpt lat="45.91374" lon="4.66248">
        <ele>365.44</ele>
        <time>2014-07-05T15:03:36Z</time>
      </trkpt>
      <trkpt lat="45.91365" lon="4.66321">
        <ele>369.28</ele>
        <time>2014-07-05T15:06:48Z</time>
      </trkpt>
      <trkpt lat="45.91365" lon="4.66319">
        <ele>369.76</ele>
        <time>2014-07-05T15:09:55Z</time>
      </trkpt>
      <trkpt lat="45.91364" lon="4.66324">
        <ele>369.76</ele>
        <time>2014-07-05T15:09:59Z</time>
      </trkpt>
      <trkpt lat="45.9136" lon="4.66361">
        <ele>371.69</ele>
        <time>2014-07-05T15:10:12Z</time>
      </trkpt>
      <trkpt lat="45.91351" lon="4.66389">
        <ele>372.65</ele>
        <time>2014-07-05T15:10:23Z</time>
      </trkpt>
      <trkpt lat="45.91344" lon="4.66416">
        <ele>374.09</ele>
        <time>2014-07-05T15:10:34Z</time>
      </trkpt>
      <trkpt lat="45.91338" lon="4.66441">
        <ele>375.05</ele>
        <time>2014-07-05T15:10:44Z</time>
      </trkpt>
      <trkpt lat="45.91329" lon="4.66466">
        <ele>375.53</ele>
        <time>2014-07-05T15:10:56Z</time>
      </trkpt>
      <trkpt lat="45.91321" lon="4.66473">
        <ele>376.01</ele>
        <time>2014-07-05T15:11:02Z</time>
      </trkpt>
      <trkpt lat="45.9132" lon="4.66473">
        <ele>375.53</ele>
        <time>2014-07-05T15:11:03Z</time>
      </trkpt>
      <trkpt lat="45.91293" lon="4.66466">
        <ele>376.49</ele>
        <time>2014-07-05T15:11:15Z</time>
      </trkpt>
      <trkpt lat="45.9127" lon="4.66454">
        <ele>376.97</ele>
        <time>2014-07-05T15:11:26Z</time>
      </trkpt>
      <trkpt lat="45.91265" lon="4.66452">
        <ele>376.97</ele>
        <time>2014-07-05T15:11:30Z</time>
      </trkpt>
      <trkpt lat="45.91263" lon="4.66452">
        <ele>376.49</ele>
        <time>2014-07-05T15:11:31Z</time>
      </trkpt>
      <trkpt lat="45.9126" lon="4.66449">
        <ele>376.97</ele>
        <time>2014-07-05T15:11:34Z</time>
      </trkpt>
      <trkpt lat="45.91258" lon="4.66446">
        <ele>376.97</ele>
        <time>2014-07-05T15:11:37Z</time>
      </trkpt>
      <trkpt lat="45.91257" lon="4.66446">
        <ele>376.97</ele>
        <time>2014-07-05T15:11:38Z</time>
      </trkpt>
      <trkpt lat="45.91255" lon="4.66445">
        <ele>376.97</ele>
        <time>2014-07-05T15:11:39Z</time>
      </trkpt>
      <trkpt lat="45.91254" lon="4.66444">
        <ele>377.45</ele>
        <time>2014-07-05T15:11:40Z</time>
      </trkpt>
      <trkpt lat="45.91252" lon="4.66443">
        <ele>376.49</ele>
        <time>2014-07-05T15:11:41Z</time>
      </trkpt>
      <trkpt lat="45.9125" lon="4.66441">
        <ele>376.97</ele>
        <time>2014-07-05T15:11:42Z</time>
      </trkpt>
      <trkpt lat="45.91248" lon="4.66439">
        <ele>376.97</ele>
        <time>2014-07-05T15:11:43Z</time>
      </trkpt>
      <trkpt lat="45.91246" lon="4.66436">
        <ele>376.97</ele>
        <time>2014-07-05T15:11:44Z</time>
      </trkpt>
      <trkpt lat="45.91215" lon="4.66398">
        <ele>376.01</ele>
        <time>2014-07-05T15:11:57Z</time>
      </trkpt>
      <trkpt lat="45.91185" lon="4.66341">
        <ele>373.13</ele>
        <time>2014-07-05T15:12:08Z</time>
      </trkpt>
      <trkpt lat="45.91169" lon="4.66287">
        <ele>370.24</ele>
        <time>2014-07-05T15:12:14Z</time>
      </trkpt>
      <trkpt lat="45.91166" lon="4.66277">
        <ele>369.28</ele>
        <time>2014-07-05T15:12:15Z</time>
      </trkpt>
      <trkpt lat="45.91165" lon="4.66267">
        <ele>368.8</ele>
        <time>2014-07-05T15:12:16Z</time>
      </trkpt>
      <trkpt lat="45.91165" lon="4.66257">
        <ele>367.84</ele>
        <time>2014-07-05T15:12:17Z</time>
      </trkpt>
      <trkpt lat="45.91166" lon="4.66247">
        <ele>367.36</ele>
        <time>2014-07-05T15:12:18Z</time>
      </trkpt>
      <trkpt lat="45.91168" lon="4.66238">
        <ele>367.36</ele>
        <time>2014-07-05T15:12:19Z</time>
      </trkpt>
      <trkpt lat="45.9117" lon="4.66229">
        <ele>365.92</ele>
        <time>2014-07-05T15:12:20Z</time>
      </trkpt>
      <trkpt lat="45.91175" lon="4.66203">
        <ele>364</ele>
        <time>2014-07-05T15:12:23Z</time>
      </trkpt>
      <trkpt lat="45.91175" lon="4.66193">
        <ele>363.52</ele>
        <time>2014-07-05T15:12:24Z</time>
      </trkpt>
      <trkpt lat="45.91175" lon="4.66183">
        <ele>363.52</ele>
        <time>2014-07-05T15:12:25Z</time>
      </trkpt>
      <trkpt lat="45.91175" lon="4.66173">
        <ele>362.07</ele>
        <time>2014-07-05T15:12:26Z</time>
      </trkpt>
      <trkpt lat="45.91174" lon="4.66162">
        <ele>361.59</ele>
        <time>2014-07-05T15:12:27Z</time>
      </trkpt>
      <trkpt lat="45.91171" lon="4.66151">
        <ele>361.59</ele>
        <time>2014-07-05T15:12:28Z</time>
      </trkpt>
      <trkpt lat="45.91162" lon="4.66102">
        <ele>357.75</ele>
        <time>2014-07-05T15:12:32Z</time>
      </trkpt>
      <trkpt lat="45.91143" lon="4.66047">
        <ele>354.86</ele>
        <time>2014-07-05T15:12:36Z</time>
      </trkpt>
      <trkpt lat="45.9113" lon="4.66011">
        <ele>351.02</ele>
        <time>2014-07-05T15:12:39Z</time>
      </trkpt>
      <trkpt lat="45.91122" lon="4.65988">
        <ele>348.13</ele>
        <time>2014-07-05T15:12:41Z</time>
      </trkpt>
      <trkpt lat="45.91108" lon="4.6595">
        <ele>344.29</ele>
        <time>2014-07-05T15:12:45Z</time>
      </trkpt>
      <trkpt lat="45.91103" lon="4.65944">
        <ele>343.33</ele>
        <time>2014-07-05T15:12:46Z</time>
      </trkpt>
      <trkpt lat="45.91097" lon="4.6594">
        <ele>342.85</ele>
        <time>2014-07-05T15:12:47Z</time>
      </trkpt>
      <trkpt lat="45.91091" lon="4.65937">
        <ele>342.37</ele>
        <time>2014-07-05T15:12:48Z</time>
      </trkpt>
      <trkpt lat="45.91083" lon="4.65935">
        <ele>342.37</ele>
        <time>2014-07-05T15:12:49Z</time>
      </trkpt>
      <trkpt lat="45.91027" lon="4.65923">
        <ele>339.48</ele>
        <time>2014-07-05T15:12:58Z</time>
      </trkpt>
      <trkpt lat="45.9096" lon="4.65913">
        <ele>337.08</ele>
        <time>2014-07-05T15:13:09Z</time>
      </trkpt>
      <trkpt lat="45.90955" lon="4.65912">
        <ele>337.08</ele>
        <time>2014-07-05T15:13:10Z</time>
      </trkpt>
      <trkpt lat="45.90931" lon="4.65906">
        <ele>336.12</ele>
        <time>2014-07-05T15:13:17Z</time>
      </trkpt>
      <trkpt lat="45.90899" lon="4.65907">
        <ele>336.12</ele>
        <time>2014-07-05T15:13:27Z</time>
      </trkpt>
      <trkpt lat="45.90838" lon="4.65923">
        <ele>335.64</ele>
        <time>2014-07-05T15:13:42Z</time>
      </trkpt>
      <trkpt lat="45.90834" lon="4.65925">
        <ele>335.16</ele>
        <time>2014-07-05T15:13:43Z</time>
      </trkpt>
      <trkpt lat="45.90831" lon="4.65928">
        <ele>335.64</ele>
        <time>2014-07-05T15:13:44Z</time>
      </trkpt>
      <trkpt lat="45.90827" lon="4.65931">
        <ele>335.64</ele>
        <time>2014-07-05T15:13:45Z</time>
      </trkpt>
      <trkpt lat="45.90824" lon="4.65934">
        <ele>335.16</ele>
        <time>2014-07-05T15:13:46Z</time>
      </trkpt>
      <trkpt lat="45.90821" lon="4.65939">
        <ele>335.16</ele>
        <time>2014-07-05T15:13:47Z</time>
      </trkpt>
      <trkpt lat="45.90818" lon="4.65943">
        <ele>335.16</ele>
        <time>2014-07-05T15:13:48Z</time>
      </trkpt>
      <trkpt lat="45.90802" lon="4.65964">
        <ele>335.64</ele>
        <time>2014-07-05T15:13:53Z</time>
      </trkpt>
      <trkpt lat="45.90798" lon="4.65967">
        <ele>336.12</ele>
        <time>2014-07-05T15:13:54Z</time>
      </trkpt>
      <trkpt lat="45.90794" lon="4.65969">
        <ele>335.64</ele>
        <time>2014-07-05T15:13:55Z</time>
      </trkpt>
      <trkpt lat="45.9079" lon="4.6597">
        <ele>335.64</ele>
        <time>2014-07-05T15:13:56Z</time>
      </trkpt>
      <trkpt lat="45.90785" lon="4.6597">
        <ele>335.64</ele>
        <time>2014-07-05T15:13:57Z</time>
      </trkpt>
      <trkpt lat="45.90781" lon="4.65971">
        <ele>335.64</ele>
        <time>2014-07-05T15:13:58Z</time>
      </trkpt>
      <trkpt lat="45.9071" lon="4.65986">
        <ele>339</ele>
        <time>2014-07-05T15:14:15Z</time>
      </trkpt>
      <trkpt lat="45.90681" lon="4.66008">
        <ele>340.92</ele>
        <time>2014-07-05T15:14:26Z</time>
      </trkpt>
      <trkpt lat="45.90645" lon="4.66039">
        <ele>343.33</ele>
        <time>2014-07-05T15:14:40Z</time>
      </trkpt>
      <trkpt lat="45.90614" lon="4.66057">
        <ele>346.21</ele>
        <time>2014-07-05T15:14:52Z</time>
      </trkpt>
      <trkpt lat="45.90585" lon="4.66075">
        <ele>349.1</ele>
        <time>2014-07-05T15:15:05Z</time>
      </trkpt>
      <trkpt lat="45.90572" lon="4.66077">
        <ele>350.06</ele>
        <time>2014-07-05T15:15:14Z</time>
      </trkpt>
      <trkpt lat="45.90571" lon="4.66076">
        <ele>350.06</ele>
        <time>2014-07-05T15:15:15Z</time>
      </trkpt>
      <trkpt lat="45.9057" lon="4.66074">
        <ele>350.54</ele>
        <time>2014-07-05T15:15:16Z</time>
      </trkpt>
      <trkpt lat="45.90562" lon="4.66054">
        <ele>348.13</ele>
        <time>2014-07-05T15:15:26Z</time>
      </trkpt>
      <trkpt lat="45.9055" lon="4.66029">
        <ele>346.21</ele>
        <time>2014-07-05T15:15:37Z</time>
      </trkpt>
      <trkpt lat="45.9054" lon="4.66006">
        <ele>345.25</ele>
        <time>2014-07-05T15:15:48Z</time>
      </trkpt>
      <trkpt lat="45.90543" lon="4.65977">
        <ele>343.33</ele>
        <time>2014-07-05T15:15:56Z</time>
      </trkpt>
      <trkpt lat="45.90548" lon="4.65939">
        <ele>340.44</ele>
        <time>2014-07-05T15:16:05Z</time>
      </trkpt>
      <trkpt lat="45.90549" lon="4.65888">
        <ele>337.08</ele>
        <time>2014-07-05T15:16:12Z</time>
      </trkpt>
      <trkpt lat="45.90549" lon="4.6588">
        <ele>336.6</ele>
        <time>2014-07-05T15:16:13Z</time>
      </trkpt>
      <trkpt lat="45.90547" lon="4.65871">
        <ele>335.64</ele>
        <time>2014-07-05T15:16:14Z</time>
      </trkpt>
      <trkpt lat="45.90546" lon="4.65862">
        <ele>334.68</ele>
        <time>2014-07-05T15:16:15Z</time>
      </trkpt>
      <trkpt lat="45.90543" lon="4.65852">
        <ele>334.68</ele>
        <time>2014-07-05T15:16:16Z</time>
      </trkpt>
      <trkpt lat="45.90539" lon="4.65844">
        <ele>334.2</ele>
        <time>2014-07-05T15:16:17Z</time>
      </trkpt>
      <trkpt lat="45.90534" lon="4.65836">
        <ele>334.2</ele>
        <time>2014-07-05T15:16:18Z</time>
      </trkpt>
      <trkpt lat="45.90529" lon="4.65828">
        <ele>334.2</ele>
        <time>2014-07-05T15:16:19Z</time>
      </trkpt>
      <trkpt lat="45.90496" lon="4.65771">
        <ele>330.83</ele>
        <time>2014-07-05T15:16:26Z</time>
      </trkpt>
      <trkpt lat="45.90455" lon="4.65692">
        <ele>327.95</ele>
        <time>2014-07-05T15:16:35Z</time>
      </trkpt>
      <trkpt lat="45.90445" lon="4.65675">
        <ele>327.95</ele>
        <time>2014-07-05T15:16:37Z</time>
      </trkpt>
      <trkpt lat="45.90438" lon="4.65668">
        <ele>326.99</ele>
        <time>2014-07-05T15:16:38Z</time>
      </trkpt>
      <trkpt lat="45.90432" lon="4.65664">
        <ele>327.47</ele>
        <time>2014-07-05T15:16:39Z</time>
      </trkpt>
      <trkpt lat="45.90425" lon="4.65661">
        <ele>327.47</ele>
        <time>2014-07-05T15:16:40Z</time>
      </trkpt>
      <trkpt lat="45.90419" lon="4.65658">
        <ele>327.47</ele>
        <time>2014-07-05T15:16:41Z</time>
      </trkpt>
      <trkpt lat="45.90413" lon="4.65655">
        <ele>327.47</ele>
        <time>2014-07-05T15:16:42Z</time>
      </trkpt>
      <trkpt lat="45.90377" lon="4.65627">
        <ele>326.02</ele>
        <time>2014-07-05T15:16:49Z</time>
      </trkpt>
      <trkpt lat="45.90374" lon="4.65621">
        <ele>326.02</ele>
        <time>2014-07-05T15:16:50Z</time>
      </trkpt>
      <trkpt lat="45.90373" lon="4.65615">
        <ele>325.06</ele>
        <time>2014-07-05T15:16:51Z</time>
      </trkpt>
      <trkpt lat="45.90373" lon="4.65608">
        <ele>324.1</ele>
        <time>2014-07-05T15:16:52Z</time>
      </trkpt>
      <trkpt lat="45.90375" lon="4.65601">
        <ele>324.1</ele>
        <time>2014-07-05T15:16:53Z</time>
      </trkpt>
      <trkpt lat="45.9038" lon="4.65575">
        <ele>323.62</ele>
        <time>2014-07-05T15:16:56Z</time>
      </trkpt>
      <trkpt lat="45.90379" lon="4.65565">
        <ele>323.14</ele>
        <time>2014-07-05T15:16:57Z</time>
      </trkpt>
      <trkpt lat="45.90375" lon="4.65556">
        <ele>322.66</ele>
        <time>2014-07-05T15:16:58Z</time>
      </trkpt>
      <trkpt lat="45.90372" lon="4.65547">
        <ele>323.14</ele>
        <time>2014-07-05T15:16:59Z</time>
      </trkpt>
      <trkpt lat="45.90367" lon="4.65539">
        <ele>322.18</ele>
        <time>2014-07-05T15:17:00Z</time>
      </trkpt>
      <trkpt lat="45.90344" lon="4.65487">
        <ele>319.3</ele>
        <time>2014-07-05T15:17:07Z</time>
      </trkpt>
      <trkpt lat="45.9034" lon="4.65476">
        <ele>318.33</ele>
        <time>2014-07-05T15:17:09Z</time>
      </trkpt>
      <trkpt lat="45.90333" lon="4.65459">
        <ele>317.37</ele>
        <time>2014-07-05T15:17:16Z</time>
      </trkpt>
      <trkpt lat="45.90334" lon="4.65461">
        <ele>317.85</ele>
        <time>2014-07-05T15:17:37Z</time>
      </trkpt>
      <trkpt lat="45.90333" lon="4.65459">
        <ele>317.37</ele>
        <time>2014-07-05T15:17:55Z</time>
      </trkpt>
      <trkpt lat="45.90326" lon="4.6544">
        <ele>317.37</ele>
        <time>2014-07-05T15:18:03Z</time>
      </trkpt>
      <trkpt lat="45.90308" lon="4.654">
        <ele>314.97</ele>
        <time>2014-07-05T15:18:10Z</time>
      </trkpt>
      <trkpt lat="45.90301" lon="4.65383">
        <ele>313.53</ele>
        <time>2014-07-05T15:18:12Z</time>
      </trkpt>
      <trkpt lat="45.90299" lon="4.65373">
        <ele>314.01</ele>
        <time>2014-07-05T15:18:13Z</time>
      </trkpt>
      <trkpt lat="45.90297" lon="4.65362">
        <ele>313.05</ele>
        <time>2014-07-05T15:18:14Z</time>
      </trkpt>
      <trkpt lat="45.90295" lon="4.6535">
        <ele>312.57</ele>
        <time>2014-07-05T15:18:15Z</time>
      </trkpt>
      <trkpt lat="45.90295" lon="4.65338">
        <ele>311.6</ele>
        <time>2014-07-05T15:18:16Z</time>
      </trkpt>
      <trkpt lat="45.90294" lon="4.65326">
        <ele>311.12</ele>
        <time>2014-07-05T15:18:17Z</time>
      </trkpt>
      <trkpt lat="45.90295" lon="4.65275">
        <ele>308.24</ele>
        <time>2014-07-05T15:18:21Z</time>
      </trkpt>
      <trkpt lat="45.90293" lon="4.65199">
        <ele>304.39</ele>
        <time>2014-07-05T15:18:27Z</time>
      </trkpt>
      <trkpt lat="45.90288" lon="4.65125">
        <ele>301.03</ele>
        <time>2014-07-05T15:18:33Z</time>
      </trkpt>
      <trkpt lat="45.9028" lon="4.65066">
        <ele>297.18</ele>
        <time>2014-07-05T15:18:39Z</time>
      </trkpt>
      <trkpt lat="45.90278" lon="4.65059">
        <ele>297.18</ele>
        <time>2014-07-05T15:18:40Z</time>
      </trkpt>
      <trkpt lat="45.90276" lon="4.65047">
        <ele>296.7</ele>
        <time>2014-07-05T15:18:42Z</time>
      </trkpt>
      <trkpt lat="45.90272" lon="4.65034">
        <ele>294.78</ele>
        <time>2014-07-05T15:18:46Z</time>
      </trkpt>
      <trkpt lat="45.90271" lon="4.65012">
        <ele>292.86</ele>
        <time>2014-07-05T15:20:06Z</time>
      </trkpt>
      <trkpt lat="45.9027" lon="4.64981">
        <ele>289.01</ele>
        <time>2014-07-05T15:20:10Z</time>
      </trkpt>
      <trkpt lat="45.90269" lon="4.64973">
        <ele>288.05</ele>
        <time>2014-07-05T15:20:11Z</time>
      </trkpt>
      <trkpt lat="45.90268" lon="4.64965">
        <ele>287.09</ele>
        <time>2014-07-05T15:20:12Z</time>
      </trkpt>
      <trkpt lat="45.90266" lon="4.64957">
        <ele>286.61</ele>
        <time>2014-07-05T15:20:13Z</time>
      </trkpt>
      <trkpt lat="45.90262" lon="4.64949">
        <ele>285.65</ele>
        <time>2014-07-05T15:20:14Z</time>
      </trkpt>
      <trkpt lat="45.90258" lon="4.64941">
        <ele>285.17</ele>
        <time>2014-07-05T15:20:15Z</time>
      </trkpt>
      <trkpt lat="45.90254" lon="4.64934">
        <ele>283.73</ele>
        <time>2014-07-05T15:20:16Z</time>
      </trkpt>
      <trkpt lat="45.90249" lon="4.64927">
        <ele>282.28</ele>
        <time>2014-07-05T15:20:17Z</time>
      </trkpt>
      <trkpt lat="45.90237" lon="4.64906">
        <ele>278.44</ele>
        <time>2014-07-05T15:20:20Z</time>
      </trkpt>
      <trkpt lat="45.90226" lon="4.64884">
        <ele>274.59</ele>
        <time>2014-07-05T15:20:23Z</time>
      </trkpt>
      <trkpt lat="45.90218" lon="4.64866">
        <ele>271.23</ele>
        <time>2014-07-05T15:20:26Z</time>
      </trkpt>
      <trkpt lat="45.90213" lon="4.64857">
        <ele>269.79</ele>
        <time>2014-07-05T15:20:28Z</time>
      </trkpt>
      <trkpt lat="45.9021" lon="4.64852">
        <ele>268.83</ele>
        <time>2014-07-05T15:20:29Z</time>
      </trkpt>
      <trkpt lat="45.90207" lon="4.64848">
        <ele>268.35</ele>
        <time>2014-07-05T15:20:30Z</time>
      </trkpt>
      <trkpt lat="45.90203" lon="4.6484">
        <ele>267.38</ele>
        <time>2014-07-05T15:20:35Z</time>
      </trkpt>
      <trkpt lat="45.90204" lon="4.64841">
        <ele>267.86</ele>
        <time>2014-07-05T15:20:37Z</time>
      </trkpt>
      <trkpt lat="45.90215" lon="4.64852">
        <ele>268.83</ele>
        <time>2014-07-05T15:20:46Z</time>
      </trkpt>
      <trkpt lat="45.90233" lon="4.64859">
        <ele>269.79</ele>
        <time>2014-07-05T15:20:57Z</time>
      </trkpt>
      <trkpt lat="45.90254" lon="4.64871">
        <ele>269.79</ele>
        <time>2014-07-05T15:21:06Z</time>
      </trkpt>
      <trkpt lat="45.90287" lon="4.64872">
        <ele>269.79</ele>
        <time>2014-07-05T15:21:15Z</time>
      </trkpt>
      <trkpt lat="45.9033" lon="4.64877">
        <ele>271.23</ele>
        <time>2014-07-05T15:21:26Z</time>
      </trkpt>
      <trkpt lat="45.90368" lon="4.64878">
        <ele>270.75</ele>
        <time>2014-07-05T15:21:38Z</time>
      </trkpt>
      <trkpt lat="45.90379" lon="4.64864">
        <ele>270.27</ele>
        <time>2014-07-05T15:21:46Z</time>
      </trkpt>
      <trkpt lat="45.90386" lon="4.64837">
        <ele>269.31</ele>
        <time>2014-07-05T15:21:53Z</time>
      </trkpt>
      <trkpt lat="45.90387" lon="4.64831">
        <ele>269.31</ele>
        <time>2014-07-05T15:21:54Z</time>
      </trkpt>
      <trkpt lat="45.9039" lon="4.64783">
        <ele>268.35</ele>
        <time>2014-07-05T15:22:03Z</time>
      </trkpt>
      <trkpt lat="45.90395" lon="4.64753">
        <ele>270.27</ele>
        <time>2014-07-05T15:22:12Z</time>
      </trkpt>
      <trkpt lat="45.90407" lon="4.64746">
        <ele>272.67</ele>
        <time>2014-07-05T15:22:19Z</time>
      </trkpt>
      <trkpt lat="45.90423" lon="4.64738">
        <ele>275.56</ele>
        <time>2014-07-05T15:22:32Z</time>
      </trkpt>
      <trkpt lat="45.90436" lon="4.64731">
        <ele>277.48</ele>
        <time>2014-07-05T15:22:41Z</time>
      </trkpt>
      <trkpt lat="45.90456" lon="4.64723">
        <ele>279.88</ele>
        <time>2014-07-05T15:22:54Z</time>
      </trkpt>
      <trkpt lat="45.90468" lon="4.64714">
        <ele>280.84</ele>
        <time>2014-07-05T15:23:04Z</time>
      </trkpt>
      <trkpt lat="45.90474" lon="4.6471">
        <ele>281.32</ele>
        <time>2014-07-05T15:23:14Z</time>
      </trkpt>
      <trkpt lat="45.90476" lon="4.64709">
        <ele>281.32</ele>
        <time>2014-07-05T15:23:35Z</time>
      </trkpt>
      <trkpt lat="45.90477" lon="4.64704">
        <ele>281.8</ele>
        <time>2014-07-05T15:23:46Z</time>
      </trkpt>
      <trkpt lat="45.90478" lon="4.64672">
        <ele>279.4</ele>
        <time>2014-07-05T15:23:54Z</time>
      </trkpt>
      <trkpt lat="45.90481" lon="4.64647">
        <ele>277.96</ele>
        <time>2014-07-05T15:23:57Z</time>
      </trkpt>
      <trkpt lat="45.90483" lon="4.64605">
        <ele>274.59</ele>
        <time>2014-07-05T15:24:02Z</time>
      </trkpt>
      <trkpt lat="45.90483" lon="4.64598">
        <ele>274.11</ele>
        <time>2014-07-05T15:24:03Z</time>
      </trkpt>
      <trkpt lat="45.90487" lon="4.64582">
        <ele>273.15</ele>
        <time>2014-07-05T15:24:06Z</time>
      </trkpt>
      <trkpt lat="45.90509" lon="4.64556">
        <ele>276.04</ele>
        <time>2014-07-05T15:24:17Z</time>
      </trkpt>
      <trkpt lat="45.9051" lon="4.64554">
        <ele>275.56</ele>
        <time>2014-07-05T15:24:18Z</time>
      </trkpt>
      <trkpt lat="45.90511" lon="4.64551">
        <ele>276.04</ele>
        <time>2014-07-05T15:24:19Z</time>
      </trkpt>
      <trkpt lat="45.90518" lon="4.64533">
        <ele>277</ele>
        <time>2014-07-05T15:24:29Z</time>
      </trkpt>
      <trkpt lat="45.90525" lon="4.64517">
        <ele>278.44</ele>
        <time>2014-07-05T15:24:40Z</time>
      </trkpt>
      <trkpt lat="45.9053" lon="4.64502">
        <ele>279.4</ele>
        <time>2014-07-05T15:24:48Z</time>
      </trkpt>
      <trkpt lat="45.90535" lon="4.64471">
        <ele>281.32</ele>
        <time>2014-07-05T15:24:59Z</time>
      </trkpt>
      <trkpt lat="45.90534" lon="4.64441">
        <ele>282.77</ele>
        <time>2014-07-05T15:25:10Z</time>
      </trkpt>
      <trkpt lat="45.90537" lon="4.64406">
        <ele>284.69</ele>
        <time>2014-07-05T15:25:20Z</time>
      </trkpt>
      <trkpt lat="45.90537" lon="4.64403">
        <ele>284.69</ele>
        <time>2014-07-05T15:25:21Z</time>
      </trkpt>
      <trkpt lat="45.90536" lon="4.64399">
        <ele>284.69</ele>
        <time>2014-07-05T15:25:22Z</time>
      </trkpt>
      <trkpt lat="45.90536" lon="4.64395">
        <ele>284.69</ele>
        <time>2014-07-05T15:25:23Z</time>
      </trkpt>
      <trkpt lat="45.90535" lon="4.64392">
        <ele>284.69</ele>
        <time>2014-07-05T15:25:24Z</time>
      </trkpt>
      <trkpt lat="45.90535" lon="4.64389">
        <ele>284.69</ele>
        <time>2014-07-05T15:25:25Z</time>
      </trkpt>
      <trkpt lat="45.90534" lon="4.64387">
        <ele>285.65</ele>
        <time>2014-07-05T15:25:26Z</time>
      </trkpt>
      <trkpt lat="45.90533" lon="4.64385">
        <ele>286.13</ele>
        <time>2014-07-05T15:25:27Z</time>
      </trkpt>
      <trkpt lat="45.90533" lon="4.64383">
        <ele>285.65</ele>
        <time>2014-07-05T15:25:28Z</time>
      </trkpt>
      <trkpt lat="45.90523" lon="4.64366">
        <ele>286.61</ele>
        <time>2014-07-05T15:25:36Z</time>
      </trkpt>
      <trkpt lat="45.90502" lon="4.64338">
        <ele>287.57</ele>
        <time>2014-07-05T15:25:47Z</time>
      </trkpt>
      <trkpt lat="45.90487" lon="4.64321">
        <ele>288.05</ele>
        <time>2014-07-05T15:25:55Z</time>
      </trkpt>
      <trkpt lat="45.90462" lon="4.64309">
        <ele>287.57</ele>
        <time>2014-07-05T15:26:05Z</time>
      </trkpt>
      <trkpt lat="45.90451" lon="4.64308">
        <ele>284.69</ele>
        <time>2014-07-05T15:26:10Z</time>
      </trkpt>
      <trkpt lat="45.90423" lon="4.64299">
        <ele>280.84</ele>
        <time>2014-07-05T15:26:18Z</time>
      </trkpt>
      <trkpt lat="45.90405" lon="4.6429">
        <ele>277.96</ele>
        <time>2014-07-05T15:26:27Z</time>
      </trkpt>
      <trkpt lat="45.90389" lon="4.64291">
        <ele>278.44</ele>
        <time>2014-07-05T15:26:34Z</time>
      </trkpt>
      <trkpt lat="45.90377" lon="4.64296">
        <ele>280.84</ele>
        <time>2014-07-05T15:26:40Z</time>
      </trkpt>
      <trkpt lat="45.90362" lon="4.64298">
        <ele>284.21</ele>
        <time>2014-07-05T15:26:47Z</time>
      </trkpt>
      <trkpt lat="45.90359" lon="4.64298">
        <ele>284.69</ele>
        <time>2014-07-05T15:26:49Z</time>
      </trkpt>
      <trkpt lat="45.90343" lon="4.64304">
        <ele>286.13</ele>
        <time>2014-07-05T15:27:00Z</time>
      </trkpt>
      <trkpt lat="45.90332" lon="4.64307">
        <ele>286.61</ele>
        <time>2014-07-05T15:28:00Z</time>
      </trkpt>
      <trkpt lat="45.90335" lon="4.64309">
        <ele>287.57</ele>
        <time>2014-07-05T15:28:41Z</time>
      </trkpt>
      <trkpt lat="45.90319" lon="4.64312">
        <ele>288.05</ele>
        <time>2014-07-05T15:29:02Z</time>
      </trkpt>
      <trkpt lat="45.90297" lon="4.6431">
        <ele>289.01</ele>
        <time>2014-07-05T15:29:13Z</time>
      </trkpt>
      <trkpt lat="45.90272" lon="4.64313">
        <ele>289.49</ele>
        <time>2014-07-05T15:29:22Z</time>
      </trkpt>
      <trkpt lat="45.90247" lon="4.64316">
        <ele>290.46</ele>
        <time>2014-07-05T15:29:32Z</time>
      </trkpt>
      <trkpt lat="45.90227" lon="4.64323">
        <ele>290.46</ele>
        <time>2014-07-05T15:29:40Z</time>
      </trkpt>
      <trkpt lat="45.9022" lon="4.64328">
        <ele>289.97</ele>
        <time>2014-07-05T15:29:42Z</time>
      </trkpt>
      <trkpt lat="45.90223" lon="4.64364">
        <ele>286.13</ele>
        <time>2014-07-05T15:29:49Z</time>
      </trkpt>
      <trkpt lat="45.90219" lon="4.64404">
        <ele>284.21</ele>
        <time>2014-07-05T15:29:57Z</time>
      </trkpt>
      <trkpt lat="45.9021" lon="4.64413">
        <ele>284.69</ele>
        <time>2014-07-05T15:30:07Z</time>
      </trkpt>
      <trkpt lat="45.90208" lon="4.64415">
        <ele>284.69</ele>
        <time>2014-07-05T15:30:09Z</time>
      </trkpt>
      <trkpt lat="45.90207" lon="4.64414">
        <ele>284.69</ele>
        <time>2014-07-05T15:30:10Z</time>
      </trkpt>
      <trkpt lat="45.90206" lon="4.64413">
        <ele>285.17</ele>
        <time>2014-07-05T15:30:11Z</time>
      </trkpt>
      <trkpt lat="45.90205" lon="4.64413">
        <ele>285.17</ele>
        <time>2014-07-05T15:30:12Z</time>
      </trkpt>
      <trkpt lat="45.90204" lon="4.64412">
        <ele>284.69</ele>
        <time>2014-07-05T15:30:13Z</time>
      </trkpt>
      <trkpt lat="45.90196" lon="4.64393">
        <ele>286.13</ele>
        <time>2014-07-05T15:30:23Z</time>
      </trkpt>
      <trkpt lat="45.90184" lon="4.64377">
        <ele>288.53</ele>
        <time>2014-07-05T15:30:34Z</time>
      </trkpt>
      <trkpt lat="45.90173" lon="4.64362">
        <ele>290.94</ele>
        <time>2014-07-05T15:30:44Z</time>
      </trkpt>
      <trkpt lat="45.90154" lon="4.64341">
        <ele>292.86</ele>
        <time>2014-07-05T15:30:55Z</time>
      </trkpt>
      <trkpt lat="45.9014" lon="4.64321">
        <ele>294.78</ele>
        <time>2014-07-05T15:31:06Z</time>
      </trkpt>
      <trkpt lat="45.90129" lon="4.64309">
        <ele>296.22</ele>
        <time>2014-07-05T15:31:16Z</time>
      </trkpt>
      <trkpt lat="45.90114" lon="4.64293">
        <ele>297.67</ele>
        <time>2014-07-05T15:31:25Z</time>
      </trkpt>
      <trkpt lat="45.90091" lon="4.64265">
        <ele>300.55</ele>
        <time>2014-07-05T15:31:39Z</time>
      </trkpt>
      <trkpt lat="45.90071" lon="4.6424">
        <ele>302.47</ele>
        <time>2014-07-05T15:31:54Z</time>
      </trkpt>
      <trkpt lat="45.90055" lon="4.6422">
        <ele>303.91</ele>
        <time>2014-07-05T15:32:06Z</time>
      </trkpt>
      <trkpt lat="45.90042" lon="4.64206">
        <ele>304.39</ele>
        <time>2014-07-05T15:32:16Z</time>
      </trkpt>
      <trkpt lat="45.90023" lon="4.64183">
        <ele>305.36</ele>
        <time>2014-07-05T15:32:28Z</time>
      </trkpt>
      <trkpt lat="45.90021" lon="4.64181">
        <ele>305.84</ele>
        <time>2014-07-05T15:32:30Z</time>
      </trkpt>
      <trkpt lat="45.90019" lon="4.6418">
        <ele>305.84</ele>
        <time>2014-07-05T15:32:31Z</time>
      </trkpt>
      <trkpt lat="45.90015" lon="4.6417">
        <ele>305.84</ele>
        <time>2014-07-05T15:32:43Z</time>
      </trkpt>
      <trkpt lat="45.90011" lon="4.64164">
        <ele>305.84</ele>
        <time>2014-07-05T15:33:03Z</time>
      </trkpt>
      <trkpt lat="45.90013" lon="4.64162">
        <ele>305.36</ele>
        <time>2014-07-05T15:33:21Z</time>
      </trkpt>
      <trkpt lat="45.90006" lon="4.64157">
        <ele>305.84</ele>
        <time>2014-07-05T15:33:34Z</time>
      </trkpt>
      <trkpt lat="45.89991" lon="4.64141">
        <ele>306.32</ele>
        <time>2014-07-05T15:33:45Z</time>
      </trkpt>
      <trkpt lat="45.89978" lon="4.64125">
        <ele>306.8</ele>
        <time>2014-07-05T15:33:54Z</time>
      </trkpt>
      <trkpt lat="45.89962" lon="4.64103">
        <ele>307.76</ele>
        <time>2014-07-05T15:34:05Z</time>
      </trkpt>
      <trkpt lat="45.8994" lon="4.64078">
        <ele>307.28</ele>
        <time>2014-07-05T15:34:16Z</time>
      </trkpt>
      <trkpt lat="45.8994" lon="4.6408">
        <ele>307.28</ele>
        <time>2014-07-05T15:34:17Z</time>
      </trkpt>
      <trkpt lat="45.89939" lon="4.64083">
        <ele>307.28</ele>
        <time>2014-07-05T15:34:18Z</time>
      </trkpt>
      <trkpt lat="45.89939" lon="4.64086">
        <ele>307.28</ele>
        <time>2014-07-05T15:34:19Z</time>
      </trkpt>
      <trkpt lat="45.89939" lon="4.64089">
        <ele>307.28</ele>
        <time>2014-07-05T15:34:20Z</time>
      </trkpt>
      <trkpt lat="45.8994" lon="4.64094">
        <ele>307.28</ele>
        <time>2014-07-05T15:34:23Z</time>
      </trkpt>
      <trkpt lat="45.8994" lon="4.64097">
        <ele>307.28</ele>
        <time>2014-07-05T15:34:24Z</time>
      </trkpt>
      <trkpt lat="45.8994" lon="4.641">
        <ele>306.8</ele>
        <time>2014-07-05T15:34:25Z</time>
      </trkpt>
      <trkpt lat="45.8994" lon="4.64104">
        <ele>307.28</ele>
        <time>2014-07-05T15:34:26Z</time>
      </trkpt>
      <trkpt lat="45.89939" lon="4.64109">
        <ele>307.28</ele>
        <time>2014-07-05T15:34:27Z</time>
      </trkpt>
      <trkpt lat="45.89938" lon="4.64113">
        <ele>306.8</ele>
        <time>2014-07-05T15:34:28Z</time>
      </trkpt>
      <trkpt lat="45.89938" lon="4.64117">
        <ele>307.28</ele>
        <time>2014-07-05T15:34:29Z</time>
      </trkpt>
      <trkpt lat="45.89937" lon="4.64158">
        <ele>306.8</ele>
        <time>2014-07-05T15:34:39Z</time>
      </trkpt>
      <trkpt lat="45.89944" lon="4.64227">
        <ele>305.84</ele>
        <time>2014-07-05T15:34:51Z</time>
      </trkpt>
      <trkpt lat="45.89957" lon="4.64315">
        <ele>303.43</ele>
        <time>2014-07-05T15:35:03Z</time>
      </trkpt>
      <trkpt lat="45.89957" lon="4.64324">
        <ele>303.43</ele>
        <time>2014-07-05T15:35:04Z</time>
      </trkpt>
      <trkpt lat="45.89956" lon="4.64401">
        <ele>300.07</ele>
        <time>2014-07-05T15:35:11Z</time>
      </trkpt>
      <trkpt lat="45.8996" lon="4.64425">
        <ele>298.15</ele>
        <time>2014-07-05T15:35:13Z</time>
      </trkpt>
      <trkpt lat="45.89964" lon="4.64437">
        <ele>297.18</ele>
        <time>2014-07-05T15:35:14Z</time>
      </trkpt>
      <trkpt lat="45.89969" lon="4.64449">
        <ele>296.22</ele>
        <time>2014-07-05T15:35:15Z</time>
      </trkpt>
      <trkpt lat="45.89976" lon="4.6446">
        <ele>295.26</ele>
        <time>2014-07-05T15:35:16Z</time>
      </trkpt>
      <trkpt lat="45.89983" lon="4.6447">
        <ele>294.78</ele>
        <time>2014-07-05T15:35:17Z</time>
      </trkpt>
      <trkpt lat="45.89991" lon="4.64481">
        <ele>293.82</ele>
        <time>2014-07-05T15:35:18Z</time>
      </trkpt>
      <trkpt lat="45.90025" lon="4.64532">
        <ele>290.46</ele>
        <time>2014-07-05T15:35:23Z</time>
      </trkpt>
      <trkpt lat="45.90043" lon="4.64564">
        <ele>288.53</ele>
        <time>2014-07-05T15:35:26Z</time>
      </trkpt>
      <trkpt lat="45.90051" lon="4.64572">
        <ele>288.05</ele>
        <time>2014-07-05T15:35:27Z</time>
      </trkpt>
      <trkpt lat="45.90059" lon="4.6458">
        <ele>287.09</ele>
        <time>2014-07-05T15:35:28Z</time>
      </trkpt>
      <trkpt lat="45.90088" lon="4.64597">
        <ele>283.73</ele>
        <time>2014-07-05T15:35:31Z</time>
      </trkpt>
      <trkpt lat="45.90127" lon="4.64607">
        <ele>279.88</ele>
        <time>2014-07-05T15:35:35Z</time>
      </trkpt>
      <trkpt lat="45.90153" lon="4.64616">
        <ele>276.04</ele>
        <time>2014-07-05T15:35:38Z</time>
      </trkpt>
      <trkpt lat="45.90177" lon="4.6463">
        <ele>272.67</ele>
        <time>2014-07-05T15:35:41Z</time>
      </trkpt>
      <trkpt lat="45.90184" lon="4.64637">
        <ele>271.23</ele>
        <time>2014-07-05T15:35:42Z</time>
      </trkpt>
      <trkpt lat="45.90197" lon="4.6465">
        <ele>269.31</ele>
        <time>2014-07-05T15:35:44Z</time>
      </trkpt>
      <trkpt lat="45.90202" lon="4.64657">
        <ele>267.86</ele>
        <time>2014-07-05T15:35:45Z</time>
      </trkpt>
      <trkpt lat="45.90204" lon="4.64664">
        <ele>267.38</ele>
        <time>2014-07-05T15:35:46Z</time>
      </trkpt>
      <trkpt lat="45.90203" lon="4.64672">
        <ele>266.42</ele>
        <time>2014-07-05T15:35:47Z</time>
      </trkpt>
      <trkpt lat="45.90201" lon="4.64676">
        <ele>265.94</ele>
        <time>2014-07-05T15:35:48Z</time>
      </trkpt>
      <trkpt lat="45.90195" lon="4.64679">
        <ele>265.46</ele>
        <time>2014-07-05T15:35:50Z</time>
      </trkpt>
      <trkpt lat="45.9017" lon="4.64681">
        <ele>265.94</ele>
        <time>2014-07-05T15:35:59Z</time>
      </trkpt>
      <trkpt lat="45.90144" lon="4.64686">
        <ele>265.46</ele>
        <time>2014-07-05T15:36:10Z</time>
      </trkpt>
      <trkpt lat="45.90108" lon="4.64691">
        <ele>265.46</ele>
        <time>2014-07-05T15:36:23Z</time>
      </trkpt>
      <trkpt lat="45.90081" lon="4.64698">
        <ele>265.94</ele>
        <time>2014-07-05T15:36:32Z</time>
      </trkpt>
      <trkpt lat="45.9004" lon="4.64686">
        <ele>267.86</ele>
        <time>2014-07-05T15:36:41Z</time>
      </trkpt>
      <trkpt lat="45.90034" lon="4.64685">
        <ele>267.38</ele>
        <time>2014-07-05T15:36:42Z</time>
      </trkpt>
      <trkpt lat="45.89976" lon="4.64658">
        <ele>269.31</ele>
        <time>2014-07-05T15:36:55Z</time>
      </trkpt>
      <trkpt lat="45.89961" lon="4.6465">
        <ele>269.79</ele>
        <time>2014-07-05T15:36:59Z</time>
      </trkpt>
      <trkpt lat="45.89885" lon="4.64629">
        <ele>269.79</ele>
        <time>2014-07-05T15:37:14Z</time>
      </trkpt>
      <trkpt lat="45.89796" lon="4.64621">
        <ele>268.35</ele>
        <time>2014-07-05T15:37:30Z</time>
      </trkpt>
      <trkpt lat="45.89725" lon="4.64615">
        <ele>264.98</ele>
        <time>2014-07-05T15:37:42Z</time>
      </trkpt>
      <trkpt lat="45.89721" lon="4.64615">
        <ele>264.98</ele>
        <time>2014-07-05T15:37:43Z</time>
      </trkpt>
      <trkpt lat="45.89716" lon="4.64614">
        <ele>264.5</ele>
        <time>2014-07-05T15:37:44Z</time>
      </trkpt>
      <trkpt lat="45.89653" lon="4.64596">
        <ele>262.1</ele>
        <time>2014-07-05T15:37:57Z</time>
      </trkpt>
      <trkpt lat="45.89628" lon="4.64584">
        <ele>260.65</ele>
        <time>2014-07-05T15:38:07Z</time>
      </trkpt>
      <trkpt lat="45.89623" lon="4.64591">
        <ele>260.65</ele>
        <time>2014-07-05T15:38:12Z</time>
      </trkpt>
      <trkpt lat="45.89624" lon="4.64594">
        <ele>260.17</ele>
        <time>2014-07-05T15:38:13Z</time>
      </trkpt>
      <trkpt lat="45.89625" lon="4.64599">
        <ele>260.17</ele>
        <time>2014-07-05T15:38:14Z</time>
      </trkpt>
      <trkpt lat="45.89638" lon="4.64655">
        <ele>258.25</ele>
        <time>2014-07-05T15:38:23Z</time>
      </trkpt>
      <trkpt lat="45.89638" lon="4.64663">
        <ele>258.25</ele>
        <time>2014-07-05T15:38:24Z</time>
      </trkpt>
      <trkpt lat="45.89638" lon="4.64671">
        <ele>258.25</ele>
        <time>2014-07-05T15:38:25Z</time>
      </trkpt>
      <trkpt lat="45.89636" lon="4.64678">
        <ele>257.77</ele>
        <time>2014-07-05T15:38:26Z</time>
      </trkpt>
      <trkpt lat="45.89634" lon="4.64686">
        <ele>257.29</ele>
        <time>2014-07-05T15:38:27Z</time>
      </trkpt>
      <trkpt lat="45.89632" lon="4.64693">
        <ele>257.29</ele>
        <time>2014-07-05T15:38:28Z</time>
      </trkpt>
      <trkpt lat="45.89616" lon="4.64729">
        <ele>259.21</ele>
        <time>2014-07-05T15:38:36Z</time>
      </trkpt>
      <trkpt lat="45.89609" lon="4.64743">
        <ele>260.65</ele>
        <time>2014-07-05T15:38:41Z</time>
      </trkpt>
      <trkpt lat="45.89609" lon="4.64744">
        <ele>260.65</ele>
        <time>2014-07-05T15:38:42Z</time>
      </trkpt>
      <trkpt lat="45.89598" lon="4.64767">
        <ele>263.06</ele>
        <time>2014-07-05T15:38:51Z</time>
      </trkpt>
      <trkpt lat="45.89588" lon="4.64789">
        <ele>266.42</ele>
        <time>2014-07-05T15:39:02Z</time>
      </trkpt>
      <trkpt lat="45.89587" lon="4.6479">
        <ele>266.42</ele>
        <time>2014-07-05T15:39:03Z</time>
      </trkpt>
      <trkpt lat="45.89583" lon="4.648">
        <ele>269.31</ele>
        <time>2014-07-05T15:39:15Z</time>
      </trkpt>
      <trkpt lat="45.89584" lon="4.648">
        <ele>270.27</ele>
        <time>2014-07-05T15:39:16Z</time>
      </trkpt>
      <trkpt lat="45.89585" lon="4.64802">
        <ele>269.79</ele>
        <time>2014-07-05T15:39:17Z</time>
      </trkpt>
      <trkpt lat="45.89586" lon="4.64803">
        <ele>270.27</ele>
        <time>2014-07-05T15:39:19Z</time>
      </trkpt>
      <trkpt lat="45.89587" lon="4.64804">
        <ele>270.75</ele>
        <time>2014-07-05T15:39:20Z</time>
      </trkpt>
      <trkpt lat="45.89593" lon="4.64815">
        <ele>272.67</ele>
        <time>2014-07-05T15:39:31Z</time>
      </trkpt>
      <trkpt lat="45.89604" lon="4.64825">
        <ele>275.56</ele>
        <time>2014-07-05T15:39:44Z</time>
      </trkpt>
      <trkpt lat="45.89614" lon="4.64833">
        <ele>277</ele>
        <time>2014-07-05T15:39:55Z</time>
      </trkpt>
      <trkpt lat="45.89622" lon="4.64838">
        <ele>278.44</ele>
        <time>2014-07-05T15:40:01Z</time>
      </trkpt>
      <trkpt lat="45.8963" lon="4.64839">
        <ele>279.88</ele>
        <time>2014-07-05T15:40:11Z</time>
      </trkpt>
      <trkpt lat="45.89641" lon="4.64843">
        <ele>282.28</ele>
        <time>2014-07-05T15:40:21Z</time>
      </trkpt>
      <trkpt lat="45.89657" lon="4.64853">
        <ele>284.69</ele>
        <time>2014-07-05T15:40:33Z</time>
      </trkpt>
      <trkpt lat="45.89674" lon="4.6486">
        <ele>287.57</ele>
        <time>2014-07-05T15:40:47Z</time>
      </trkpt>
      <trkpt lat="45.8969" lon="4.64871">
        <ele>290.46</ele>
        <time>2014-07-05T15:41:00Z</time>
      </trkpt>
      <trkpt lat="45.89692" lon="4.64874">
        <ele>290.46</ele>
        <time>2014-07-05T15:41:02Z</time>
      </trkpt>
      <trkpt lat="45.89693" lon="4.64875">
        <ele>291.42</ele>
        <time>2014-07-05T15:41:03Z</time>
      </trkpt>
      <trkpt lat="45.89693" lon="4.64877">
        <ele>290.94</ele>
        <time>2014-07-05T15:41:04Z</time>
      </trkpt>
      <trkpt lat="45.89694" lon="4.64879">
        <ele>291.42</ele>
        <time>2014-07-05T15:41:05Z</time>
      </trkpt>
      <trkpt lat="45.89696" lon="4.64883">
        <ele>292.38</ele>
        <time>2014-07-05T15:41:12Z</time>
      </trkpt>
      <trkpt lat="45.89695" lon="4.64889">
        <ele>294.3</ele>
        <time>2014-07-05T15:41:22Z</time>
      </trkpt>
      <trkpt lat="45.89692" lon="4.64898">
        <ele>295.74</ele>
        <time>2014-07-05T15:41:34Z</time>
      </trkpt>
      <trkpt lat="45.89692" lon="4.649">
        <ele>296.22</ele>
        <time>2014-07-05T15:41:35Z</time>
      </trkpt>
      <trkpt lat="45.8969" lon="4.64911">
        <ele>298.63</ele>
        <time>2014-07-05T15:41:46Z</time>
      </trkpt>
      <trkpt lat="45.89687" lon="4.6492">
        <ele>301.03</ele>
        <time>2014-07-05T15:41:57Z</time>
      </trkpt>
      <trkpt lat="45.89685" lon="4.64928">
        <ele>302.95</ele>
        <time>2014-07-05T15:42:09Z</time>
      </trkpt>
      <trkpt lat="45.89686" lon="4.64928">
        <ele>296.7</ele>
        <time>2014-07-05T15:42:20Z</time>
      </trkpt>
      <trkpt lat="45.89686" lon="4.64929">
        <ele>302.47</ele>
        <time>2014-07-05T15:45:01Z</time>
      </trkpt>
      <trkpt lat="45.89687" lon="4.64933">
        <ele>302.47</ele>
        <time>2014-07-05T15:45:28Z</time>
      </trkpt>
      <trkpt lat="45.89703" lon="4.64932">
        <ele>302.95</ele>
        <time>2014-07-05T15:46:41Z</time>
      </trkpt>
      <trkpt lat="45.89722" lon="4.64938">
        <ele>303.43</ele>
        <time>2014-07-05T15:46:52Z</time>
      </trkpt>
      <trkpt lat="45.89723" lon="4.6495">
        <ele>304.39</ele>
        <time>2014-07-05T15:46:57Z</time>
      </trkpt>
      <trkpt lat="45.89716" lon="4.64982">
        <ele>307.76</ele>
        <time>2014-07-05T15:47:10Z</time>
      </trkpt>
      <trkpt lat="45.89708" lon="4.65008">
        <ele>309.68</ele>
        <time>2014-07-05T15:47:23Z</time>
      </trkpt>
      <trkpt lat="45.89707" lon="4.65014">
        <ele>310.16</ele>
        <time>2014-07-05T15:47:27Z</time>
      </trkpt>
      <trkpt lat="45.89696" lon="4.65025">
        <ele>310.64</ele>
        <time>2014-07-05T15:47:40Z</time>
      </trkpt>
      <trkpt lat="45.89682" lon="4.65032">
        <ele>311.6</ele>
        <time>2014-07-05T15:47:54Z</time>
      </trkpt>
      <trkpt lat="45.89664" lon="4.65038">
        <ele>313.05</ele>
        <time>2014-07-05T15:48:10Z</time>
      </trkpt>
      <trkpt lat="45.89645" lon="4.65045">
        <ele>314.49</ele>
        <time>2014-07-05T15:48:23Z</time>
      </trkpt>
      <trkpt lat="45.89635" lon="4.65048">
        <ele>315.45</ele>
        <time>2014-07-05T15:48:32Z</time>
      </trkpt>
      <trkpt lat="45.89619" lon="4.65055">
        <ele>316.41</ele>
        <time>2014-07-05T15:48:47Z</time>
      </trkpt>
      <trkpt lat="45.89618" lon="4.65055">
        <ele>316.89</ele>
        <time>2014-07-05T15:48:55Z</time>
      </trkpt>
      <trkpt lat="45.89615" lon="4.65055">
        <ele>316.89</ele>
        <time>2014-07-05T15:50:02Z</time>
      </trkpt>
      <trkpt lat="45.89612" lon="4.65059">
        <ele>316.89</ele>
        <time>2014-07-05T15:50:17Z</time>
      </trkpt>
      <trkpt lat="45.89593" lon="4.6507">
        <ele>319.3</ele>
        <time>2014-07-05T15:50:30Z</time>
      </trkpt>
      <trkpt lat="45.89567" lon="4.65084">
        <ele>321.22</ele>
        <time>2014-07-05T15:50:44Z</time>
      </trkpt>
      <trkpt lat="45.89553" lon="4.6509">
        <ele>322.66</ele>
        <time>2014-07-05T15:50:51Z</time>
      </trkpt>
      <trkpt lat="45.89551" lon="4.65092">
        <ele>322.18</ele>
        <time>2014-07-05T15:50:53Z</time>
      </trkpt>
      <trkpt lat="45.89529" lon="4.65101">
        <ele>324.58</ele>
        <time>2014-07-05T15:51:08Z</time>
      </trkpt>
      <trkpt lat="45.89516" lon="4.65106">
        <ele>325.54</ele>
        <time>2014-07-05T15:51:18Z</time>
      </trkpt>
      <trkpt lat="45.89514" lon="4.65106">
        <ele>325.54</ele>
        <time>2014-07-05T15:51:19Z</time>
      </trkpt>
      <trkpt lat="45.89513" lon="4.65106">
        <ele>326.02</ele>
        <time>2014-07-05T15:51:20Z</time>
      </trkpt>
      <trkpt lat="45.89501" lon="4.65111">
        <ele>326.5</ele>
        <time>2014-07-05T15:51:30Z</time>
      </trkpt>
      <trkpt lat="45.89484" lon="4.65117">
        <ele>327.47</ele>
        <time>2014-07-05T15:51:44Z</time>
      </trkpt>
      <trkpt lat="45.89468" lon="4.65124">
        <ele>328.91</ele>
        <time>2014-07-05T15:51:58Z</time>
      </trkpt>
      <trkpt lat="45.89445" lon="4.65132">
        <ele>331.31</ele>
        <time>2014-07-05T15:52:14Z</time>
      </trkpt>
      <trkpt lat="45.89426" lon="4.65139">
        <ele>332.27</ele>
        <time>2014-07-05T15:52:25Z</time>
      </trkpt>
      <trkpt lat="45.89407" lon="4.65141">
        <ele>333.71</ele>
        <time>2014-07-05T15:52:39Z</time>
      </trkpt>
      <trkpt lat="45.89382" lon="4.65147">
        <ele>335.16</ele>
        <time>2014-07-05T15:52:57Z</time>
      </trkpt>
      <trkpt lat="45.89361" lon="4.65151">
        <ele>337.56</ele>
        <time>2014-07-05T15:53:11Z</time>
      </trkpt>
      <trkpt lat="45.89337" lon="4.65155">
        <ele>339.48</ele>
        <time>2014-07-05T15:53:26Z</time>
      </trkpt>
      <trkpt lat="45.89315" lon="4.65157">
        <ele>341.89</ele>
        <time>2014-07-05T15:53:41Z</time>
      </trkpt>
      <trkpt lat="45.8929" lon="4.65163">
        <ele>344.29</ele>
        <time>2014-07-05T15:53:56Z</time>
      </trkpt>
      <trkpt lat="45.89262" lon="4.65174">
        <ele>346.21</ele>
        <time>2014-07-05T15:54:13Z</time>
      </trkpt>
      <trkpt lat="45.89239" lon="4.65188">
        <ele>347.17</ele>
        <time>2014-07-05T15:54:28Z</time>
      </trkpt>
      <trkpt lat="45.89221" lon="4.65201">
        <ele>348.13</ele>
        <time>2014-07-05T15:54:41Z</time>
      </trkpt>
      <trkpt lat="45.89218" lon="4.65203">
        <ele>348.13</ele>
        <time>2014-07-05T15:54:51Z</time>
      </trkpt>
      <trkpt lat="45.89214" lon="4.65203">
        <ele>347.65</ele>
        <time>2014-07-05T15:57:58Z</time>
      </trkpt>
      <trkpt lat="45.89214" lon="4.65203">
        <ele>348.13</ele>
        <time>2014-07-05T15:58:20Z</time>
      </trkpt>
      <trkpt lat="45.89207" lon="4.65212">
        <ele>348.62</ele>
        <time>2014-07-05T15:58:29Z</time>
      </trkpt>
      <trkpt lat="45.89184" lon="4.65243">
        <ele>348.62</ele>
        <time>2014-07-05T15:58:39Z</time>
      </trkpt>
      <trkpt lat="45.89163" lon="4.65303">
        <ele>348.13</ele>
        <time>2014-07-05T15:58:51Z</time>
      </trkpt>
      <trkpt lat="45.89156" lon="4.65329">
        <ele>346.69</ele>
        <time>2014-07-05T15:58:58Z</time>
      </trkpt>
      <trkpt lat="45.89155" lon="4.65331">
        <ele>346.69</ele>
        <time>2014-07-05T15:58:59Z</time>
      </trkpt>
      <trkpt lat="45.89154" lon="4.65333">
        <ele>347.65</ele>
        <time>2014-07-05T15:59:00Z</time>
      </trkpt>
      <trkpt lat="45.89154" lon="4.65335">
        <ele>346.69</ele>
        <time>2014-07-05T15:59:01Z</time>
      </trkpt>
      <trkpt lat="45.89154" lon="4.65337">
        <ele>346.69</ele>
        <time>2014-07-05T15:59:02Z</time>
      </trkpt>
      <trkpt lat="45.89153" lon="4.65339">
        <ele>346.69</ele>
        <time>2014-07-05T15:59:03Z</time>
      </trkpt>
      <trkpt lat="45.89152" lon="4.65341">
        <ele>346.69</ele>
        <time>2014-07-05T15:59:04Z</time>
      </trkpt>
      <trkpt lat="45.89144" lon="4.65381">
        <ele>346.69</ele>
        <time>2014-07-05T15:59:14Z</time>
      </trkpt>
      <trkpt lat="45.89138" lon="4.65424">
        <ele>346.21</ele>
        <time>2014-07-05T15:59:24Z</time>
      </trkpt>
      <trkpt lat="45.89123" lon="4.65491">
        <ele>344.29</ele>
        <time>2014-07-05T15:59:35Z</time>
      </trkpt>
      <trkpt lat="45.8912" lon="4.65498">
        <ele>343.81</ele>
        <time>2014-07-05T15:59:36Z</time>
      </trkpt>
      <trkpt lat="45.89117" lon="4.65504">
        <ele>343.81</ele>
        <time>2014-07-05T15:59:37Z</time>
      </trkpt>
      <trkpt lat="45.89114" lon="4.65511">
        <ele>343.81</ele>
        <time>2014-07-05T15:59:38Z</time>
      </trkpt>
      <trkpt lat="45.89108" lon="4.65523">
        <ele>343.81</ele>
        <time>2014-07-05T15:59:40Z</time>
      </trkpt>
      <trkpt lat="45.89104" lon="4.65528">
        <ele>343.33</ele>
        <time>2014-07-05T15:59:41Z</time>
      </trkpt>
      <trkpt lat="45.89069" lon="4.65574">
        <ele>343.81</ele>
        <time>2014-07-05T15:59:52Z</time>
      </trkpt>
      <trkpt lat="45.8906" lon="4.65586">
        <ele>344.29</ele>
        <time>2014-07-05T15:59:55Z</time>
      </trkpt>
      <trkpt lat="45.89056" lon="4.65589">
        <ele>344.29</ele>
        <time>2014-07-05T15:59:56Z</time>
      </trkpt>
      <trkpt lat="45.89026" lon="4.65619">
        <ele>346.69</ele>
        <time>2014-07-05T16:00:07Z</time>
      </trkpt>
      <trkpt lat="45.88994" lon="4.65649">
        <ele>349.1</ele>
        <time>2014-07-05T16:00:21Z</time>
      </trkpt>
      <trkpt lat="45.88968" lon="4.65673">
        <ele>351.02</ele>
        <time>2014-07-05T16:00:35Z</time>
      </trkpt>
      <trkpt lat="45.88947" lon="4.65693">
        <ele>353.42</ele>
        <time>2014-07-05T16:00:47Z</time>
      </trkpt>
      <trkpt lat="45.88926" lon="4.65712">
        <ele>354.86</ele>
        <time>2014-07-05T16:00:59Z</time>
      </trkpt>
      <trkpt lat="45.88909" lon="4.65732">
        <ele>355.83</ele>
        <time>2014-07-05T16:01:12Z</time>
      </trkpt>
      <trkpt lat="45.88908" lon="4.65733">
        <ele>355.83</ele>
        <time>2014-07-05T16:01:13Z</time>
      </trkpt>
      <trkpt lat="45.88906" lon="4.65735">
        <ele>355.83</ele>
        <time>2014-07-05T16:01:14Z</time>
      </trkpt>
      <trkpt lat="45.88905" lon="4.65736">
        <ele>356.31</ele>
        <time>2014-07-05T16:01:15Z</time>
      </trkpt>
      <trkpt lat="45.88903" lon="4.65737">
        <ele>355.83</ele>
        <time>2014-07-05T16:01:16Z</time>
      </trkpt>
      <trkpt lat="45.88902" lon="4.65738">
        <ele>355.83</ele>
        <time>2014-07-05T16:01:17Z</time>
      </trkpt>
      <trkpt lat="45.88901" lon="4.65739">
        <ele>355.83</ele>
        <time>2014-07-05T16:01:18Z</time>
      </trkpt>
      <trkpt lat="45.88889" lon="4.65755">
        <ele>355.34</ele>
        <time>2014-07-05T16:01:29Z</time>
      </trkpt>
      <trkpt lat="45.88873" lon="4.65777">
        <ele>354.86</ele>
        <time>2014-07-05T16:01:40Z</time>
      </trkpt>
      <trkpt lat="45.88859" lon="4.65804">
        <ele>353.9</ele>
        <time>2014-07-05T16:01:53Z</time>
      </trkpt>
      <trkpt lat="45.88845" lon="4.65838">
        <ele>353.9</ele>
        <time>2014-07-05T16:02:02Z</time>
      </trkpt>
      <trkpt lat="45.88825" lon="4.65909">
        <ele>351.02</ele>
        <time>2014-07-05T16:02:13Z</time>
      </trkpt>
      <trkpt lat="45.88815" lon="4.65917">
        <ele>351.02</ele>
        <time>2014-07-05T16:02:16Z</time>
      </trkpt>
      <trkpt lat="45.88811" lon="4.65919">
        <ele>350.54</ele>
        <time>2014-07-05T16:02:17Z</time>
      </trkpt>
      <trkpt lat="45.88752" lon="4.65921">
        <ele>349.58</ele>
        <time>2014-07-05T16:02:27Z</time>
      </trkpt>
      <trkpt lat="45.88713" lon="4.65923">
        <ele>348.62</ele>
        <time>2014-07-05T16:02:36Z</time>
      </trkpt>
      <trkpt lat="45.88666" lon="4.65937">
        <ele>351.98</ele>
        <time>2014-07-05T16:02:49Z</time>
      </trkpt>
      <trkpt lat="45.88663" lon="4.65938">
        <ele>351.98</ele>
        <time>2014-07-05T16:02:50Z</time>
      </trkpt>
      <trkpt lat="45.88622" lon="4.65948">
        <ele>355.34</ele>
        <time>2014-07-05T16:03:04Z</time>
      </trkpt>
      <trkpt lat="45.88596" lon="4.65955">
        <ele>357.75</ele>
        <time>2014-07-05T16:03:16Z</time>
      </trkpt>
      <trkpt lat="45.88572" lon="4.65973">
        <ele>359.67</ele>
        <time>2014-07-05T16:03:29Z</time>
      </trkpt>
      <trkpt lat="45.88538" lon="4.65993">
        <ele>361.11</ele>
        <time>2014-07-05T16:03:47Z</time>
      </trkpt>
      <trkpt lat="45.88509" lon="4.66">
        <ele>360.63</ele>
        <time>2014-07-05T16:04:01Z</time>
      </trkpt>
      <trkpt lat="45.88486" lon="4.66006">
        <ele>361.59</ele>
        <time>2014-07-05T16:04:12Z</time>
      </trkpt>
      <trkpt lat="45.88471" lon="4.66014">
        <ele>360.63</ele>
        <time>2014-07-05T16:04:40Z</time>
      </trkpt>
      <trkpt lat="45.88471" lon="4.66016">
        <ele>361.11</ele>
        <time>2014-07-05T16:06:40Z</time>
      </trkpt>
      <trkpt lat="45.88467" lon="4.66018">
        <ele>361.11</ele>
        <time>2014-07-05T16:06:44Z</time>
      </trkpt>
      <trkpt lat="45.88465" lon="4.66019">
        <ele>361.11</ele>
        <time>2014-07-05T16:06:45Z</time>
      </trkpt>
      <trkpt lat="45.88463" lon="4.66019">
        <ele>361.59</ele>
        <time>2014-07-05T16:06:46Z</time>
      </trkpt>
      <trkpt lat="45.88437" lon="4.6603">
        <ele>360.63</ele>
        <time>2014-07-05T16:06:55Z</time>
      </trkpt>
      <trkpt lat="45.88371" lon="4.66048">
        <ele>359.19</ele>
        <time>2014-07-05T16:07:12Z</time>
      </trkpt>
      <trkpt lat="45.88328" lon="4.66055">
        <ele>359.19</ele>
        <time>2014-07-05T16:07:23Z</time>
      </trkpt>
      <trkpt lat="45.88284" lon="4.66073">
        <ele>359.19</ele>
        <time>2014-07-05T16:07:36Z</time>
      </trkpt>
      <trkpt lat="45.88239" lon="4.66098">
        <ele>360.15</ele>
        <time>2014-07-05T16:07:51Z</time>
      </trkpt>
      <trkpt lat="45.88194" lon="4.66118">
        <ele>361.11</ele>
        <time>2014-07-05T16:08:05Z</time>
      </trkpt>
      <trkpt lat="45.88167" lon="4.66125">
        <ele>362.07</ele>
        <time>2014-07-05T16:08:15Z</time>
      </trkpt>
      <trkpt lat="45.88119" lon="4.6613">
        <ele>361.59</ele>
        <time>2014-07-05T16:08:28Z</time>
      </trkpt>
      <trkpt lat="45.88059" lon="4.66135">
        <ele>361.11</ele>
        <time>2014-07-05T16:08:42Z</time>
      </trkpt>
      <trkpt lat="45.87996" lon="4.6614">
        <ele>362.07</ele>
        <time>2014-07-05T16:08:57Z</time>
      </trkpt>
      <trkpt lat="45.87935" lon="4.66136">
        <ele>361.59</ele>
        <time>2014-07-05T16:09:13Z</time>
      </trkpt>
      <trkpt lat="45.8789" lon="4.66131">
        <ele>361.11</ele>
        <time>2014-07-05T16:09:23Z</time>
      </trkpt>
      <trkpt lat="45.87826" lon="4.66151">
        <ele>361.59</ele>
        <time>2014-07-05T16:09:39Z</time>
      </trkpt>
      <trkpt lat="45.87781" lon="4.66168">
        <ele>361.11</ele>
        <time>2014-07-05T16:09:51Z</time>
      </trkpt>
      <trkpt lat="45.87755" lon="4.6617">
        <ele>361.11</ele>
        <time>2014-07-05T16:09:58Z</time>
      </trkpt>
      <trkpt lat="45.87751" lon="4.66171">
        <ele>360.63</ele>
        <time>2014-07-05T16:09:59Z</time>
      </trkpt>
      <trkpt lat="45.87747" lon="4.66172">
        <ele>361.11</ele>
        <time>2014-07-05T16:10:00Z</time>
      </trkpt>
      <trkpt lat="45.87712" lon="4.6617">
        <ele>361.59</ele>
        <time>2014-07-05T16:10:10Z</time>
      </trkpt>
      <trkpt lat="45.87674" lon="4.66178">
        <ele>361.11</ele>
        <time>2014-07-05T16:10:19Z</time>
      </trkpt>
      <trkpt lat="45.87636" lon="4.66183">
        <ele>361.59</ele>
        <time>2014-07-05T16:10:29Z</time>
      </trkpt>
      <trkpt lat="45.87594" lon="4.66188">
        <ele>361.11</ele>
        <time>2014-07-05T16:10:39Z</time>
      </trkpt>
      <trkpt lat="45.8754" lon="4.66199">
        <ele>358.23</ele>
        <time>2014-07-05T16:10:49Z</time>
      </trkpt>
      <trkpt lat="45.87534" lon="4.66202">
        <ele>358.23</ele>
        <time>2014-07-05T16:10:50Z</time>
      </trkpt>
      <trkpt lat="45.87469" lon="4.66235">
        <ele>355.83</ele>
        <time>2014-07-05T16:10:59Z</time>
      </trkpt>
      <trkpt lat="45.87449" lon="4.66244">
        <ele>354.86</ele>
        <time>2014-07-05T16:11:02Z</time>
      </trkpt>
      <trkpt lat="45.87433" lon="4.66256">
        <ele>354.86</ele>
        <time>2014-07-05T16:11:05Z</time>
      </trkpt>
      <trkpt lat="45.87385" lon="4.66322">
        <ele>353.9</ele>
        <time>2014-07-05T16:11:17Z</time>
      </trkpt>
      <trkpt lat="45.87344" lon="4.66423">
        <ele>352.94</ele>
        <time>2014-07-05T16:11:30Z</time>
      </trkpt>
      <trkpt lat="45.87309" lon="4.66503">
        <ele>349.58</ele>
        <time>2014-07-05T16:11:38Z</time>
      </trkpt>
      <trkpt lat="45.87278" lon="4.66562">
        <ele>346.21</ele>
        <time>2014-07-05T16:11:43Z</time>
      </trkpt>
      <trkpt lat="45.87271" lon="4.66574">
        <ele>345.73</ele>
        <time>2014-07-05T16:11:44Z</time>
      </trkpt>
      <trkpt lat="45.8724" lon="4.66623">
        <ele>341.89</ele>
        <time>2014-07-05T16:11:48Z</time>
      </trkpt>
      <trkpt lat="45.87218" lon="4.66661">
        <ele>339.96</ele>
        <time>2014-07-05T16:11:51Z</time>
      </trkpt>
      <trkpt lat="45.87181" lon="4.66715">
        <ele>338.52</ele>
        <time>2014-07-05T16:11:56Z</time>
      </trkpt>
      <trkpt lat="45.87175" lon="4.66725">
        <ele>338.04</ele>
        <time>2014-07-05T16:11:57Z</time>
      </trkpt>
      <trkpt lat="45.8714" lon="4.66798">
        <ele>338.52</ele>
        <time>2014-07-05T16:12:05Z</time>
      </trkpt>
      <trkpt lat="45.8712" lon="4.66878">
        <ele>339.48</ele>
        <time>2014-07-05T16:12:16Z</time>
      </trkpt>
      <trkpt lat="45.87107" lon="4.66942">
        <ele>339.96</ele>
        <time>2014-07-05T16:12:27Z</time>
      </trkpt>
      <trkpt lat="45.87072" lon="4.67018">
        <ele>340.92</ele>
        <time>2014-07-05T16:12:42Z</time>
      </trkpt>
      <trkpt lat="45.87063" lon="4.67032">
        <ele>341.41</ele>
        <time>2014-07-05T16:12:45Z</time>
      </trkpt>
      <trkpt lat="45.87028" lon="4.67085">
        <ele>339.48</ele>
        <time>2014-07-05T16:12:57Z</time>
      </trkpt>
      <trkpt lat="45.87011" lon="4.67106">
        <ele>339.48</ele>
        <time>2014-07-05T16:28:40Z</time>
      </trkpt>
      <trkpt lat="45.87012" lon="4.67111">
        <ele>339</ele>
        <time>2014-07-05T16:28:42Z</time>
      </trkpt>
      <trkpt lat="45.87012" lon="4.67114">
        <ele>338.52</ele>
        <time>2014-07-05T16:28:43Z</time>
      </trkpt>
      <trkpt lat="45.87014" lon="4.67124">
        <ele>338.52</ele>
        <time>2014-07-05T16:28:45Z</time>
      </trkpt>
      <trkpt lat="45.87016" lon="4.6713">
        <ele>339</ele>
        <time>2014-07-05T16:28:46Z</time>
      </trkpt>
      <trkpt lat="45.8702" lon="4.67134">
        <ele>338.04</ele>
        <time>2014-07-05T16:28:47Z</time>
      </trkpt>
      <trkpt lat="45.87034" lon="4.67164">
        <ele>339.48</ele>
        <time>2014-07-05T16:28:55Z</time>
      </trkpt>
      <trkpt lat="45.87039" lon="4.67189">
        <ele>341.41</ele>
        <time>2014-07-05T16:29:05Z</time>
      </trkpt>
      <trkpt lat="45.87043" lon="4.67225">
        <ele>344.77</ele>
        <time>2014-07-05T16:29:21Z</time>
      </trkpt>
      <trkpt lat="45.87048" lon="4.67254">
        <ele>346.21</ele>
        <time>2014-07-05T16:29:34Z</time>
      </trkpt>
      <trkpt lat="45.87059" lon="4.67281">
        <ele>349.1</ele>
        <time>2014-07-05T16:29:49Z</time>
      </trkpt>
      <trkpt lat="45.87068" lon="4.67303">
        <ele>351.5</ele>
        <time>2014-07-05T16:30:01Z</time>
      </trkpt>
      <trkpt lat="45.87077" lon="4.67329">
        <ele>352.94</ele>
        <time>2014-07-05T16:30:14Z</time>
      </trkpt>
      <trkpt lat="45.87089" lon="4.67356">
        <ele>353.9</ele>
        <time>2014-07-05T16:30:27Z</time>
      </trkpt>
      <trkpt lat="45.87101" lon="4.67387">
        <ele>355.34</ele>
        <time>2014-07-05T16:30:40Z</time>
      </trkpt>
      <trkpt lat="45.87117" lon="4.67424">
        <ele>357.27</ele>
        <time>2014-07-05T16:30:56Z</time>
      </trkpt>
      <trkpt lat="45.87131" lon="4.67456">
        <ele>357.75</ele>
        <time>2014-07-05T16:31:08Z</time>
      </trkpt>
      <trkpt lat="45.87154" lon="4.675">
        <ele>357.27</ele>
        <time>2014-07-05T16:31:20Z</time>
      </trkpt>
      <trkpt lat="45.87189" lon="4.67566">
        <ele>356.31</ele>
        <time>2014-07-05T16:31:34Z</time>
      </trkpt>
      <trkpt lat="45.87218" lon="4.67625">
        <ele>357.27</ele>
        <time>2014-07-05T16:31:47Z</time>
      </trkpt>
      <trkpt lat="45.87241" lon="4.67684">
        <ele>357.27</ele>
        <time>2014-07-05T16:32:00Z</time>
      </trkpt>
      <trkpt lat="45.87249" lon="4.67699">
        <ele>357.27</ele>
        <time>2014-07-05T16:32:03Z</time>
      </trkpt>
      <trkpt lat="45.87265" lon="4.67721">
        <ele>356.79</ele>
        <time>2014-07-05T16:32:08Z</time>
      </trkpt>
      <trkpt lat="45.87269" lon="4.67723">
        <ele>356.79</ele>
        <time>2014-07-05T16:32:09Z</time>
      </trkpt>
      <trkpt lat="45.87288" lon="4.67734">
        <ele>356.79</ele>
        <time>2014-07-05T16:32:13Z</time>
      </trkpt>
      <trkpt lat="45.87343" lon="4.67751">
        <ele>355.83</ele>
        <time>2014-07-05T16:32:24Z</time>
      </trkpt>
      <trkpt lat="45.87415" lon="4.67774">
        <ele>354.86</ele>
        <time>2014-07-05T16:32:39Z</time>
      </trkpt>
      <trkpt lat="45.87435" lon="4.67781">
        <ele>354.38</ele>
        <time>2014-07-05T16:32:43Z</time>
      </trkpt>
      <trkpt lat="45.87441" lon="4.67784">
        <ele>354.38</ele>
        <time>2014-07-05T16:32:44Z</time>
      </trkpt>
      <trkpt lat="45.87445" lon="4.67787">
        <ele>353.9</ele>
        <time>2014-07-05T16:32:45Z</time>
      </trkpt>
      <trkpt lat="45.8745" lon="4.67791">
        <ele>353.42</ele>
        <time>2014-07-05T16:32:46Z</time>
      </trkpt>
      <trkpt lat="45.87455" lon="4.67796">
        <ele>352.94</ele>
        <time>2014-07-05T16:32:47Z</time>
      </trkpt>
      <trkpt lat="45.8746" lon="4.67802">
        <ele>352.94</ele>
        <time>2014-07-05T16:32:48Z</time>
      </trkpt>
      <trkpt lat="45.87464" lon="4.67809">
        <ele>351.98</ele>
        <time>2014-07-05T16:32:49Z</time>
      </trkpt>
      <trkpt lat="45.87481" lon="4.67848">
        <ele>349.1</ele>
        <time>2014-07-05T16:32:53Z</time>
      </trkpt>
      <trkpt lat="45.87498" lon="4.67887">
        <ele>345.73</ele>
        <time>2014-07-05T16:32:57Z</time>
      </trkpt>
      <trkpt lat="45.87515" lon="4.67934">
        <ele>342.37</ele>
        <time>2014-07-05T16:33:01Z</time>
      </trkpt>
      <trkpt lat="45.8752" lon="4.67961">
        <ele>340.92</ele>
        <time>2014-07-05T16:33:03Z</time>
      </trkpt>
      <trkpt lat="45.87533" lon="4.68004">
        <ele>341.89</ele>
        <time>2014-07-05T16:33:07Z</time>
      </trkpt>
      <trkpt lat="45.87537" lon="4.68009">
        <ele>341.89</ele>
        <time>2014-07-05T16:33:08Z</time>
      </trkpt>
      <trkpt lat="45.8754" lon="4.68013">
        <ele>341.89</ele>
        <time>2014-07-05T16:33:09Z</time>
      </trkpt>
      <trkpt lat="45.87544" lon="4.68013">
        <ele>342.37</ele>
        <time>2014-07-05T16:33:10Z</time>
      </trkpt>
      <trkpt lat="45.87547" lon="4.68011">
        <ele>342.85</ele>
        <time>2014-07-05T16:33:11Z</time>
      </trkpt>
      <trkpt lat="45.8755" lon="4.68008">
        <ele>342.85</ele>
        <time>2014-07-05T16:33:12Z</time>
      </trkpt>
      <trkpt lat="45.87553" lon="4.68004">
        <ele>343.33</ele>
        <time>2014-07-05T16:33:13Z</time>
      </trkpt>
      <trkpt lat="45.87576" lon="4.67976">
        <ele>345.73</ele>
        <time>2014-07-05T16:33:22Z</time>
      </trkpt>
      <trkpt lat="45.87598" lon="4.67982">
        <ele>347.65</ele>
        <time>2014-07-05T16:33:31Z</time>
      </trkpt>
      <trkpt lat="45.87608" lon="4.68018">
        <ele>350.06</ele>
        <time>2014-07-05T16:33:42Z</time>
      </trkpt>
      <trkpt lat="45.87604" lon="4.68065">
        <ele>351.98</ele>
        <time>2014-07-05T16:33:55Z</time>
      </trkpt>
      <trkpt lat="45.87593" lon="4.68118">
        <ele>352.46</ele>
        <time>2014-07-05T16:34:09Z</time>
      </trkpt>
      <trkpt lat="45.87584" lon="4.68167">
        <ele>353.42</ele>
        <time>2014-07-05T16:34:21Z</time>
      </trkpt>
      <trkpt lat="45.87564" lon="4.68231">
        <ele>352.46</ele>
        <time>2014-07-05T16:34:34Z</time>
      </trkpt>
      <trkpt lat="45.87531" lon="4.68298">
        <ele>351.98</ele>
        <time>2014-07-05T16:34:48Z</time>
      </trkpt>
      <trkpt lat="45.87502" lon="4.68353">
        <ele>353.42</ele>
        <time>2014-07-05T16:35:02Z</time>
      </trkpt>
      <trkpt lat="45.87483" lon="4.68389">
        <ele>354.86</ele>
        <time>2014-07-05T16:35:15Z</time>
      </trkpt>
      <trkpt lat="45.8746" lon="4.68408">
        <ele>357.27</ele>
        <time>2014-07-05T16:35:27Z</time>
      </trkpt>
      <trkpt lat="45.87434" lon="4.6843">
        <ele>358.23</ele>
        <time>2014-07-05T16:35:38Z</time>
      </trkpt>
      <trkpt lat="45.87402" lon="4.68463">
        <ele>359.19</ele>
        <time>2014-07-05T16:35:51Z</time>
      </trkpt>
      <trkpt lat="45.87385" lon="4.68486">
        <ele>360.63</ele>
        <time>2014-07-05T16:36:01Z</time>
      </trkpt>
      <trkpt lat="45.87366" lon="4.68504">
        <ele>359.67</ele>
        <time>2014-07-05T16:36:08Z</time>
      </trkpt>
      <trkpt lat="45.87334" lon="4.68531">
        <ele>356.31</ele>
        <time>2014-07-05T16:36:14Z</time>
      </trkpt>
      <trkpt lat="45.87313" lon="4.68553">
        <ele>352.46</ele>
        <time>2014-07-05T16:36:18Z</time>
      </trkpt>
      <trkpt lat="45.87298" lon="4.68569">
        <ele>350.54</ele>
        <time>2014-07-05T16:36:21Z</time>
      </trkpt>
      <trkpt lat="45.87273" lon="4.68588">
        <ele>346.69</ele>
        <time>2014-07-05T16:36:25Z</time>
      </trkpt>
      <trkpt lat="45.87266" lon="4.68593">
        <ele>346.69</ele>
        <time>2014-07-05T16:36:26Z</time>
      </trkpt>
      <trkpt lat="45.87236" lon="4.68612">
        <ele>343.33</ele>
        <time>2014-07-05T16:36:30Z</time>
      </trkpt>
      <trkpt lat="45.87214" lon="4.68625">
        <ele>341.41</ele>
        <time>2014-07-05T16:36:33Z</time>
      </trkpt>
      <trkpt lat="45.87207" lon="4.68627">
        <ele>340.92</ele>
        <time>2014-07-05T16:36:34Z</time>
      </trkpt>
      <trkpt lat="45.872" lon="4.68628">
        <ele>339.96</ele>
        <time>2014-07-05T16:36:35Z</time>
      </trkpt>
      <trkpt lat="45.87192" lon="4.68629">
        <ele>339</ele>
        <time>2014-07-05T16:36:36Z</time>
      </trkpt>
      <trkpt lat="45.87186" lon="4.68628">
        <ele>338.52</ele>
        <time>2014-07-05T16:36:37Z</time>
      </trkpt>
      <trkpt lat="45.8718" lon="4.68626">
        <ele>338.04</ele>
        <time>2014-07-05T16:36:38Z</time>
      </trkpt>
      <trkpt lat="45.87174" lon="4.68624">
        <ele>337.08</ele>
        <time>2014-07-05T16:36:39Z</time>
      </trkpt>
      <trkpt lat="45.87169" lon="4.68623">
        <ele>336.12</ele>
        <time>2014-07-05T16:36:40Z</time>
      </trkpt>
      <trkpt lat="45.87163" lon="4.68623">
        <ele>336.12</ele>
        <time>2014-07-05T16:36:41Z</time>
      </trkpt>
      <trkpt lat="45.87157" lon="4.68624">
        <ele>335.64</ele>
        <time>2014-07-05T16:36:42Z</time>
      </trkpt>
      <trkpt lat="45.87151" lon="4.68627">
        <ele>335.16</ele>
        <time>2014-07-05T16:36:43Z</time>
      </trkpt>
      <trkpt lat="45.87108" lon="4.68642">
        <ele>330.83</ele>
        <time>2014-07-05T16:36:49Z</time>
      </trkpt>
      <trkpt lat="45.87088" lon="4.68647">
        <ele>329.39</ele>
        <time>2014-07-05T16:36:52Z</time>
      </trkpt>
      <trkpt lat="45.87081" lon="4.68652">
        <ele>328.91</ele>
        <time>2014-07-05T16:36:53Z</time>
      </trkpt>
      <trkpt lat="45.87046" lon="4.6868">
        <ele>326.02</ele>
        <time>2014-07-05T16:36:58Z</time>
      </trkpt>
      <trkpt lat="45.8703" lon="4.68692">
        <ele>324.1</ele>
        <time>2014-07-05T16:37:01Z</time>
      </trkpt>
      <trkpt lat="45.87027" lon="4.68694">
        <ele>323.62</ele>
        <time>2014-07-05T16:37:02Z</time>
      </trkpt>
      <trkpt lat="45.87024" lon="4.68695">
        <ele>323.14</ele>
        <time>2014-07-05T16:37:03Z</time>
      </trkpt>
      <trkpt lat="45.87021" lon="4.68696">
        <ele>323.14</ele>
        <time>2014-07-05T16:37:04Z</time>
      </trkpt>
      <trkpt lat="45.87018" lon="4.68698">
        <ele>322.66</ele>
        <time>2014-07-05T16:37:05Z</time>
      </trkpt>
      <trkpt lat="45.87014" lon="4.687">
        <ele>322.18</ele>
        <time>2014-07-05T16:37:06Z</time>
      </trkpt>
      <trkpt lat="45.87002" lon="4.68708">
        <ele>320.74</ele>
        <time>2014-07-05T16:37:09Z</time>
      </trkpt>
      <trkpt lat="45.86977" lon="4.68721">
        <ele>317.37</ele>
        <time>2014-07-05T16:37:16Z</time>
      </trkpt>
      <trkpt lat="45.86958" lon="4.68736">
        <ele>314.49</ele>
        <time>2014-07-05T16:37:21Z</time>
      </trkpt>
      <trkpt lat="45.86938" lon="4.68755">
        <ele>311.12</ele>
        <time>2014-07-05T16:37:26Z</time>
      </trkpt>
      <trkpt lat="45.86918" lon="4.68779">
        <ele>307.28</ele>
        <time>2014-07-05T16:37:32Z</time>
      </trkpt>
      <trkpt lat="45.86901" lon="4.68801">
        <ele>303.91</ele>
        <time>2014-07-05T16:37:39Z</time>
      </trkpt>
      <trkpt lat="45.86896" lon="4.68808">
        <ele>302.95</ele>
        <time>2014-07-05T16:37:41Z</time>
      </trkpt>
      <trkpt lat="45.86885" lon="4.68823">
        <ele>300.07</ele>
        <time>2014-07-05T16:37:46Z</time>
      </trkpt>
      <trkpt lat="45.86874" lon="4.68838">
        <ele>297.18</ele>
        <time>2014-07-05T16:37:51Z</time>
      </trkpt>
      <trkpt lat="45.86865" lon="4.68847">
        <ele>295.26</ele>
        <time>2014-07-05T16:37:55Z</time>
      </trkpt>
      <trkpt lat="45.86853" lon="4.68858">
        <ele>291.42</ele>
        <time>2014-07-05T16:38:00Z</time>
      </trkpt>
      <trkpt lat="45.86848" lon="4.68863">
        <ele>290.94</ele>
        <time>2014-07-05T16:38:02Z</time>
      </trkpt>
      <trkpt lat="45.86842" lon="4.6887">
        <ele>289.01</ele>
        <time>2014-07-05T16:38:05Z</time>
      </trkpt>
      <trkpt lat="45.86833" lon="4.68882">
        <ele>286.61</ele>
        <time>2014-07-05T16:38:09Z</time>
      </trkpt>
      <trkpt lat="45.86823" lon="4.68896">
        <ele>282.77</ele>
        <time>2014-07-05T16:38:13Z</time>
      </trkpt>
      <trkpt lat="45.86812" lon="4.68912">
        <ele>279.4</ele>
        <time>2014-07-05T16:38:18Z</time>
      </trkpt>
      <trkpt lat="45.86802" lon="4.68923">
        <ele>277</ele>
        <time>2014-07-05T16:38:22Z</time>
      </trkpt>
      <trkpt lat="45.8679" lon="4.68935">
        <ele>273.15</ele>
        <time>2014-07-05T16:38:27Z</time>
      </trkpt>
      <trkpt lat="45.86781" lon="4.68944">
        <ele>271.23</ele>
        <time>2014-07-05T16:38:31Z</time>
      </trkpt>
      <trkpt lat="45.86775" lon="4.68949">
        <ele>270.27</ele>
        <time>2014-07-05T16:38:33Z</time>
      </trkpt>
      <trkpt lat="45.86762" lon="4.68958">
        <ele>266.9</ele>
        <time>2014-07-05T16:38:38Z</time>
      </trkpt>
      <trkpt lat="45.86759" lon="4.68962">
        <ele>266.42</ele>
        <time>2014-07-05T16:38:39Z</time>
      </trkpt>
      <trkpt lat="45.86744" lon="4.68995">
        <ele>263.54</ele>
        <time>2014-07-05T16:38:47Z</time>
      </trkpt>
      <trkpt lat="45.8673" lon="4.69017">
        <ele>260.65</ele>
        <time>2014-07-05T16:38:53Z</time>
      </trkpt>
      <trkpt lat="45.86722" lon="4.69033">
        <ele>257.29</ele>
        <time>2014-07-05T16:38:58Z</time>
      </trkpt>
      <trkpt lat="45.86708" lon="4.69044">
        <ele>253.93</ele>
        <time>2014-07-05T16:39:04Z</time>
      </trkpt>
      <trkpt lat="45.86691" lon="4.69052">
        <ele>251.04</ele>
        <time>2014-07-05T16:39:09Z</time>
      </trkpt>
      <trkpt lat="45.86674" lon="4.69059">
        <ele>248.64</ele>
        <time>2014-07-05T16:39:15Z</time>
      </trkpt>
      <trkpt lat="45.86673" lon="4.69056">
        <ele>248.64</ele>
        <time>2014-07-05T16:39:16Z</time>
      </trkpt>
      <trkpt lat="45.86672" lon="4.69053">
        <ele>248.16</ele>
        <time>2014-07-05T16:39:17Z</time>
      </trkpt>
      <trkpt lat="45.8666" lon="4.69002">
        <ele>249.12</ele>
        <time>2014-07-05T16:39:28Z</time>
      </trkpt>
      <trkpt lat="45.86656" lon="4.68975">
        <ele>248.64</ele>
        <time>2014-07-05T16:39:36Z</time>
      </trkpt>
      <trkpt lat="45.86656" lon="4.68975">
        <ele>249.12</ele>
        <time>2014-07-05T16:39:38Z</time>
      </trkpt>
      <trkpt lat="45.86655" lon="4.68975">
        <ele>248.64</ele>
        <time>2014-07-05T16:39:39Z</time>
      </trkpt>
      <trkpt lat="45.86653" lon="4.68973">
        <ele>248.64</ele>
        <time>2014-07-05T16:39:40Z</time>
      </trkpt>
      <trkpt lat="45.86652" lon="4.68972">
        <ele>249.12</ele>
        <time>2014-07-05T16:39:41Z</time>
      </trkpt>
      <trkpt lat="45.8665" lon="4.68972">
        <ele>249.12</ele>
        <time>2014-07-05T16:39:42Z</time>
      </trkpt>
      <trkpt lat="45.86646" lon="4.68973">
        <ele>248.16</ele>
        <time>2014-07-05T16:39:43Z</time>
      </trkpt>
      <trkpt lat="45.86642" lon="4.68975">
        <ele>248.64</ele>
        <time>2014-07-05T16:39:44Z</time>
      </trkpt>
      <trkpt lat="45.86637" lon="4.68978">
        <ele>247.68</ele>
        <time>2014-07-05T16:39:45Z</time>
      </trkpt>
      <trkpt lat="45.8662" lon="4.6899">
        <ele>246.23</ele>
        <time>2014-07-05T16:39:49Z</time>
      </trkpt>
      <trkpt lat="45.86602" lon="4.69002">
        <ele>244.79</ele>
        <time>2014-07-05T16:39:53Z</time>
      </trkpt>
      <trkpt lat="45.86594" lon="4.6901">
        <ele>244.79</ele>
        <time>2014-07-05T16:39:55Z</time>
      </trkpt>
      <trkpt lat="45.86534" lon="4.69051">
        <ele>241.43</ele>
        <time>2014-07-05T16:40:07Z</time>
      </trkpt>
      <trkpt lat="45.86519" lon="4.69059">
        <ele>240.47</ele>
        <time>2014-07-05T16:40:10Z</time>
      </trkpt>
      <trkpt lat="45.86508" lon="4.69065">
        <ele>240.95</ele>
        <time>2014-07-05T16:40:12Z</time>
      </trkpt>
      <trkpt lat="45.86487" lon="4.69076">
        <ele>239.99</ele>
        <time>2014-07-05T16:40:16Z</time>
      </trkpt>
      <trkpt lat="45.86482" lon="4.69078">
        <ele>239.51</ele>
        <time>2014-07-05T16:40:17Z</time>
      </trkpt>
      <trkpt lat="45.86477" lon="4.69078">
        <ele>239.99</ele>
        <time>2014-07-05T16:40:18Z</time>
      </trkpt>
      <trkpt lat="45.86472" lon="4.69079">
        <ele>239.51</ele>
        <time>2014-07-05T16:40:19Z</time>
      </trkpt>
      <trkpt lat="45.86467" lon="4.69079">
        <ele>239.02</ele>
        <time>2014-07-05T16:40:20Z</time>
      </trkpt>
      <trkpt lat="45.86462" lon="4.6908">
        <ele>239.99</ele>
        <time>2014-07-05T16:40:21Z</time>
      </trkpt>
      <trkpt lat="45.86457" lon="4.69082">
        <ele>239.02</ele>
        <time>2014-07-05T16:40:22Z</time>
      </trkpt>
      <trkpt lat="45.86452" lon="4.69084">
        <ele>239.51</ele>
        <time>2014-07-05T16:40:23Z</time>
      </trkpt>
      <trkpt lat="45.86447" lon="4.69086">
        <ele>239.02</ele>
        <time>2014-07-05T16:40:24Z</time>
      </trkpt>
      <trkpt lat="45.86393" lon="4.69123">
        <ele>236.62</ele>
        <time>2014-07-05T16:40:35Z</time>
      </trkpt>
      <trkpt lat="45.86367" lon="4.69138">
        <ele>234.22</ele>
        <time>2014-07-05T16:40:43Z</time>
      </trkpt>
      <trkpt lat="45.86366" lon="4.69136">
        <ele>234.22</ele>
        <time>2014-07-05T16:40:44Z</time>
      </trkpt>
      <trkpt lat="45.86365" lon="4.69131">
        <ele>233.74</ele>
        <time>2014-07-05T16:40:45Z</time>
      </trkpt>
      <trkpt lat="45.86364" lon="4.69127">
        <ele>233.74</ele>
        <time>2014-07-05T16:40:46Z</time>
      </trkpt>
      <trkpt lat="45.86363" lon="4.69122">
        <ele>233.74</ele>
        <time>2014-07-05T16:40:47Z</time>
      </trkpt>
      <trkpt lat="45.8636" lon="4.6911">
        <ele>233.74</ele>
        <time>2014-07-05T16:40:49Z</time>
      </trkpt>
      <trkpt lat="45.86354" lon="4.6909">
        <ele>233.26</ele>
        <time>2014-07-05T16:40:52Z</time>
      </trkpt>
      <trkpt lat="45.8635" lon="4.69084">
        <ele>233.26</ele>
        <time>2014-07-05T16:40:53Z</time>
      </trkpt>
      <trkpt lat="45.86347" lon="4.69079">
        <ele>233.74</ele>
        <time>2014-07-05T16:40:54Z</time>
      </trkpt>
      <trkpt lat="45.86342" lon="4.69076">
        <ele>233.26</ele>
        <time>2014-07-05T16:40:55Z</time>
      </trkpt>
      <trkpt lat="45.86336" lon="4.69075">
        <ele>232.78</ele>
        <time>2014-07-05T16:40:56Z</time>
      </trkpt>
      <trkpt lat="45.8633" lon="4.69076">
        <ele>232.3</ele>
        <time>2014-07-05T16:40:57Z</time>
      </trkpt>
      <trkpt lat="45.86325" lon="4.69077">
        <ele>231.81</ele>
        <time>2014-07-05T16:40:58Z</time>
      </trkpt>
      <trkpt lat="45.86319" lon="4.69079">
        <ele>231.81</ele>
        <time>2014-07-05T16:40:59Z</time>
      </trkpt>
      <trkpt lat="45.86294" lon="4.69087">
        <ele>229.41</ele>
        <time>2014-07-05T16:41:06Z</time>
      </trkpt>
      <trkpt lat="45.86275" lon="4.69081">
        <ele>229.41</ele>
        <time>2014-07-05T16:41:14Z</time>
      </trkpt>
      <trkpt lat="45.8625" lon="4.69072">
        <ele>227.97</ele>
        <time>2014-07-05T16:41:19Z</time>
      </trkpt>
      <trkpt lat="45.86196" lon="4.69069">
        <ele>224.61</ele>
        <time>2014-07-05T16:41:27Z</time>
      </trkpt>
      <trkpt lat="45.86144" lon="4.69075">
        <ele>221.24</ele>
        <time>2014-07-05T16:41:35Z</time>
      </trkpt>
      <trkpt lat="45.86123" lon="4.69078">
        <ele>219.8</ele>
        <time>2014-07-05T16:41:39Z</time>
      </trkpt>
      <trkpt lat="45.86118" lon="4.69077">
        <ele>219.32</ele>
        <time>2014-07-05T16:41:40Z</time>
      </trkpt>
      <trkpt lat="45.86114" lon="4.69073">
        <ele>219.8</ele>
        <time>2014-07-05T16:41:41Z</time>
      </trkpt>
      <trkpt lat="45.8611" lon="4.69067">
        <ele>218.84</ele>
        <time>2014-07-05T16:41:42Z</time>
      </trkpt>
      <trkpt lat="45.86106" lon="4.69061">
        <ele>218.84</ele>
        <time>2014-07-05T16:41:43Z</time>
      </trkpt>
      <trkpt lat="45.86092" lon="4.69034">
        <ele>217.88</ele>
        <time>2014-07-05T16:41:47Z</time>
      </trkpt>
      <trkpt lat="45.86086" lon="4.69022">
        <ele>217.4</ele>
        <time>2014-07-05T16:41:49Z</time>
      </trkpt>
      <trkpt lat="45.86083" lon="4.69017">
        <ele>217.4</ele>
        <time>2014-07-05T16:41:50Z</time>
      </trkpt>
      <trkpt lat="45.86053" lon="4.68955">
        <ele>216.43</ele>
        <time>2014-07-05T16:42:02Z</time>
      </trkpt>
      <trkpt lat="45.86038" lon="4.68885">
        <ele>216.91</ele>
        <time>2014-07-05T16:42:15Z</time>
      </trkpt>
      <trkpt lat="45.86026" lon="4.68806">
        <ele>217.4</ele>
        <time>2014-07-05T16:42:30Z</time>
      </trkpt>
      <trkpt lat="45.86014" lon="4.68761">
        <ele>217.88</ele>
        <time>2014-07-05T16:42:40Z</time>
      </trkpt>
      <trkpt lat="45.86004" lon="4.68711">
        <ele>217.88</ele>
        <time>2014-07-05T16:42:50Z</time>
      </trkpt>
      <trkpt lat="45.85993" lon="4.68695">
        <ele>217.4</ele>
        <time>2014-07-05T16:42:55Z</time>
      </trkpt>
      <trkpt lat="45.85991" lon="4.68695">
        <ele>217.4</ele>
        <time>2014-07-05T16:42:56Z</time>
      </trkpt>
      <trkpt lat="45.85988" lon="4.68696">
        <ele>217.4</ele>
        <time>2014-07-05T16:42:57Z</time>
      </trkpt>
      <trkpt lat="45.85984" lon="4.68697">
        <ele>217.4</ele>
        <time>2014-07-05T16:42:58Z</time>
      </trkpt>
      <trkpt lat="45.85981" lon="4.68698">
        <ele>217.88</ele>
        <time>2014-07-05T16:42:59Z</time>
      </trkpt>
      <trkpt lat="45.85977" lon="4.68699">
        <ele>217.88</ele>
        <time>2014-07-05T16:43:00Z</time>
      </trkpt>
      <trkpt lat="45.8595" lon="4.68707">
        <ele>216.91</ele>
        <time>2014-07-05T16:43:07Z</time>
      </trkpt>
      <trkpt lat="45.85946" lon="4.68708">
        <ele>216.91</ele>
        <time>2014-07-05T16:43:08Z</time>
      </trkpt>
      <trkpt lat="45.859" lon="4.68717">
        <ele>216.91</ele>
        <time>2014-07-05T16:43:20Z</time>
      </trkpt>
      <trkpt lat="45.85898" lon="4.68715">
        <ele>216.91</ele>
        <time>2014-07-05T16:43:21Z</time>
      </trkpt>
      <trkpt lat="45.85897" lon="4.68713">
        <ele>216.43</ele>
        <time>2014-07-05T16:43:27Z</time>
      </trkpt>
      <trkpt lat="45.85897" lon="4.68711">
        <ele>216.43</ele>
        <time>2014-07-05T16:43:28Z</time>
      </trkpt>
      <trkpt lat="45.85897" lon="4.68709">
        <ele>216.43</ele>
        <time>2014-07-05T16:43:29Z</time>
      </trkpt>
      <trkpt lat="45.85897" lon="4.68705">
        <ele>216.91</ele>
        <time>2014-07-05T16:43:30Z</time>
      </trkpt>
      <trkpt lat="45.85897" lon="4.68701">
        <ele>216.91</ele>
        <time>2014-07-05T16:43:31Z</time>
      </trkpt>
      <trkpt lat="45.85898" lon="4.68696">
        <ele>216.91</ele>
        <time>2014-07-05T16:43:32Z</time>
      </trkpt>
      <trkpt lat="45.85899" lon="4.68692">
        <ele>216.43</ele>
        <time>2014-07-05T16:43:33Z</time>
      </trkpt>
      <trkpt lat="45.85899" lon="4.68687">
        <ele>216.91</ele>
        <time>2014-07-05T16:43:34Z</time>
      </trkpt>
      <trkpt lat="45.85898" lon="4.68616">
        <ele>217.4</ele>
        <time>2014-07-05T16:43:48Z</time>
      </trkpt>
      <trkpt lat="45.85888" lon="4.68577">
        <ele>216.91</ele>
        <time>2014-07-05T16:43:56Z</time>
      </trkpt>
      <trkpt lat="45.8588" lon="4.68523">
        <ele>216.91</ele>
        <time>2014-07-05T16:44:07Z</time>
      </trkpt>
      <trkpt lat="45.85871" lon="4.6847">
        <ele>216.91</ele>
        <time>2014-07-05T16:44:19Z</time>
      </trkpt>
      <trkpt lat="45.85863" lon="4.6842">
        <ele>216.91</ele>
        <time>2014-07-05T16:44:31Z</time>
      </trkpt>
      <trkpt lat="45.85857" lon="4.68401">
        <ele>216.91</ele>
        <time>2014-07-05T16:44:35Z</time>
      </trkpt>
      <trkpt lat="45.85854" lon="4.68396">
        <ele>215.95</ele>
        <time>2014-07-05T16:44:36Z</time>
      </trkpt>
      <trkpt lat="45.85849" lon="4.68386">
        <ele>215.95</ele>
        <time>2014-07-05T16:44:38Z</time>
      </trkpt>
      <trkpt lat="45.85846" lon="4.68382">
        <ele>215.47</ele>
        <time>2014-07-05T16:44:39Z</time>
      </trkpt>
      <trkpt lat="45.85843" lon="4.68378">
        <ele>215.47</ele>
        <time>2014-07-05T16:44:40Z</time>
      </trkpt>
      <trkpt lat="45.85839" lon="4.68375">
        <ele>214.99</ele>
        <time>2014-07-05T16:44:41Z</time>
      </trkpt>
      <trkpt lat="45.85836" lon="4.68371">
        <ele>214.51</ele>
        <time>2014-07-05T16:44:42Z</time>
      </trkpt>
      <trkpt lat="45.85832" lon="4.68367">
        <ele>214.51</ele>
        <time>2014-07-05T16:44:43Z</time>
      </trkpt>
      <trkpt lat="45.85805" lon="4.68334">
        <ele>215.47</ele>
        <time>2014-07-05T16:44:53Z</time>
      </trkpt>
      <trkpt lat="45.85773" lon="4.68302">
        <ele>215.47</ele>
        <time>2014-07-05T16:45:03Z</time>
      </trkpt>
      <trkpt lat="45.85748" lon="4.68274">
        <ele>214.51</ele>
        <time>2014-07-05T16:45:13Z</time>
      </trkpt>
      <trkpt lat="45.8573" lon="4.68255">
        <ele>215.95</ele>
        <time>2014-07-05T16:45:23Z</time>
      </trkpt>
      <trkpt lat="45.85708" lon="4.68226">
        <ele>215.95</ele>
        <time>2014-07-05T16:45:35Z</time>
      </trkpt>
      <trkpt lat="45.85688" lon="4.68189">
        <ele>215.47</ele>
        <time>2014-07-05T16:45:45Z</time>
      </trkpt>
      <trkpt lat="45.85671" lon="4.68159">
        <ele>215.47</ele>
        <time>2014-07-05T16:45:55Z</time>
      </trkpt>
      <trkpt lat="45.85655" lon="4.68123">
        <ele>216.43</ele>
        <time>2014-07-05T16:46:07Z</time>
      </trkpt>
      <trkpt lat="45.85648" lon="4.6811">
        <ele>215.95</ele>
        <time>2014-07-05T16:46:12Z</time>
      </trkpt>
      <trkpt lat="45.85648" lon="4.68109">
        <ele>214.99</ele>
        <time>2014-07-05T16:46:21Z</time>
      </trkpt>
      <trkpt lat="45.85647" lon="4.68111">
        <ele>215.47</ele>
        <time>2014-07-05T16:46:29Z</time>
      </trkpt>
      <trkpt lat="45.85647" lon="4.68111">
        <ele>215.47</ele>
        <time>2014-07-05T16:46:45Z</time>
      </trkpt>
      <trkpt lat="45.85647" lon="4.68114">
        <ele>214.99</ele>
        <time>2014-07-05T16:46:55Z</time>
      </trkpt>
      <trkpt lat="45.85647" lon="4.68121">
        <ele>214.99</ele>
        <time>2014-07-05T16:47:10Z</time>
      </trkpt>
      <trkpt lat="45.85647" lon="4.68121">
        <ele>214.03</ele>
        <time>2014-07-05T16:47:12Z</time>
      </trkpt>
      <trkpt lat="45.85646" lon="4.68115">
        <ele>226.05</ele>
        <time>2014-07-05T17:05:12Z</time>
      </trkpt>
      <trkpt lat="45.8541" lon="4.68226">
        <ele>226.05</ele>
        <time>2014-07-05T17:05:13Z</time>
      </trkpt>
    </trkseg>
  </trk>
</gpx>